[[[{"header":{"parameterUnit":"kt","parameterCategory":2,"dx":1,"dy":1,"la1":29.587661999999998,"la2":31.0,"lo1":-88.76705300000003,"lo2":-86.6583820000003,"nx":115,"ny":88,"refTime":"2022-10-10T06:00:00:Z","depth":0,"parameterNumber":1,"parameterNumberName":"U-component_of_WINDS"},"data":[4.5441,4.7181,4.8014,4.8325,4.8511,4.9355,4.9704,4.9847,5.0026,5.0082,4.9806,4.8978,4.8354,4.7911,4.8333,5.0143,5.3711,5.5803,5.765,5.9623,6.1035,6.2281,6.3504,6.4502,6.6488,6.6978,6.6994,6.6994,6.6988,6.6117,6.5537,6.5168,6.5368,6.6238,6.6451,6.7268,6.7987,6.9131,6.9744,7.0114,7.0934,7.1175,7.1265,7.1295,7.1295,7.1295,7.1295,7.1532,7.1563,7.183,7.236,7.2794,7.2763,7.2563,7.3274,7.4297,7.5239,7.6595,7.7431,7.7857,7.8084,7.9135,7.9228,7.9354,7.9354,7.9446,7.9446,7.9446,7.9446,7.9446,7.9446,7.9446,7.948,7.948,7.9572,7.9572,7.9572,7.958,7.9681,7.984,8.0408,8.2879,8.5183,8.7543,9.0215,9.1692,9.2713,9.3539,9.4266,9.4622,9.4967,9.5035,9.5035,9.5035,9.5035,9.5035,9.5035,9.5035,9.5035,9.5138,9.5138,9.5107,9.5174,9.5174,9.5174,9.5071,9.5035,9.5035,9.5035,9.5035,9.5035,9.5035,9.5035,9.5143,9.5319,4.372,4.5422,4.7475,4.849,4.849,4.9355,4.9847,4.97,4.9327,4.9148,4.8829,4.7258,4.7414,4.8023,4.8922,5.0155,5.1976,5.4423,5.6047,5.7803,5.9159,6.0407,6.1351,6.2313,6.3594,6.4358,6.4863,6.5485,6.5906,6.4878,6.4046,6.3607,6.4705,6.6452,6.6892,6.7707,6.9033,7.0079,7.051,7.0904,7.1265,7.1623,7.1653,7.1921,7.2039,7.2126,7.2274,7.2421,7.263,7.2832,7.2825,7.3531,7.3868,7.406,7.5196,7.6423,7.7332,7.789,7.8725,7.8914,7.9228,7.9446,7.9446,7.9446,7.9446,7.9446,7.9446,7.9446,7.9446,7.9446,7.9446,7.9446,7.948,7.9572,7.9572,7.9572,7.9572,7.9605,7.9605,7.9605,8.1418,8.3953,8.6146,8.8248,9.0403,9.2188,9.3364,9.4258,9.4867,9.5003,9.5035,9.5035,9.5035,9.5035,9.5035,9.5035,9.5035,9.5035,9.5205,9.5241,9.5241,9.5307,9.5307,9.5343,9.5241,9.5205,9.5138,9.5035,9.5035,9.5035,9.5138,9.5205,9.5205,9.5205,9.5241,4.4744,4.6471,4.8139,4.882,4.917,4.9847,4.9715,4.9391,4.9126,4.8362,4.7216,4.6873,4.686,4.7421,4.9665,5.1089,5.1966,5.3954,5.5274,5.6104,5.7114,5.8439,5.9536,6.0673,6.1441,6.2694,6.3269,6.3348,6.3691,6.3005,6.3253,6.409,6.4559,6.606,6.7994,6.8432,6.9525,7.1055,7.1145,7.1355,7.186,7.189,7.1921,7.2065,7.2065,7.2065,7.2182,7.2385,7.2593,7.2679,7.3305,7.425,7.5121,7.5937,7.7298,7.8117,7.882,7.8947,7.9261,7.9446,7.9446,7.9446,7.9446,7.9446,7.9446,7.9446,7.9446,7.9446,7.9446,7.9446,7.9446,7.9572,7.9572,7.9605,7.9697,7.9755,7.9721,7.9721,7.9812,7.9902,8.1059,8.3446,8.5375,8.741,8.9922,9.166,9.2736,9.3493,9.4534,9.5035,9.5035,9.5035,9.5035,9.5035,9.5138,9.5205,9.5138,9.5205,9.5271,9.5373,9.5503,9.5503,9.5503,9.5503,9.5503,9.5337,9.5271,9.5138,9.5138,9.5102,9.5271,9.5337,9.5438,9.5438,9.5568,4.5779,4.7014,4.8325,4.917,4.9826,4.9941,4.9572,4.8935,4.849,4.7279,4.6153,4.6618,4.7071,4.77,5.0111,5.1588,5.2356,5.3783,5.4428,5.5254,5.5825,5.7129,5.7862,5.8465,5.9675,6.1001,6.1608,6.1608,6.1581,6.1271,6.1553,6.331,6.4124,6.5432,6.7767,6.8753,6.9655,7.1205,7.1142,7.1279,7.1781,7.1847,7.2274,7.233,7.2385,7.2299,7.2299,7.2471,7.2471,7.2501,7.3582,7.4765,7.6177,7.8214,7.882,7.8535,7.9041,7.9261,7.9446,7.9446,7.9446,7.9446,7.9446,7.9446,7.9446,7.9446,7.9446,7.9446,7.9446,7.9446,7.9446,7.9572,7.9572,7.9697,7.9822,7.9936,7.9992,8.0048,8.0104,8.0315,8.0612,8.2153,8.3946,8.6306,8.8912,9.0565,9.1605,9.2904,9.3952,9.4921,9.4885,9.5205,9.5138,9.5271,9.5337,9.5402,9.5337,9.5402,9.5503,9.5568,9.5659,9.5659,9.5659,9.5695,9.5759,9.5759,9.5695,9.5402,9.5271,9.5337,9.5402,9.5467,9.5568,9.5695,9.5821,4.5064,4.5402,4.7475,4.8964,4.9721,4.9221,4.902,4.8744,4.7279,4.5836,4.5594,4.6758,4.7695,4.8624,5.1331,5.2779,5.3312,5.4351,5.5172,5.509,5.5557,5.5815,5.6206,5.6148,5.7493,5.8074,5.8627,5.9366,5.9313,5.9767,6.0322,6.1052,6.2639,6.4849,6.7276,6.838,6.9406,7.0539,7.0581,7.0529,7.1032,7.1881,7.2886,7.2702,7.2587,7.2709,7.2709,7.2856,7.2825,7.2825,7.3336,7.4281,7.6177,7.8214,7.9135,7.9354,7.9354,7.9446,7.9446,7.9446,7.9446,7.9446,7.9446,7.9446,7.9446,7.9446,7.9446,7.9446,7.9572,7.9572,7.9572,7.9663,7.9755,7.9846,7.997,8.015,8.0349,8.0544,8.0597,8.089,8.1313,8.2376,8.4108,8.5865,8.8545,8.9149,9.0305,9.2182,9.344,9.459,9.4982,9.5409,9.5503,9.5632,9.5695,9.5695,9.5632,9.5632,9.5632,9.5759,9.5821,9.5847,9.5847,9.5883,9.5982,9.6079,9.6079,9.5858,9.5632,9.5632,9.5596,9.5695,9.5759,9.592,9.6043,4.5045,4.5571,4.7787,4.8818,4.872,4.8354,4.8468,4.8659,4.7577,4.6855,4.6773,4.9108,5.0454,5.0909,5.3653,5.505,5.4781,5.5643,5.5819,5.5632,5.5495,5.5621,5.5595,5.5726,5.5937,5.6122,5.6729,5.7256,5.7382,5.8241,6.0917,6.2899,6.393,6.5641,6.6887,6.7829,6.8799,6.9078,6.9492,6.947,6.9723,7.003,7.0951,7.1289,7.1535,7.2118,7.2702,7.2825,7.3253,7.3725,7.472,7.5335,7.6177,7.8214,7.9446,7.9446,7.9446,7.9446,7.9446,7.9446,7.9446,7.9446,7.9446,7.9538,7.9538,7.9538,7.9538,7.9538,7.9572,7.9572,7.9663,7.9755,7.9936,7.9992,8.0205,8.0328,8.0578,8.0941,8.1195,8.1362,8.2185,8.3107,8.4423,8.6046,8.7452,8.8283,8.9619,9.1388,9.2782,9.4251,9.5177,9.5568,9.5759,9.5982,9.6043,9.5982,9.5982,9.592,9.592,9.592,9.6043,9.6043,9.6043,9.6104,9.614,9.614,9.614,9.6018,9.592,9.5982,9.5982,9.5982,9.5982,9.614,9.614,4.5233,4.5721,4.8119,4.896,4.8615,4.8502,4.8574,4.8766,4.8001,4.8016,4.8583,5.1361,5.2706,5.3663,5.6553,5.7269,5.7282,5.7129,5.6761,5.6627,5.6729,5.6175,5.5937,5.5937,5.5832,5.5779,5.5674,5.5885,5.6262,5.7457,6.0563,6.3896,6.4011,6.5439,6.6432,6.6997,6.7094,6.728,6.7956,6.8064,6.8218,6.8832,6.9477,7.019,7.0516,7.1558,7.2555,7.3009,7.3967,7.4747,7.5759,7.6692,7.6794,7.8214,7.9354,7.9354,7.9446,7.9446,7.9446,7.9446,7.9446,7.9446,7.963,7.963,7.9721,7.9687,7.9687,7.963,7.963,7.9721,7.9812,7.9902,7.9959,8.0138,8.026,8.0437,8.0699,8.1026,8.1657,8.1981,8.2768,8.3613,8.4271,8.5743,8.6766,8.7669,8.8959,9.0613,9.2259,9.4298,9.5405,9.5686,9.5883,9.6079,9.614,9.6201,9.6201,9.6237,9.614,9.614,9.614,9.614,9.6201,9.6237,9.6201,9.6201,9.6237,9.6201,9.6079,9.614,9.6201,9.6201,9.6237,9.6201,9.6201,4.5364,4.5889,4.849,4.9642,4.9763,4.992,4.9657,4.8893,4.8065,4.8866,5.0667,5.2574,5.4455,5.6287,5.8265,5.894,5.8942,5.8784,5.81,5.7599,5.7414,5.6729,5.6333,5.6487,5.6349,5.5905,5.5819,5.6068,5.5944,5.7639,5.9471,6.166,6.3333,6.4669,6.5398,6.5646,6.5337,6.5748,6.6313,6.6713,6.6897,6.7726,6.8248,6.8865,6.9512,7.0593,7.1896,7.3164,7.4294,7.5462,7.6249,7.7529,7.8214,7.8277,7.8725,7.9135,7.9446,7.9446,7.9446,7.9538,7.9538,7.963,7.9869,8.0015,8.0015,8.0015,8.0015,7.9925,7.9778,7.9869,8.0015,8.0104,8.0104,8.0315,8.0403,8.0578,8.0752,8.1362,8.1981,8.2692,8.347,8.4067,8.474,8.5096,8.6044,8.7189,8.8722,9.0268,9.1867,9.3941,9.5701,9.5883,9.6043,9.6201,9.6237,9.6201,9.6237,9.6237,9.6237,9.6237,9.6237,9.6201,9.6237,9.6237,9.6237,9.6237,9.6237,9.6237,9.6237,9.6237,9.6201,9.6237,9.6237,9.6237,9.6237,4.2635,4.4328,4.658,4.8142,4.923,5.0103,5.0209,5.0009,5.0147,5.1327,5.3223,5.5036,5.6666,5.8195,5.9815,6.0717,5.9748,5.939,5.8496,5.7414,5.7177,5.6518,5.6169,5.6262,5.6422,5.6504,5.6687,5.715,5.7554,5.8809,6.0285,6.1777,6.3316,6.4354,6.4689,6.4896,6.4541,6.49,6.5238,6.5668,6.5699,6.6203,6.6818,6.7386,6.8147,6.9095,7.0809,7.2382,7.3799,7.5463,7.6743,7.802,7.8853,7.9135,7.9135,7.9354,7.9446,7.9538,7.9538,7.963,7.9812,7.9869,8.0048,8.0104,8.0104,8.0369,8.0369,8.0193,8.0015,8.0138,8.026,8.0315,8.0403,8.0578,8.0665,8.0665,8.1094,8.2106,8.2768,8.3542,8.4271,8.474,8.5257,8.5442,8.5599,8.7021,8.859,8.9895,9.1287,9.3942,9.6104,9.614,9.6201,9.6237,9.6237,9.6237,9.6237,9.6237,9.6237,9.6237,9.6237,9.6237,9.6237,9.6237,9.6237,9.6237,9.6237,9.6237,9.6237,9.6237,9.6237,9.6237,9.6237,9.6237,9.6237,4.2272,4.4687,4.6747,4.8286,4.937,5.0103,5.0337,5.0499,5.1266,5.2935,5.5102,5.6634,5.8015,5.9693,6.1158,6.1775,6.1092,6.0394,5.9208,5.8153,5.7995,5.6781,5.609,5.6368,5.6646,5.6548,5.7272,5.797,5.872,6.02,6.1327,6.2238,6.3417,6.4438,6.4644,6.4644,6.4572,6.4808,6.528,6.528,6.4942,6.5782,6.642,6.6566,6.7477,6.9187,7.1568,7.2964,7.4489,7.6137,7.7872,7.8088,7.7556,7.9587,7.9529,7.9446,7.9687,7.9687,7.9778,7.9812,8.0082,8.0227,8.0281,8.0403,8.0403,8.0699,8.0665,8.0457,8.0369,8.0403,8.0525,8.0612,8.0612,8.0786,8.0872,8.0872,8.1145,8.2263,8.3068,8.3684,8.4135,8.4441,8.5194,8.5539,8.5719,8.6874,8.9142,9.0532,9.1355,9.3879,9.6237,9.6237,9.6237,9.6237,9.6237,9.6237,9.6237,9.6237,9.6237,9.6237,9.6237,9.6237,9.6237,9.6237,9.6237,9.6237,9.6237,9.6237,9.6237,9.6237,9.6237,9.6237,9.6237,9.6237,9.6237,4.4404,4.656,4.8923,5.0068,5.0124,5.0294,5.0294,5.0662,5.1427,5.3296,5.5942,5.7288,5.8784,6.0567,6.1795,6.2267,6.2117,6.2037,6.1038,5.9528,5.9182,5.823,5.717,5.668,5.7155,5.6326,5.7488,5.8657,5.8748,6.0992,6.199,6.2809,6.372,6.451,6.4716,6.4716,6.4778,6.5065,6.6442,6.6257,6.6144,6.7286,6.7534,6.7712,6.8203,6.9824,7.201,7.3551,7.4771,7.6339,7.8015,7.8105,7.6921,7.8992,7.9677,7.9572,7.9835,7.9925,8.0104,8.0104,8.0227,8.0403,8.0578,8.0665,8.0786,8.0872,8.0752,8.0665,8.0752,8.0786,8.0872,8.0872,8.0786,8.0872,8.0872,8.0924,8.1145,8.1785,8.2307,8.2958,8.3253,8.3754,8.4804,8.5599,8.5873,8.7085,8.9591,9.0925,9.1618,9.3609,9.5909,9.6237,9.6237,9.6237,9.6237,9.6237,9.6237,9.6237,9.6237,9.6237,9.6237,9.6237,9.6237,9.6237,9.6237,9.6237,9.6237,9.6237,9.6237,9.6237,9.6237,9.6237,9.6237,9.6237,9.6237,4.2775,4.5326,4.6492,4.7831,4.9339,4.936,5.0042,5.1179,5.2025,5.4059,5.6882,5.8039,5.9374,6.0712,6.1911,6.2495,6.2353,6.2037,6.0859,6.0023,5.9507,5.8554,5.7883,5.7599,5.8102,5.8943,5.9595,6.0599,6.1327,6.2425,6.3297,6.3916,6.4407,6.4705,6.4911,6.4808,6.5372,6.6257,6.7237,6.7268,6.8252,6.8981,6.9103,6.9727,6.9291,7.0688,7.2417,7.3925,7.4948,7.6039,7.7177,7.7871,7.86,7.9138,7.9677,7.9778,7.9778,7.9687,7.9902,8.0171,8.0665,8.0665,8.0786,8.0872,8.0872,8.0872,8.0872,8.0872,8.0872,8.0872,8.0872,8.0872,8.0872,8.0872,8.0872,8.0872,8.1145,8.1445,8.1866,8.2307,8.3107,8.386,8.4804,8.5539,8.5814,8.6722,8.8915,9.0378,9.1508,9.3609,9.5726,9.6237,9.6237,9.6237,9.6237,9.6237,9.6237,9.6237,9.6237,9.6237,9.6237,9.6237,9.6237,9.6237,9.6237,9.6237,9.6237,9.6237,9.6237,9.6237,9.6237,9.6237,9.6237,9.6237,9.6237,4.2332,4.541,4.5546,4.6752,4.8405,4.8426,4.9388,5.0913,5.1971,5.4004,5.673,5.8635,6.0106,6.1262,6.2284,6.2919,6.285,6.2499,6.1253,6.0283,5.9345,5.858,5.8141,5.8265,5.8921,5.9566,6.0796,6.2129,6.31,6.3554,6.4425,6.5599,6.6225,6.6101,6.6132,6.6522,6.6429,6.7091,6.7972,6.8575,6.9794,7.0458,7.1876,7.2056,7.1025,7.2367,7.3561,7.4726,7.5449,7.6371,7.7644,7.871,7.971,7.9968,8.0138,8.0015,8.0138,8.0138,8.026,8.0437,8.0699,8.0699,8.0786,8.0872,8.0872,8.0872,8.0872,8.0872,8.0872,8.0872,8.0872,8.0872,8.0872,8.0872,8.0872,8.0872,8.1094,8.1396,8.1854,8.1981,8.2768,8.4067,8.4969,8.5539,8.5873,8.6286,8.813,8.9919,9.18,9.3828,9.5398,9.6237,9.6237,9.6237,9.6237,9.6237,9.6237,9.6237,9.6237,9.6237,9.6237,9.6237,9.6237,9.6237,9.6237,9.6237,9.6237,9.6237,9.6237,9.6237,9.6237,9.6201,9.6201,9.6237,9.6237,4.3013,4.6049,4.5937,4.647,4.7513,4.7645,4.8599,5.0331,5.1261,5.3345,5.6267,5.8734,6.0541,6.1754,6.2661,6.3443,6.4314,6.325,6.1824,6.0647,5.9935,5.9032,5.8476,5.8567,5.91,5.9741,6.1104,6.2208,6.2933,6.4138,6.5629,6.7206,6.6912,6.7785,6.7823,6.7183,6.7032,6.7037,6.8748,6.9511,7.0845,7.2443,7.4357,7.3819,7.4904,7.6417,7.7601,7.7427,7.7447,7.7176,7.8872,8.0247,8.0213,8.0403,8.0349,8.0193,8.0281,8.0491,8.0612,8.0612,8.0525,8.0612,8.0699,8.0872,8.0872,8.0872,8.0872,8.0872,8.0872,8.0872,8.0872,8.0872,8.1009,8.1094,8.1213,8.1263,8.1644,8.1854,8.1935,8.1773,8.2844,8.4639,8.5695,8.5873,8.614,8.631,8.7934,8.9028,9.1128,9.3981,9.5421,9.632,9.632,9.632,9.632,9.6261,9.632,9.632,9.6261,9.6237,9.6201,9.6237,9.6237,9.6237,9.6237,9.6237,9.6237,9.6237,9.6237,9.6237,9.6261,9.6306,9.6306,9.6261,9.6237,4.2503,4.4653,4.4864,4.5623,4.6473,4.7115,4.8384,5.0063,5.1647,5.3622,5.57,5.7373,5.9617,6.1392,6.2327,6.2822,6.2809,6.2441,6.128,6.0647,6.0209,5.9957,5.9404,5.9274,6.0057,6.1303,6.2158,6.2916,6.3795,6.4675,6.5309,6.5993,6.6964,6.6875,6.6817,6.7203,6.7301,6.6859,6.8799,7.0786,7.2633,7.4261,7.5169,7.5823,7.6172,7.6505,7.6534,7.728,7.728,7.728,7.8944,8.0117,8.0238,8.017,8.0064,8.0281,8.0078,8.0374,8.0581,8.0838,8.0786,8.0786,8.0872,8.1044,8.0958,8.0872,8.0872,8.1009,8.0924,8.0872,8.0958,8.1179,8.1263,8.1431,8.1597,8.205,8.2411,8.2686,8.2838,8.3289,8.4405,8.5837,8.5989,8.6161,8.6273,8.6439,8.7186,8.8245,9.0985,9.4243,9.5674,9.665,9.665,9.6706,9.6574,9.6438,9.6438,9.6438,9.632,9.6297,9.632,9.632,9.632,9.6261,9.6237,9.6237,9.6237,9.6237,9.6237,9.6237,9.6261,9.6364,9.6464,9.6283,9.6297,4.1549,4.3985,4.4855,4.5465,4.6083,4.6855,4.8111,4.9738,5.0964,5.3361,5.6445,5.7547,5.9793,6.2801,6.3364,6.3649,6.3843,6.305,6.19,6.1526,6.0959,6.0625,6.0343,6.0883,6.1386,6.2485,6.3053,6.393,6.4961,6.5658,6.6363,6.7136,6.7428,6.7465,6.8266,6.8551,6.836,6.8586,6.9868,7.2317,7.4717,7.631,7.7181,7.8015,7.7736,7.7973,7.7824,7.8011,7.7025,7.7569,7.7603,7.8827,7.8877,7.8861,7.937,7.9894,7.9913,7.9746,8.0019,8.0702,8.1026,8.1129,8.1347,8.1465,8.1465,8.1548,8.1514,8.161,8.1229,8.1229,8.1726,8.1808,8.1842,8.1924,8.221,8.2567,8.2873,8.3286,8.4034,8.5122,8.6068,8.6217,8.6329,8.6384,8.6384,8.6529,8.6967,8.85,9.1261,9.3807,9.4998,9.6446,9.6994,9.6994,9.6816,9.6594,9.665,9.6706,9.6574,9.6517,9.6517,9.6459,9.6459,9.6401,9.6342,9.632,9.6237,9.6261,9.632,9.6261,9.6201,9.6688,9.7054,9.6868,9.6797,4.0855,4.3839,4.5287,4.5861,4.6047,4.6803,4.8124,4.9707,5.0222,5.3324,5.8136,5.8839,6.0848,6.3636,6.4965,6.5794,6.544,6.3876,6.2532,6.1832,6.1201,6.0829,6.122,6.2623,6.2779,6.3629,6.4242,6.5295,6.5992,6.6481,6.7469,6.8362,6.8747,6.9801,6.9672,7.0248,7.1379,7.099,7.2303,7.4137,7.5974,7.7656,7.8488,7.871,7.8536,7.8298,7.8298,7.7445,7.673,7.7596,7.688,7.6368,7.5993,7.6095,7.7972,7.9064,7.952,7.878,7.954,8.0817,8.1773,8.1935,8.1889,8.2165,8.2324,8.2324,8.2368,8.2727,8.2061,8.1901,8.2651,8.2721,8.2524,8.2756,8.3064,8.3359,8.3613,8.4374,8.496,8.5917,8.6273,8.6384,8.6493,8.6493,8.6493,8.6529,8.7022,8.9065,9.1093,9.2222,9.337,9.6131,9.7302,9.7165,9.7047,9.6888,9.6904,9.7047,9.6941,9.6888,9.6779,9.6706,9.6706,9.6594,9.6537,9.648,9.6669,9.6669,9.648,9.6537,9.6743,9.7054,9.7502,9.7548,9.7493,4.2432,4.4566,4.5453,4.5861,4.6146,4.7323,4.8928,5.0628,5.1759,5.4471,5.7837,5.9656,6.134,6.3253,6.4681,6.5033,6.3985,6.2889,6.1817,6.1313,6.0917,6.1108,6.1608,6.2317,6.3252,6.4429,6.5101,6.5371,6.6255,6.6704,6.696,6.798,6.8354,6.9107,7.0535,7.0905,7.2012,7.2729,7.4067,7.4257,7.4859,7.5813,7.65,7.6905,7.6934,7.647,7.6415,7.6005,7.5937,7.5697,7.5663,7.5276,7.3672,7.5071,7.6641,7.7363,7.8183,7.9226,8.0317,8.1788,8.2633,8.2809,8.2489,8.2609,8.2838,8.3138,8.3024,8.2567,8.2651,8.3435,8.3719,8.3824,8.3895,8.4,8.4207,8.4674,8.4897,8.5211,8.5823,8.6125,8.6384,8.6493,8.6493,8.6493,8.6547,8.6637,8.7778,8.9855,9.2362,9.2845,9.3657,9.6266,9.7499,9.7364,9.7265,9.7165,9.7215,9.7265,9.7215,9.7165,9.7099,9.6994,9.6834,9.6761,9.6779,9.7077,9.7204,9.7351,9.7302,9.7302,9.7302,9.7502,9.7899,9.8023,9.7982,4.1734,4.4436,4.5326,4.6293,4.7138,4.8258,4.9477,5.0858,5.1748,5.4227,5.7232,5.8993,6.0689,6.2726,6.4094,6.4088,6.3267,6.2265,6.1623,6.1376,6.1653,6.2158,6.2563,6.3808,6.4634,6.5371,6.6094,6.6707,6.712,6.7693,6.8523,6.8901,6.986,7.0672,7.1362,7.1571,7.2729,7.3479,7.4709,7.5351,7.5436,7.6205,7.6644,7.6643,7.6275,7.5897,7.5415,7.5622,7.4625,7.4659,7.4728,7.3944,7.3428,7.3834,7.4651,7.5094,7.6356,7.7938,7.959,8.163,8.3112,8.3645,8.3577,8.3577,8.4031,8.4271,8.4374,8.4271,8.4761,8.4889,8.4853,8.4761,8.4704,8.474,8.4996,8.5344,8.5646,8.5917,8.6181,8.642,8.6529,8.6493,8.6493,8.6653,8.6653,8.7485,8.8743,9.126,9.4137,9.4568,9.4738,9.6667,9.7687,9.7557,9.7557,9.7462,9.7547,9.7547,9.7547,9.7499,9.7401,9.7302,9.715,9.7099,9.7376,9.7668,9.7851,9.8023,9.8142,9.822,9.8142,9.818,9.8407,9.8516,9.8516,4.063,4.3908,4.5028,4.6317,4.7616,4.8625,4.9825,5.1102,5.1671,5.4063,5.7799,5.8374,6.0323,6.2224,6.303,6.3227,6.3097,6.2745,6.2268,6.2126,6.296,6.3659,6.4181,6.5233,6.6157,6.6866,6.734,6.7866,6.8465,6.9518,6.9824,7.0659,7.1742,7.2488,7.2635,7.3227,7.3613,7.4681,7.5276,7.6131,7.645,7.7016,7.7324,7.6667,7.5462,7.5324,7.5601,7.4358,7.3633,7.4604,7.3739,7.3393,7.3323,7.3216,7.3425,7.409,7.5654,7.7415,7.8888,8.1005,8.3066,8.4134,8.4489,8.4761,8.5261,8.5502,8.5714,8.5979,8.6128,8.6219,8.6108,8.5728,8.5369,8.5406,8.5587,8.5859,8.5974,8.6181,8.6439,8.6475,8.6529,8.6583,8.6913,8.7161,8.8915,9.1062,9.1279,9.2555,9.5008,9.5805,9.5926,9.676,9.7742,9.7779,9.7779,9.7733,9.7687,9.7687,9.7687,9.7641,9.7594,9.7499,9.7594,9.765,9.7876,9.8056,9.837,9.8692,9.8758,9.862,9.8758,9.8891,9.8828,9.8725,9.879,4.1405,4.3204,4.403,4.4762,4.5697,4.73,4.9637,5.2432,5.3479,5.5542,5.8865,6.0349,6.0563,6.1611,6.255,6.3143,6.3116,6.3166,6.2897,6.2889,6.3855,6.4797,6.5533,6.6255,6.6961,6.8206,6.842,6.8859,6.9298,6.9775,7.0476,7.0913,7.1884,7.2585,7.3433,7.3614,7.3841,7.5266,7.5319,7.5635,7.6708,7.713,7.665,7.5787,7.4398,7.4088,7.4053,7.374,7.3253,7.3392,7.3428,7.3704,7.3939,7.4006,7.4072,7.4143,7.6163,7.7612,7.8782,8.1263,8.345,8.3832,8.4683,8.5429,8.611,8.6523,8.6803,8.699,8.699,8.694,8.6913,8.6564,8.6402,8.6347,8.6329,8.6384,8.6384,8.6439,8.6547,8.6547,8.6706,8.7026,8.74,8.847,9.1796,9.4348,9.3421,9.3606,9.5655,9.6806,9.6731,9.7259,9.7631,9.7779,9.7779,9.7733,9.7733,9.7733,9.7733,9.7733,9.7733,9.7687,9.7742,9.8,9.8172,9.8293,9.8518,9.8822,9.8953,9.8922,9.8953,9.8953,9.8953,9.8953,9.8922,4.0576,4.2705,4.314,4.4341,4.6022,4.7347,4.9711,5.2328,5.3681,5.5935,5.8615,5.9628,6.0175,6.0615,6.1272,6.1703,6.1769,6.204,6.2223,6.3143,6.4736,6.5768,6.6418,6.7025,6.7621,6.842,6.8568,6.9068,6.9893,7.0632,7.0898,7.1185,7.2381,7.2715,7.2262,7.1927,7.2559,7.3323,7.332,7.3774,7.4648,7.5312,7.5312,7.4613,7.4122,7.3702,7.3634,7.3702,7.3702,7.3737,7.3805,7.4006,7.4204,7.4716,7.4618,7.4625,7.6157,7.7306,7.8897,8.1104,8.3253,8.4218,8.5272,8.6055,8.6715,8.7039,8.7269,8.7269,8.7269,8.7258,8.71,8.6963,8.681,8.6758,8.66,8.6547,8.6547,8.6758,8.6913,8.6926,8.7161,8.7546,8.8655,9.0144,9.2871,9.4616,9.3873,9.5358,9.7333,9.7296,9.7296,9.7333,9.7631,9.7779,9.7779,9.7779,9.7779,9.7779,9.7779,9.7779,9.7824,9.7832,9.7919,9.8172,9.8407,9.8519,9.8725,9.8822,9.9042,9.8983,9.8991,9.9021,9.9021,9.9021,9.9021,4.0513,4.2846,4.2846,4.4349,4.6515,4.7788,4.9864,5.2423,5.3272,5.5456,5.7886,5.8338,5.8572,5.9144,5.9399,5.957,5.957,6.014,6.0954,6.2604,6.529,6.6548,6.6253,6.686,6.7438,6.767,6.7801,6.8363,6.9199,7.0088,7.106,7.0813,7.1673,7.1987,7.0684,7.0506,7.011,6.9961,7.086,7.1501,7.1887,7.2696,7.3329,7.3646,7.3641,7.3782,7.4134,7.4239,7.4304,7.4334,7.4463,7.4491,7.4555,7.5074,7.5193,7.5049,7.584,7.7058,7.8483,8.0304,8.2324,8.3962,8.5129,8.6413,8.7169,8.7363,8.7363,8.7316,8.7269,8.7258,8.721,8.7173,8.7076,8.6963,8.6913,8.681,8.6758,8.7026,8.7269,8.7456,8.776,8.8012,8.8161,9.0686,9.284,9.4363,9.5811,9.7408,9.7742,9.7705,9.7668,9.7593,9.7779,9.7779,9.7779,9.7779,9.7779,9.7779,9.7779,9.7779,9.7876,9.7963,9.8097,9.8332,9.8591,9.8897,9.9137,9.9256,9.9108,9.905,9.9021,9.9117,9.9146,9.9117,9.9088,4.2523,4.3917,4.3917,4.4926,4.6456,4.7634,4.9974,5.2568,5.3164,5.5058,5.7274,5.6958,5.7064,5.6883,5.7558,5.7214,5.7271,5.88,6.0326,6.2726,6.509,6.6448,6.5195,6.5672,6.5774,6.5907,6.566,6.6653,6.7913,6.8144,6.875,6.9695,6.9989,6.9836,6.9352,6.9415,6.961,6.9285,6.9593,6.9804,6.9945,7.0367,7.1177,7.1986,7.2127,7.2726,7.3711,7.4304,7.4334,7.4463,7.5074,7.5193,7.4795,7.5252,7.5543,7.5732,7.6374,7.6954,7.7523,7.932,8.1094,8.276,8.4355,8.589,8.7029,8.7554,8.7591,8.7501,8.7363,8.7363,8.7373,8.7409,8.7363,8.7353,8.7306,8.7258,8.7221,8.7221,8.7456,8.7888,8.7971,8.8012,8.8829,9.0723,9.3286,9.414,9.5774,9.7111,9.7668,9.7742,9.7779,9.7779,9.7779,9.7779,9.7779,9.7779,9.7779,9.7779,9.7779,9.7876,9.8005,9.8178,9.8295,9.8551,9.886,9.9174,9.9396,9.9346,9.9202,9.9146,9.9146,9.924,9.9305,9.924,9.9212,4.2986,4.4206,4.4469,4.5988,4.7946,4.8486,5.0634,5.3286,5.3728,5.5024,5.6674,5.679,5.6726,5.6804,5.6988,5.7411,5.814,5.8848,6.0381,6.242,6.4072,6.4936,6.5216,6.5448,6.5651,6.584,6.6375,6.712,6.7989,6.8227,6.83,6.8421,6.8375,6.7822,6.7164,6.6882,6.6882,6.7129,6.7833,6.8255,6.8396,6.91,6.9945,7.0367,7.0621,7.129,7.286,7.4032,7.4734,7.5122,7.5771,7.6146,7.5951,7.6404,7.6774,7.6774,7.7104,7.7328,7.7666,7.9017,8.0404,8.1401,8.3783,8.5268,8.6199,8.7321,8.7888,8.7766,8.776,8.7716,8.7591,8.7628,8.7546,8.7538,8.7628,8.7723,8.776,8.7716,8.7846,8.793,8.8012,8.8012,8.8124,9.0909,9.2691,9.3805,9.5254,9.6591,9.7519,9.7705,9.7779,9.7779,9.7779,9.7779,9.7779,9.7779,9.7779,9.7779,9.7824,9.7968,9.8178,9.8407,9.862,9.8854,9.9108,9.9308,9.9396,9.9396,9.932,9.9294,9.9294,9.9294,9.932,9.9282,9.9267,4.3849,4.4624,4.5616,4.7203,4.8945,4.9534,5.1484,5.3942,5.3865,5.4476,5.5824,5.6075,5.5891,5.6215,5.6393,5.721,5.8019,5.8614,6.0176,6.1887,6.2247,6.3168,6.4441,6.5096,6.5321,6.5504,6.5826,6.6846,6.7631,6.7421,6.731,6.6982,6.689,6.6268,6.5377,6.5659,6.5589,6.58,6.6894,6.7387,6.7528,6.8128,6.8657,6.8949,6.91,6.9874,7.1434,7.3201,7.449,7.5363,7.6302,7.6881,7.7158,7.7538,7.7701,7.7664,7.7783,7.7783,7.8005,7.8899,7.979,8.0418,8.2465,8.4316,8.5094,8.626,8.7084,8.8012,8.8012,8.7967,8.784,8.776,8.776,8.7672,8.7846,8.7971,8.7971,8.8012,8.8012,8.8012,8.8012,8.8012,8.8681,9.0686,9.2654,9.2734,9.4072,9.5892,9.671,9.7155,9.7824,9.7779,9.7779,9.7779,9.7779,9.7779,9.7779,9.7816,9.8223,9.8436,9.8556,9.8725,9.8953,9.9174,9.9346,9.9396,9.9421,9.9445,9.9506,9.9483,9.9459,9.9434,9.9396,9.9359,9.9346,4.5565,4.5655,4.7706,4.8626,4.9166,5.0614,5.221,5.3555,5.315,5.3726,5.4601,5.4245,5.3996,5.4274,5.4734,5.542,5.6152,5.765,5.9456,6.0942,6.1512,6.2052,6.2883,6.3503,6.3903,6.3862,6.4085,6.4489,6.5428,6.5428,6.5074,6.5752,6.5733,6.5359,6.5607,6.6812,6.7273,6.706,6.7414,6.7556,6.7414,6.6508,6.6472,6.7761,6.8057,6.887,7.039,7.1955,7.3511,7.5213,7.6229,7.7203,7.7982,7.8284,7.8284,7.8246,7.8284,7.8284,7.8246,7.8506,7.9063,8.0213,8.1067,8.2108,8.4631,8.467,8.5192,8.7678,8.8012,8.8012,8.8008,8.7971,8.7971,8.8008,8.7971,8.8012,8.8012,8.8012,8.8012,8.8012,8.8012,8.8012,8.8198,9.0649,9.162,9.1736,9.3227,9.4789,9.5831,9.6797,9.7609,9.7824,9.7779,9.7779,9.7779,9.7779,9.7779,9.8136,9.9111,9.9118,9.9058,9.9096,9.9202,9.9371,9.9506,9.9506,9.9529,9.9506,9.9529,9.9756,9.9793,9.9605,9.9506,9.9506,9.9483,4.5122,4.5776,4.773,4.9392,5.0811,5.1403,5.271,5.4255,5.3496,5.3467,5.4012,5.3804,5.3826,5.4185,5.4825,5.5821,5.7105,5.8174,5.9821,6.177,6.2166,6.2517,6.3178,6.3435,6.3748,6.4293,6.4869,6.529,6.5503,6.5539,6.5575,6.5732,6.5715,6.5663,6.57,6.6962,6.7191,6.6587,6.7222,6.7166,6.6457,6.6528,6.7025,6.7684,6.8592,6.987,7.1349,7.2174,7.3138,7.4293,7.5931,7.7247,7.8246,7.8357,7.8394,7.8394,7.8394,7.8394,7.8394,7.8394,7.8654,7.9248,8.0176,8.1774,8.3372,8.3782,8.4712,8.7421,8.8012,8.8012,8.8012,8.8012,8.8012,8.8012,8.8012,8.8012,8.8012,8.8012,8.8012,8.8012,8.8012,8.8012,8.8087,8.9498,8.9836,9.0699,9.1669,9.2711,9.5055,9.5948,9.6902,9.7527,9.7794,9.7906,9.7824,9.8047,9.801,9.8992,10.0127,9.9949,9.9456,9.9369,9.9346,9.9483,9.9529,9.9529,9.9529,9.9529,9.9982,10.0171,10.0435,10.002,9.9529,9.9529,9.9529,4.4585,4.5205,4.7638,4.9548,5.0716,5.1753,5.2813,5.4158,5.3839,5.3796,5.4155,5.4444,5.4795,5.5328,5.6003,5.713,5.8459,5.9545,6.0925,6.2449,6.2888,6.3342,6.4054,6.4139,6.4585,6.529,6.585,6.6087,6.6087,6.6087,6.6001,6.5987,6.5936,6.5886,6.5942,6.7267,6.7963,6.7303,6.8155,6.842,6.7922,6.7796,6.776,6.7867,6.8796,7.0134,7.1786,7.1808,7.2204,7.2952,7.4194,7.5587,7.7134,7.7986,7.8357,7.8394,7.8394,7.8394,7.8394,7.8394,7.8394,7.858,7.9359,8.0771,8.2146,8.2889,8.4414,8.6492,8.7678,8.8012,8.8012,8.8012,8.8012,8.8012,8.8012,8.8012,8.8012,8.8012,8.8012,8.8012,8.8012,8.8012,8.8049,8.8087,8.8762,8.9586,9.0525,9.1419,9.3655,9.4891,9.6311,9.7596,9.809,9.8433,10.0156,10.132,10.0877,10.1048,10.1232,10.0952,9.9975,9.9483,9.9483,9.9529,9.9529,9.9529,9.9529,9.9869,10.0586,10.1002,10.119,10.07,9.9831,9.9529,9.9529,4.465,4.432,4.7821,4.9097,4.9037,5.1596,5.2893,5.3151,5.3757,5.4473,5.5078,5.5576,5.6274,5.7359,5.7563,5.8491,5.9925,6.1098,6.2173,6.3017,6.3346,6.4028,6.5036,6.5091,6.5451,6.5951,6.6087,6.6087,6.6136,6.6136,6.6136,6.6087,6.6087,6.6087,6.6087,6.7687,6.9194,6.9839,7.0037,7.0968,7.2363,6.9516,6.8051,6.8051,6.8213,6.916,7.0808,7.009,7.0423,7.1524,7.134,7.2204,7.4857,7.7202,7.832,7.8208,7.832,7.8357,7.8394,7.8394,7.8394,7.8431,7.8431,7.9285,8.0845,8.2071,8.3446,8.5155,8.6827,8.8053,8.8053,8.7944,8.7944,8.8012,8.8093,8.809,8.8049,8.8012,8.8012,8.8012,8.8012,8.8012,8.8012,8.8012,8.813,8.8735,8.9775,9.1004,9.1981,9.4179,9.652,9.7847,9.9006,9.9904,10.2223,10.4354,10.3414,10.2562,10.1961,10.1332,10.0148,9.9529,9.9529,9.9529,9.9529,9.9529,9.9529,10.0813,10.1455,10.2285,10.2097,10.2021,10.1039,10.0209,10.002,4.3349,4.5351,4.7415,4.89,5.0223,5.2174,5.3136,5.3728,5.3923,5.4377,5.5108,5.5821,5.6482,5.7155,5.8574,5.997,6.1285,6.2243,6.3083,6.3906,6.4352,6.5016,6.566,6.5763,6.5951,6.6185,6.6234,6.6283,6.6331,6.6331,6.6331,6.6331,6.6379,6.6379,6.6619,6.7925,6.8307,6.8019,6.8851,6.889,6.844,6.8388,6.8443,6.8496,6.8695,6.9195,6.9713,7.0725,7.1431,7.183,7.2089,7.1757,7.1585,7.5635,7.7874,7.7054,7.7724,7.8394,7.8394,7.8394,7.8357,7.8357,7.8393,7.8986,8.0399,8.0177,8.181,8.4636,8.6871,8.8135,8.8102,8.7459,8.731,8.8139,8.8325,8.8212,8.809,8.8049,8.8012,8.8012,8.8012,8.8012,8.8012,8.8012,8.8133,8.8288,8.8734,9.0334,9.2128,9.388,9.5118,9.7732,9.9791,10.0983,10.0751,10.2699,10.3105,10.2213,10.1507,10.0903,10.0133,9.9756,9.9529,9.9529,9.9529,9.9529,10.0247,10.1606,10.2814,10.3947,10.3796,10.3041,10.2134,10.119,10.0851,4.3105,4.606,4.7897,4.953,5.1062,5.2477,5.3531,5.4214,5.4407,5.5014,5.6034,5.6779,5.7586,5.851,5.9937,6.1139,6.2068,6.2886,6.3658,6.4446,6.5127,6.566,6.6185,6.6234,6.6283,6.6379,6.6379,6.6474,6.6614,6.6614,6.6614,6.6614,6.6614,6.6614,6.6795,6.7641,6.7954,6.7473,6.8155,6.8486,6.822,6.8348,6.8312,6.7925,6.8122,6.8283,6.8501,6.9804,7.0679,7.0762,7.1246,7.0724,6.9648,7.3344,7.556,7.5333,7.6084,7.6905,7.739,7.7501,7.7724,7.8246,7.8388,7.8866,7.9502,7.9198,7.9965,8.3489,8.6381,8.7574,8.7166,8.6591,8.6679,8.7598,8.8132,8.8362,8.825,8.813,8.8012,8.8012,8.8012,8.8012,8.8012,8.8012,8.8093,8.8213,8.836,8.9327,9.1229,9.2414,9.3609,9.6236,9.8441,9.94,9.7395,10.059,10.2361,10.1417,10.0926,10.0247,10.0058,9.9642,9.9605,9.9642,9.9567,9.9529,9.9605,10.1002,10.2248,10.3494,10.4702,10.3947,10.3116,10.289,10.2285,4.382,4.6149,4.9316,5.0645,5.0875,5.2821,5.3962,5.4473,5.5009,5.6185,5.7734,5.8273,5.961,6.1279,6.1713,6.1997,6.2277,6.3307,6.4114,6.4735,6.5503,6.6136,6.651,6.651,6.6521,6.6521,6.665,6.6705,6.6841,6.6841,6.6841,6.6877,6.6877,6.6841,6.6877,6.6905,6.763,6.8543,6.8616,6.9263,7.0315,6.9205,6.7817,6.6751,6.6557,6.6905,6.7375,6.7704,6.8182,6.8516,6.8975,6.9105,6.9143,7.047,7.2212,7.3567,7.3828,7.443,7.5672,7.5929,7.6565,7.7871,7.8188,7.843,7.8723,7.8859,7.9824,8.1409,8.5413,8.6746,8.4767,8.5065,8.5817,8.6208,8.7369,8.7982,8.8246,8.7878,8.7944,8.8093,8.8133,8.8172,8.817,8.8053,8.8096,8.836,8.8525,8.8915,8.9498,9.0701,9.2289,9.3684,9.4035,9.4157,9.5874,9.7928,9.9114,9.9265,9.9265,9.934,9.9454,9.9567,9.9642,9.968,9.9605,9.9567,9.9567,10.0247,10.1493,10.3267,10.4551,10.4815,10.3947,10.4249,10.3758,4.3701,4.5755,4.8583,5.0931,5.2821,5.3473,5.4185,5.5009,5.5103,5.5759,5.6871,5.8221,6.0003,6.196,6.2275,6.2653,6.3342,6.4114,6.4925,6.5696,6.6295,6.6624,6.6751,6.6751,6.6751,6.6787,6.6832,6.6841,6.6841,6.6841,6.6841,6.6841,6.6841,6.6841,6.6841,6.6841,6.7095,6.7485,6.7348,6.7471,6.7833,6.746,6.6943,6.6593,6.6841,6.7266,6.763,6.8071,6.8442,6.8846,6.8966,6.902,6.902,6.9404,7.0852,7.33,7.3785,7.3935,7.4142,7.4479,7.5237,7.657,7.6909,7.7474,7.8569,7.915,8.0032,8.1332,8.1877,8.2622,8.2384,8.2967,8.3647,8.4629,8.5027,8.5779,8.6754,8.6878,8.7224,8.8417,8.8387,8.8604,8.8574,8.8325,8.8288,8.8765,8.8942,8.9243,9.0665,9.1086,9.1988,9.3605,9.1933,9.1761,9.3438,9.5233,9.6093,9.6773,9.7528,9.8117,9.934,9.9454,9.9567,9.9642,9.968,9.9642,9.9567,9.9718,10.0586,10.338,10.5306,10.5872,10.4626,10.5495,10.5004,4.5385,4.7118,4.9342,5.1579,5.3699,5.4117,5.4789,5.5602,5.6095,5.6814,5.7711,5.9097,6.0508,6.1856,6.2687,6.3247,6.381,6.4834,6.566,6.61,6.666,6.6929,6.7009,6.7009,6.706,6.7108,6.7151,6.7145,6.7102,6.7175,6.7139,6.7053,6.7053,6.7053,6.7053,6.7009,6.7009,6.6929,6.6841,6.6877,6.6796,6.6787,6.6705,6.666,6.6966,6.7353,6.7855,6.8103,6.843,6.8945,6.8982,6.902,6.902,6.902,6.9863,7.1532,7.1824,7.2402,7.3665,7.4505,7.5634,7.7165,7.7498,7.7976,7.9015,7.9343,7.9782,8.0495,8.0027,7.9857,8.0877,8.1594,8.2349,8.3112,8.385,8.4504,8.5348,8.5338,8.5916,8.7483,8.7656,8.7826,8.8737,8.8627,8.8621,8.9046,8.9119,8.9397,9.0419,9.0664,9.1004,9.1655,9.0828,9.0317,9.1426,9.3117,9.4604,9.5338,9.5796,9.6157,9.7329,9.7895,9.8705,9.9529,9.9536,9.9558,9.9363,9.9718,9.9907,10.153,10.372,10.5608,10.4626,10.5193,10.4702,4.7616,4.9234,5.0439,5.2164,5.3786,5.476,5.5509,5.6216,5.7373,5.8459,5.9137,6.0412,6.0819,6.1269,6.2774,6.3697,6.4139,6.5573,6.6295,6.6379,6.6841,6.7181,6.7344,6.7344,6.7389,6.7476,6.7632,6.7591,6.7507,6.7662,6.7547,6.7344,6.7302,6.7302,6.7344,6.7266,6.7181,6.7096,6.7096,6.7096,6.7053,6.6966,6.6885,6.6841,6.6841,6.7234,6.7997,6.7888,6.8192,6.8923,6.8997,6.8982,6.8982,6.8833,6.8844,6.9068,6.8721,6.9835,7.2755,7.4672,7.6124,7.82,7.8496,7.8805,7.9294,7.914,7.9065,7.9555,7.9555,7.9518,7.9593,8.0613,8.1368,8.1726,8.2773,8.3826,8.3877,8.3723,8.4287,8.5975,8.5956,8.6423,8.8193,8.8732,8.8908,8.9337,8.9314,8.9362,8.9619,8.9557,8.967,8.9677,8.9686,8.9835,9.0227,9.2321,9.3381,9.3853,9.4213,9.4704,9.5234,9.6104,9.6973,9.7823,9.8145,9.8581,9.871,9.9061,9.9007,10.0156,10.1908,10.3871,10.4136,10.4362,10.372,4.5446,4.721,4.8482,5.0238,5.2424,5.4373,5.585,5.6786,5.7571,5.7716,5.7534,5.8792,6.0057,6.124,6.1927,6.3425,6.5306,6.6103,6.6784,6.7397,6.7591,6.7668,6.7743,6.7668,6.7706,6.7745,6.7999,6.7999,6.7781,6.7964,6.7964,6.7743,6.7586,6.7626,6.7705,6.7389,6.7344,6.7466,6.7344,6.7139,6.7053,6.7053,6.6966,6.6877,6.6841,6.7234,6.796,6.7995,6.8293,6.8948,6.9011,6.8997,6.8945,6.7786,6.7636,6.8609,6.6552,6.5584,6.6678,6.8319,7.1076,7.5028,7.5594,7.6745,7.8857,7.7234,7.6724,7.9065,7.948,7.948,7.9442,7.8913,7.8762,7.9933,8.0386,8.1101,8.2253,8.2459,8.3059,8.4604,8.489,8.4911,8.5936,8.7901,8.9496,8.9723,8.9721,8.9641,8.9594,8.9505,8.9523,8.971,8.9811,8.9849,8.9998,9.067,9.0928,9.0837,9.1912,9.3048,9.4161,9.4805,9.5584,9.659,9.6438,9.6038,9.5833,9.574,9.6822,9.9136,10.0247,10.1153,10.2158,10.3116,10.3305,4.6025,4.7384,4.9125,5.0666,5.2268,5.4349,5.5639,5.6345,5.7028,5.7254,5.7453,5.8536,5.9569,6.0379,6.1157,6.2288,6.3753,6.5323,6.6298,6.6824,6.7524,6.7892,6.8037,6.8037,6.8036,6.8106,6.8275,6.8208,6.8037,6.8177,6.8106,6.7855,6.778,6.7743,6.7781,6.755,6.7503,6.7623,6.7586,6.751,6.743,6.7348,6.7302,6.7224,6.7271,6.7593,6.8131,6.8298,6.8275,6.7961,6.7937,6.7613,6.6815,6.5892,6.5792,6.6552,6.4944,6.4759,6.653,6.7669,7.0083,7.4214,7.4605,7.544,7.7139,7.5629,7.5704,7.8121,7.9102,7.948,7.9442,7.8083,7.7516,7.8385,7.846,7.8838,7.9669,8.0348,8.1632,8.3331,8.2916,8.2236,8.2236,8.6681,8.9811,8.9985,8.9931,8.9903,8.9884,8.9721,8.9678,8.9865,8.9875,8.9913,8.9985,8.996,8.9893,8.9893,9.058,9.1402,9.2148,9.3209,9.3877,9.4607,9.5,9.4207,9.265,9.2527,9.4681,9.7895,9.9529,9.9325,9.952,10.0292,10.0367,4.741,4.8614,5.0377,5.1618,5.2408,5.3757,5.4723,5.5232,5.5779,5.6653,5.7483,5.8337,5.8858,5.918,6.0227,6.0918,6.1386,6.4027,6.5312,6.5642,6.697,6.774,6.7952,6.8137,6.8205,6.8107,6.8362,6.841,6.8282,6.8282,6.8177,6.7928,6.7929,6.7929,6.7929,6.7742,6.7702,6.774,6.7818,6.7855,6.7855,6.774,6.7696,6.7917,6.7852,6.7891,6.8224,6.8328,6.7872,6.6739,6.647,6.5697,6.4272,6.4227,6.3858,6.3337,6.3711,6.5276,6.8258,6.888,7.0433,7.3413,7.41,7.4286,7.4286,7.406,7.476,7.6648,7.7932,7.8876,7.9102,7.7667,7.6837,7.7177,7.7214,7.7063,7.6912,7.8234,7.9857,8.1443,8.0386,7.9631,8.0291,8.5054,8.8977,8.9787,8.9613,8.9537,8.9408,8.9552,8.9557,8.9789,8.9939,9.0,9.0,9.0,8.9993,9.0,8.9969,9.0093,9.0282,9.123,9.1978,9.192,9.298,9.2833,9.082,8.9893,9.2486,9.7087,9.8462,9.8181,9.7087,9.6557,9.652,4.7185,4.9401,4.88,4.9568,5.1282,5.0762,5.1592,5.3327,5.3727,0.0,0.0,5.5651,5.6667,5.8068,5.889,6.0249,6.2017,6.322,6.4584,6.5972,6.6268,6.6411,6.6554,6.7816,6.7742,6.6585,6.8023,6.8626,6.841,6.8633,6.8566,6.8377,6.8308,6.8279,6.818,6.7929,6.7892,6.811,6.7929,6.7855,6.7855,6.7704,6.8247,6.953,6.8162,6.7632,6.8192,6.7068,6.6505,6.6627,6.5463,6.46,6.4362,6.4197,6.2922,6.0346,6.2439,6.4347,6.528,6.668,6.7825,6.8529,7.1076,7.2565,7.2588,7.1281,7.1777,7.4836,7.5326,7.6082,7.7441,7.6082,7.5629,7.7026,7.7177,7.6573,7.5402,7.6573,7.7554,7.7516,7.8611,7.948,7.9631,8.32,8.6639,8.9037,8.871,8.7906,8.7798,8.7874,8.8308,8.953,8.9879,9.0,9.0,9.0,9.0,9.0,8.9955,8.9955,8.9993,9.022,9.0402,9.05,9.0592,9.0675,9.0189,8.9947,9.1306,9.4805,9.553,9.5432,9.5016,9.3956,9.3578,4.7832,4.9791,5.0063,5.0601,0.0,5.1536,5.1754,5.1758,5.2451,5.3557,5.4923,5.5268,5.5941,5.6893,5.7679,5.8621,5.9774,6.1438,6.3116,6.4839,6.5656,6.6511,6.729,6.807,6.8033,6.729,6.8231,6.8566,6.8442,6.8529,6.8157,6.729,6.8033,6.8001,6.719,6.7801,6.8174,6.8349,6.8211,6.814,6.814,6.8038,6.826,6.8808,6.7301,0.0,0.0,0.0,0.0,0.0,0.0,0.0,0.0,6.3399,0.0,6.1724,6.316,6.394,6.3469,6.4911,6.6325,6.7311,6.8832,6.9364,6.8443,6.9128,7.0305,7.1928,7.3665,7.4987,7.5742,7.4345,7.3703,7.4496,7.4609,7.4345,7.3703,7.4836,7.5742,7.5629,7.6384,7.7705,7.9291,8.2556,8.5426,8.7064,8.6699,8.6464,8.7132,8.6723,8.685,8.8444,8.9317,8.9962,9.0,9.0,9.0,9.0,9.0,9.0,9.0,9.0,9.0,9.0,9.0,9.0,9.0,9.0,9.0486,9.1875,9.2223,9.2235,9.2233,9.1637,9.1561,4.8907,5.0761,5.2106,5.2146,5.1453,5.3088,5.303,5.1794,5.2837,5.4412,5.6226,5.6181,5.6284,5.6624,5.7014,5.7587,5.8501,6.0267,6.2166,6.4104,6.5471,6.6771,6.7959,6.8293,6.8293,6.7996,6.7959,6.7996,6.7959,6.7662,6.6882,6.5694,6.6882,6.6876,6.5746,0.0,0.0,0.0,6.7847,6.8145,6.8404,6.8316,6.8293,6.8334,6.6595,0.0,6.5416,6.4428,6.3299,6.2098,6.3174,0.0,0.0,0.0,0.0,0.0,0.0,0.0,0.0,0.0,0.0,0.0,6.5014,6.5074,6.4029,6.7017,6.8976,6.9105,7.1831,7.3682,7.3714,7.2738,7.2155,7.2117,7.1815,7.1513,7.1211,7.2646,7.3363,7.2872,7.3288,7.5138,7.8856,8.198,8.3817,8.3998,8.427,8.5029,8.6243,8.5257,8.5181,8.6699,8.7951,8.8937,8.9051,8.9544,9.0,8.9848,8.9658,8.8975,8.8861,8.8861,8.8975,8.8899,8.9051,8.8937,8.8975,8.9051,8.9089,8.9886,8.9979,8.9682,8.915,8.9051,8.9544,5.0883,5.3751,5.3366,5.2653,5.1884,5.3285,5.467,5.5981,5.6617,5.7843,5.942,5.8426,5.8319,5.8794,5.7798,5.9122,6.2148,6.1536,6.2834,6.5694,6.5991,6.6176,6.6436,6.781,6.7699,6.6436,6.6362,6.6362,6.6325,6.4914,6.4067,6.3918,6.4104,6.4097,6.3911,6.4097,6.4275,6.4362,6.5717,6.7068,6.8367,6.8279,6.8845,7.003,6.7153,6.5601,6.5755,6.4511,6.3773,6.3762,6.2726,6.3951,6.7786,6.4304,6.4047,0.0,6.4477,0.0,0.0,0.0,0.0,0.0,0.0,0.0,0.0,6.4418,6.6893,6.6874,6.8921,7.0276,7.0424,7.1477,7.2155,7.2079,7.0833,6.9323,6.8002,6.921,6.9172,6.6302,6.8492,7.2646,7.8327,8.0012,8.0501,8.0818,8.1842,8.2753,8.3056,8.2904,8.3322,8.5029,8.5484,8.575,8.5826,8.7989,8.9772,8.9582,8.7723,8.5674,8.5788,8.5788,8.5674,8.5674,8.5864,8.5674,8.5598,8.556,8.6585,8.9203,8.9689,8.8847,8.6623,8.5902,8.6167,5.1041,5.2561,5.2236,5.1914,5.179,5.313,5.4134,5.4774,5.5302,5.6315,5.7487,5.742,5.7701,5.8311,5.7844,5.8599,6.0299,6.0943,6.2463,6.4691,6.5619,6.6548,6.7402,6.8145,6.807,6.7402,6.7365,6.7365,6.7328,6.6659,6.5842,6.4988,6.4951,6.4089,6.2334,6.2306,6.2269,6.226,6.4795,6.6808,6.8367,6.8345,6.8137,6.7706,6.5349,6.4061,6.3918,6.1826,6.1609,6.3547,6.236,6.3115,6.632,6.2729,6.1542,0.0,0.0,0.0,0.0,0.0,0.0,0.0,0.0,0.0,0.0,0.0,5.9971,5.7553,6.3162,6.6904,6.6993,6.9339,7.0433,6.9528,6.8759,6.8354,6.8455,6.7541,6.7012,6.736,6.7095,6.8681,7.3363,7.5855,7.782,7.9679,7.9717,7.9945,8.078,8.1045,8.1652,8.3246,8.3511,8.3284,8.2259,8.4991,8.7154,8.7078,8.594,8.4953,8.4953,8.4953,8.4953,8.4953,8.4953,8.4422,8.2525,8.2108,8.3246,8.6129,8.7192,8.6623,8.5257,8.4953,8.5105,5.0589,5.1009,4.9427,4.9669,5.1086,5.1932,5.2801,5.376,5.4097,5.473,5.5583,5.6261,5.6468,5.6314,5.5884,5.6804,5.8882,5.9704,6.134,6.3635,6.4936,6.6371,6.7926,6.794,6.8096,6.843,6.7656,6.729,6.7216,6.6511,6.5694,6.4944,6.4906,6.3643,6.1321,6.082,6.0792,6.1089,6.3985,6.6251,6.781,6.7885,6.7348,6.6192,6.4164,6.3071,6.3111,6.105,6.1007,6.3301,6.2154,6.1956,6.3067,5.9345,0.0,0.0,0.0,0.0,0.0,0.0,0.0,0.0,0.0,4.5316,4.6184,0.0,4.9834,0.0,5.8469,6.4568,6.4183,6.678,0.0,0.0,6.6298,6.6522,6.7673,6.601,6.5405,6.7102,6.578,6.5983,6.9275,7.2815,7.5966,7.8313,7.7251,7.6834,7.8471,7.8996,7.9755,8.0931,8.15,8.1349,8.04,8.2146,8.3777,8.3739,8.3739,8.3587,8.3208,8.317,8.298,8.2677,8.2563,8.1614,7.9224,7.8731,7.9755,8.1918,8.3246,8.3549,8.2715,8.2487,8.2791,4.9654,5.0616,4.4694,4.5023,4.9368,4.8628,5.1008,5.5416,5.4958,5.5233,5.5931,5.6252,5.5072,5.2754,5.0299,0.0,6.0857,5.8022,5.9254,6.3782,6.3894,6.4894,6.6639,6.6511,6.7251,6.8668,6.5486,6.3955,6.3807,6.1014,6.0188,6.1572,6.1526,6.1386,6.1126,5.9678,5.9678,6.1163,6.2908,6.4579,6.6213,6.6251,6.6882,6.8113,6.5029,6.3969,6.5373,6.5222,6.4643,6.3739,6.2254,6.0945,5.9759,0.0,0.0,0.0,0.0,0.0,0.0,0.0,0.0,0.0,0.0,0.0,0.0,0.0,0.0,4.4571,5.7122,0.0,6.2538,6.4053,0.0,0.0,0.0,6.2678,6.2785,6.391,6.3703,6.0909,0.0,0.0,6.9525,7.292,7.5126,7.5392,7.395,7.3495,7.5164,7.672,7.7592,7.7858,7.911,8.0021,7.9641,8.0173,8.0628,8.0628,8.0286,7.9793,7.8541,7.8162,7.7441,7.653,7.5891,7.5733,7.5506,7.5246,7.5468,7.6004,7.8319,7.9376,7.6877,7.6232,7.7099,4.607,4.4558,4.1582,4.1902,4.4185,4.3485,4.5025,4.8028,4.7808,4.8626,5.0281,5.0584,5.0331,4.9525,4.8643,0.0,0.0,0.0,5.6524,5.948,6.1172,6.2957,6.465,6.4594,6.4877,6.5434,6.4208,6.3517,6.3389,6.2219,6.0002,5.6921,0.0,5.8729,5.9796,6.0094,6.0067,5.9863,6.3243,6.4914,6.4617,6.6417,6.7171,6.663,6.428,6.3733,6.5242,6.2486,6.1696,6.3404,5.918,5.5768,0.0,0.0,0.0,0.0,0.0,0.0,0.0,0.0,0.0,0.0,0.0,3.3478,3.4737,0.0,0.0,0.0,4.9579,5.5543,5.4898,5.8098,0.0,0.0,0.0,0.0,0.0,0.0,0.0,5.1436,5.7259,6.2344,6.37,6.6817,7.0459,7.4525,7.266,7.1939,7.4671,0.0,7.5961,7.5961,7.7061,7.7668,7.7099,7.8617,7.9907,7.9907,7.8313,7.672,7.6037,7.5961,7.5733,7.5202,7.505,7.4367,7.2318,7.027,7.0004,7.4178,7.6118,7.6161,7.3974,7.351,7.4178,4.0874,0.0,0.0,0.0,0.0,3.8405,3.9404,4.16,4.1298,4.2168,4.3875,4.4737,0.0,0.0,0.0,0.0,0.0,0.0,5.2503,5.527,5.7751,5.9854,6.1578,6.1451,6.1826,6.2654,6.2277,6.1765,6.1186,5.9956,5.7279,5.3166,0.0,0.0,0.0,0.0,5.9603,5.9603,6.319,6.5119,6.4958,6.7027,6.7297,6.5605,6.4213,6.3773,6.4396,6.1097,5.9906,6.1097,5.5557,0.0,0.0,0.0,0.0,0.0,0.0,0.0,0.0,0.0,0.0,0.0,0.0,0.0,0.0,0.0,0.0,0.0,0.0,0.0,4.7231,5.114,5.4172,0.0,0.0,0.0,0.0,0.0,0.0,0.0,0.0,0.0,5.9759,6.2795,6.6589,0.0,0.0,6.9587,7.2432,7.3277,7.3742,7.4231,7.4543,0.0,7.3677,7.5521,7.7706,7.9603,7.6872,7.4302,7.3632,7.3168,7.2708,7.2114,7.2101,7.1076,6.7749,6.5065,6.5677,7.0602,7.2118,7.1706,7.0577,7.0302,7.0815,0.0,0.0,0.0,0.0,3.525,0.0,0.0,0.0,3.7318,3.7179,0.0,3.9637,0.0,0.0,0.0,0.0,4.4143,4.4262,0.0,0.0,5.3424,5.517,5.6829,5.6644,5.8113,6.0875,5.9158,5.7553,5.5896,5.1653,0.0,0.0,0.0,0.0,0.0,0.0,5.772,6.08,6.2385,6.4782,6.8001,6.796,6.7153,6.5739,6.5242,6.4323,6.2929,6.2631,6.0691,5.642,5.183,0.0,0.0,0.0,0.0,0.0,0.0,0.0,0.0,0.0,0.0,0.0,0.0,0.0,0.0,0.0,0.0,0.0,0.0,0.0,0.0,4.3281,0.0,0.0,0.0,0.0,0.0,0.0,0.0,0.0,0.0,5.6417,5.9506,6.2757,6.4654,6.3938,0.0,0.0,0.0,0.0,7.0688,7.232,7.1185,7.019,7.019,7.0306,7.2584,7.8769,0.0,0.0,7.0312,6.8707,6.7252,6.5453,6.5519,6.4178,6.1008,6.0389,6.1344,6.4643,6.5449,6.5217,6.5054,6.5186,6.5599,0.0,0.0,0.0,0.0,0.0,0.0,0.0,0.0,0.0,3.2405,3.3999,3.4735,0.0,0.0,0.0,0.0,0.0,0.0,0.0,0.0,4.7348,4.8821,4.8604,5.0514,5.0913,4.9962,5.0468,4.8667,0.0,0.0,0.0,0.0,0.0,0.0,0.0,0.0,5.7174,5.9321,6.2799,6.5236,6.6485,6.734,6.697,6.5389,6.5205,6.392,6.1454,5.8263,5.5859,0.0,0.0,0.0,0.0,0.0,0.0,0.0,0.0,0.0,0.0,0.0,0.0,0.0,0.0,0.0,0.0,0.0,0.0,0.0,0.0,0.0,0.0,0.0,4.0159,0.0,0.0,0.0,0.0,0.0,0.0,0.0,0.0,0.0,5.9456,6.0896,6.2045,6.3092,6.3267,6.3895,6.5565,0.0,0.0,0.0,0.0,0.0,0.0,0.0,7.3158,7.3391,7.1145,6.871,6.6807,6.6055,6.5488,6.4871,0.0,0.0,6.0358,5.9735,6.0114,6.1279,6.1495,6.186,6.2876,6.0561,5.9756,0.0,0.0,0.0,0.0,0.0,0.0,0.0,0.0,0.0,2.7658,2.9207,0.0,0.0,0.0,0.0,0.0,0.0,0.0,0.0,0.0,0.0,0.0,4.2611,4.4607,0.0,0.0,0.0,0.0,0.0,0.0,0.0,0.0,0.0,0.0,0.0,0.0,5.5683,5.8345,6.1891,6.4286,6.5498,6.5754,6.5382,6.4359,6.3771,6.2489,6.0469,0.0,0.0,0.0,0.0,0.0,0.0,0.0,0.0,0.0,0.0,0.0,0.0,0.0,0.0,0.0,0.0,0.0,0.0,0.0,0.0,0.0,0.0,0.0,0.0,0.0,3.4957,0.0,0.0,0.0,0.0,0.0,0.0,0.0,0.0,0.0,0.0,5.8464,6.0017,6.0364,6.0619,6.1589,6.3781,6.4079,6.4655,0.0,0.0,0.0,0.0,0.0,0.0,0.0,0.0,0.0,0.0,0.0,0.0,0.0,0.0,5.9927,5.6863,5.7229,5.8323,5.9426,0.0,0.0,0.0,0.0,0.0,0.0,0.0,0.0,0.0,0.0,0.0,0.0,0.0,0.0,0.0,2.3405,0.0,0.0,2.3572,0.0,0.0,0.0,0.0,0.0,0.0,0.0,0.0,0.0,0.0,0.0,0.0,0.0,0.0,0.0,0.0,0.0,0.0,0.0,0.0,0.0,0.0,5.3296,5.8093,5.9484,6.1902,6.5315,6.3514,6.2595,6.2709,6.1023,6.0071,5.9925,0.0,0.0,0.0,0.0,0.0,0.0,0.0,0.0,0.0,0.0,0.0,0.0,0.0,0.0,0.0,0.0,0.0,0.0,0.0,0.0,0.0,0.0,0.0,0.0,0.0,0.0,2.6057,3.0975,3.6699,0.0,0.0,0.0,0.0,0.0,0.0,0.0,0.0,0.0,5.5466,5.645,5.8646,6.1817,6.2263,6.2861,6.461,6.4701,6.4697,6.4924,6.7603,6.8622,0.0,0.0,0.0,0.0,0.0,0.0,0.0,0.0,0.0,0.0,0.0,0.0,0.0,0.0,0.0,0.0,0.0,0.0,0.0,0.0,0.0,0.0,0.0,0.0,0.0,0.0,0.0,0.0,0.0,0.0,0.0,0.0,0.0,0.0,0.0,0.0,0.0,0.0,0.0,0.0,0.0,0.0,0.0,0.0,0.0,0.0,0.0,0.0,0.0,0.0,0.0,0.0,0.0,0.0,5.0915,5.4748,5.8278,6.1678,6.5014,6.3361,6.1934,6.0913,6.0328,5.8976,0.0,0.0,0.0,0.0,0.0,0.0,0.0,0.0,0.0,0.0,0.0,0.0,0.0,0.0,0.0,0.0,0.0,0.0,0.0,0.0,0.0,0.0,0.0,0.0,0.0,0.0,0.0,0.0,3.0223,3.2036,3.3518,0.0,0.0,0.0,0.0,0.0,0.0,0.0,0.0,0.0,0.0,5.6524,5.8684,5.8923,5.9867,6.2757,6.0167,5.923,6.3098,6.3187,6.2897,6.3411,0.0,0.0,0.0,0.0,0.0,0.0,0.0,0.0,0.0,0.0,0.0,0.0,0.0,0.0,0.0,0.0,0.0,0.0,0.0,0.0,0.0,0.0,0.0,0.0,0.0,0.0,0.0,0.0,0.0,0.0,0.0,0.0,0.0,0.0,0.0,0.0,0.0,0.0,0.0,0.0,0.0,0.0,0.0,0.0,0.0,0.0,0.0,0.0,0.0,0.0,0.0,0.0,0.0,4.9837,5.332,5.7147,6.0359,6.2878,6.1382,5.9814,5.8246,5.8757,5.7005,0.0,0.0,0.0,0.0,0.0,0.0,0.0,0.0,0.0,0.0,0.0,0.0,0.0,0.0,0.0,0.0,0.0,0.0,0.0,0.0,0.0,0.0,0.0,0.0,0.0,0.0,0.0,0.0,2.7231,2.7988,2.7984,0.0,0.0,0.0,0.0,0.0,0.0,0.0,0.0,0.0,0.0,5.5618,5.7323,5.7973,0.0,0.0,5.8785,5.7967,6.1379,6.0681,6.016,6.1503,5.9422,0.0,0.0,0.0,0.0,0.0,0.0,0.0,0.0,0.0,0.0,0.0,0.0,0.0,0.0,0.0,0.0,0.0,0.0,0.0,0.0,0.0,0.0,0.0,0.0,0.0,0.0,0.0,0.0,0.0,0.0,0.0,0.0,0.0,0.0,0.0,0.0,0.0,0.0,0.0,0.0,0.0,0.0,0.0,0.0,0.0,0.0,0.0,0.0,0.0,0.0,0.0,0.0,4.9588,5.3075,5.6014,5.8353,5.996,5.839,5.6751,5.5292,5.6715,5.4494,0.0,0.0,0.0,0.0,0.0,0.0,0.0,0.0,0.0,0.0,0.0,0.0,0.0,0.0,0.0,0.0,0.0,0.0,0.0,0.0,0.0,0.0,0.0,0.0,0.0,0.0,0.0,0.0,0.0,0.0,0.0,0.0,0.0,0.0,0.0,0.0,0.0,0.0,0.0,0.0,0.0,5.5162,5.7098,5.8618,5.9597,0.0,5.9863,5.986,5.986,5.986,5.9864,5.9684,0.0,0.0,0.0,0.0,0.0,0.0,0.0,0.0,0.0,0.0,0.0,0.0,0.0,0.0,0.0,0.0,0.0,0.0,0.0,0.0,0.0,0.0,0.0,0.0,0.0,0.0,0.0,0.0,0.0,0.0,0.0,0.0,0.0,0.0,0.0,0.0,0.0,0.0,0.0,0.0,0.0,0.0,0.0,0.0,0.0,0.0,0.0,0.0,0.0,0.0,0.0,0.0,0.0,0.0,4.975,5.4779,5.8166,5.9658,5.8202,5.6677,5.5114,5.6569,0.0,0.0,0.0,0.0,0.0,0.0,0.0,0.0,0.0,0.0,0.0,0.0,0.0,0.0,0.0,0.0,0.0,0.0,0.0,0.0,0.0,0.0,0.0,0.0,0.0,0.0,0.0,2.1023,0.0,0.0,0.0,0.0,0.0,0.0,0.0,0.0,0.0,0.0,0.0,0.0,0.0,0.0,5.0859,5.5048,5.5907,5.6967,0.0,0.0,5.9851,5.9851,5.9851,5.9849,0.0,0.0,0.0,0.0,0.0,0.0,0.0,0.0,0.0,0.0,0.0,0.0,0.0,0.0,0.0,0.0,0.0,0.0,0.0,0.0,0.0,0.0,0.0,0.0,0.0,0.0,0.0,0.0,0.0,0.0,0.0,0.0,0.0,0.0,0.0,0.0,0.0,0.0,0.0,0.0,0.0,0.0,0.0,0.0,0.0,0.0,0.0,0.0,0.0,0.0,0.0,0.0,0.0,0.0,4.5877,4.8426,5.371,5.7188,5.8563,5.78,5.6275,5.4024,5.5441,5.2271,0.0,0.0,0.0,0.0,0.0,0.0,0.0,0.0,0.0,0.0,0.0,0.0,0.0,0.0,0.0,0.0,0.0,0.0,0.0,0.0,0.0,0.0,0.0,0.0,0.0,0.0,0.0,0.0,0.0,0.0,0.0,0.0,0.0,0.0,0.0,0.0,0.0,0.0,0.0,0.0,0.0,0.0,5.2413,5.459,0.0,0.0,0.0,5.9807,5.9807,0.0,0.0,0.0,0.0,0.0,0.0,0.0,0.0,0.0,0.0,0.0,0.0,0.0,0.0,0.0,0.0,0.0,0.0,0.0,0.0,0.0,0.0,0.0,0.0,0.0,0.0,0.0,0.0,0.0,0.0,0.0,0.0,0.0,0.0,0.0,0.0,0.0,0.0,0.0,0.0,0.0,0.0,0.0,0.0,0.0,0.0,0.0,0.0,0.0,0.0,0.0,0.0,0.0,0.0,0.0,0.0,0.0,4.828,5.2948,5.6014,5.7256,5.729,5.5802,5.2755,5.4059,5.0466,0.0,0.0,0.0,0.0,0.0,0.0,0.0,0.0,0.0,0.0,0.0,0.0,0.0,0.0,0.0,0.0,0.0,0.0,0.0,0.0,0.0,0.0,0.0,0.0,0.0,0.0,0.0,0.0,0.0,0.0,0.0,0.0,0.0,0.0,0.0,0.0,0.0,0.0,0.0,0.0,0.0,4.9237,4.9616,5.3717,5.6266,0.0,0.0,5.9039,5.894,5.3803,0.0,0.0,0.0,0.0,0.0,0.0,0.0,0.0,0.0,0.0,0.0,0.0,0.0,0.0,0.0,0.0,0.0,0.0,0.0,0.0,0.0,0.0,0.0,0.0,0.0,0.0,0.0,0.0,0.0,0.0,0.0,0.0,0.0,0.0,0.0,0.0,0.0,0.0,0.0,0.0,0.0,0.0,0.0,0.0,0.0,0.0,0.0,0.0,0.0,0.0,0.0,0.0,0.0,0.0,0.0,0.0,4.8315,5.2934,5.5877,5.7134,5.7166,5.5648,5.2538,5.3876,5.036,0.0,0.0,0.0,0.0,0.0,0.0,0.0,0.0,0.0,0.0,0.0,0.0,0.0,0.0,0.0,0.0,0.0,0.0,0.0,0.0,0.0,0.0,0.0,0.0,0.0,0.0,0.0,0.0,0.0,0.0,0.0,0.0,0.0,0.0,0.0,0.0,0.0,0.0,0.0,0.0,0.0,4.4911,4.7582,5.1023,0.0,0.0,0.0,0.0,5.4497,5.1853,0.0,0.0,0.0,0.0,0.0,0.0,0.0,0.0,0.0,0.0,0.0,0.0,0.0,0.0,0.0,0.0,0.0,0.0,0.0,0.0,0.0,0.0,0.0,0.0,0.0,0.0,0.0,0.0,0.0,0.0,0.0,0.0,0.0,0.0,0.0,0.0,0.0,0.0,0.0,0.0,0.0,0.0,0.0,0.0,0.0,0.0,0.0,0.0,0.0,0.0,0.0,0.0,0.0,0.0,0.0,0.0,4.8273,5.2449,5.514,5.6385,5.726,5.6128,5.2918,5.3538,4.9932,0.0,0.0,0.0,0.0,0.0,0.0,0.0,0.0,0.0,0.0,0.0,0.0,0.0,0.0,0.0,0.0,0.0,0.0,0.0,0.0,0.0,0.0,0.0,0.0,0.0,0.0,0.0,0.0,0.0,0.0,0.0,0.0,0.0,0.0,0.0,0.0,0.0,0.0,0.0,0.0,3.8814,4.1162,4.4526,0.0,0.0,0.0,0.0,0.0,0.0,4.9808,4.874,0.0,0.0,0.0,0.0,0.0,0.0,0.0,0.0,0.0,0.0,0.0,0.0,0.0,0.0,0.0,0.0,0.0,0.0,0.0,0.0,0.0,0.0,0.0,0.0,0.0,0.0,0.0,0.0,0.0,0.0,0.0,0.0,0.0,0.0,0.0,0.0,0.0,0.0,0.0,0.0,0.0,0.0,0.0,0.0,0.0,0.0,0.0,0.0,0.0,0.0,0.0,0.0,0.0,0.0,0.0,4.7598,5.1173,5.3871,5.5558,5.6607,5.5833,5.3341,5.2752,4.9162,4.23,0.0,0.0,0.0,0.0,0.0,0.0,0.0,0.0,0.0,0.0,0.0,0.0,0.0,0.0,0.0,0.0,0.0,0.0,0.0,0.0,0.0,0.0,0.0,0.0,0.0,0.0,0.0,0.0,0.0,0.0,0.0,0.0,0.0,0.0,0.0,0.0,0.0,0.0,0.0,3.6606,3.7962,0.0,0.0,0.0,0.0,0.0,0.0,0.0,0.0,4.5843,0.0,0.0,0.0,0.0,0.0,0.0,0.0,0.0,0.0,0.0,0.0,0.0,0.0,0.0,0.0,0.0,0.0,0.0,0.0,0.0,0.0,0.0,0.0,0.0,0.0,0.0,0.0,0.0,0.0,0.0,0.0,0.0,0.0,0.0,0.0,0.0,0.0,0.0,0.0,0.0,0.0,0.0,0.0,0.0,0.0,0.0,0.0,0.0,0.0,0.0,0.0,0.0,0.0,0.0,0.0,0.0,4.7868,5.1533,5.5263,5.3172,5.2326,5.3194,5.0597,4.7474,4.3992,0.0,0.0,0.0,0.0,0.0,0.0,0.0,0.0,0.0,0.0,0.0,0.0,0.0,0.0,0.0,0.0,0.0,0.0,0.0,0.0,0.0,0.0,0.0,0.0,0.0,0.0,0.0,0.0,0.0,0.0,0.0,0.0,0.0,0.0,0.0,0.0,0.0,0.0,3.0597,3.355,0.0,0.0,0.0,0.0,0.0,0.0,0.0,0.0,4.2286,0.0,0.0,0.0,0.0,0.0,0.0,0.0,0.0,0.0,0.0,0.0,0.0,0.0,0.0,0.0,0.0,0.0,0.0,0.0,0.0,0.0,0.0,0.0,0.0,0.0,0.0,0.0,0.0,0.0,0.0,0.0,0.0,0.0,0.0,0.0,0.0,0.0,0.0,0.0,0.0,0.0,0.0,0.0,0.0,0.0,0.0,0.0,0.0,0.0,0.0,0.0,0.0,0.0,0.0,0.0,0.0,0.0,0.0,5.0433,5.3402,5.2894,5.2547,5.2312,4.8403,4.477,0.0,0.0,0.0,0.0,0.0,0.0,0.0,0.0,0.0,0.0,0.0,0.0,0.0,0.0,0.0,0.0,0.0,0.0,0.0,0.0,0.0,0.0,0.0,0.0,0.0,0.0,0.0,0.0,0.0,0.0,0.0,0.0,0.0,0.0,0.0,0.0,0.0,0.0,0.0,0.0,0.0,0.0,0.0,0.0,0.0,0.0,0.0,0.0,0.0,0.0,0.0,0.0,0.0,0.0,0.0,0.0,0.0,0.0,0.0,0.0,0.0,0.0,0.0,0.0,0.0,0.0,0.0,0.0,0.0,0.0,0.0,0.0,0.0,0.0,0.0,0.0,0.0,0.0,0.0,0.0,0.0,0.0,0.0,0.0,0.0,0.0,0.0,0.0,0.0,0.0,0.0,0.0,0.0,0.0,0.0,0.0,0.0,0.0,0.0,0.0,0.0,0.0,0.0,0.0,0.0,0.0,0.0,0.0,4.9316,5.1634,5.2307,5.2157,5.1148,4.7035,4.3041,0.0,0.0,0.0,0.0,0.0,0.0,0.0,0.0,0.0,0.0,0.0,0.0,0.0,0.0,0.0,0.0,0.0,0.0,0.0,0.0,0.0,0.0,0.0,0.0,0.0,0.0,0.0,0.0,0.0,0.0,0.0,0.0,0.0,0.0,0.0,0.0,0.0,0.0,0.0,0.0,0.0,0.0,0.0,0.0,0.0,0.0,0.0,0.0,3.4918,0.0,0.0,0.0,0.0,0.0,0.0,0.0,0.0,0.0,0.0,0.0,0.0,0.0,0.0,0.0,0.0,0.0,0.0,0.0,0.0,0.0,0.0,0.0,0.0,0.0,0.0,0.0,0.0,0.0,0.0,0.0,0.0,0.0,0.0,0.0,0.0,0.0,0.0,0.0,0.0,0.0,0.0,0.0,0.0,0.0,0.0,0.0,0.0,0.0,0.0,0.0,0.0,0.0,0.0,0.0,0.0,0.0,0.0,0.0,4.7033,5.1559,4.9073,4.8194,4.9297,4.7484,4.4142,0.0,0.0,0.0,0.0,0.0,0.0,0.0,0.0,0.0,0.0,0.0,0.0,0.0,0.0,0.0,0.0,0.0,0.0,0.0,0.0,0.0,0.0,0.0,0.0,0.0,0.0,0.0,0.0,0.0,0.0,0.0,0.0,0.0,0.0,0.0,0.0,0.0,0.0,0.0,0.0,0.0,0.0,0.0,0.0,0.0,0.0,0.0,0.0,0.0,0.0,0.0,0.0,0.0,0.0,0.0,0.0,0.0,0.0,0.0,0.0,0.0,0.0,0.0,0.0,0.0,0.0,0.0,0.0,0.0,0.0,0.0,0.0,0.0,0.0,0.0,0.0,0.0,0.0,0.0,0.0,0.0,0.0,0.0,0.0,0.0,0.0,0.0,0.0,0.0,0.0,0.0,0.0,0.0,0.0,0.0,0.0,0.0,0.0,0.0,0.0,0.0,0.0,0.0,0.0,0.0,0.0,0.0,0.0,4.4809,4.8792,4.8456,4.711,4.4961,4.33,4.0503,0.0,0.0,0.0,0.0,0.0,0.0,0.0,0.0,0.0,0.0,0.0,0.0,0.0,0.0,0.0,0.0,0.0,0.0,0.0,0.0,0.0,0.0,0.0,0.0,0.0,0.0,0.0,0.0,0.0,0.0,0.0,0.0,0.0,0.0,0.0,0.0,0.0,0.0,0.0,0.0,0.0,0.0,0.0,0.0,0.0,0.0,0.0,0.0,0.0,0.0,0.0,0.0,0.0,0.0,0.0,0.0,0.0,0.0,0.0,0.0,0.0,0.0,0.0,0.0,0.0,0.0,0.0,0.0,0.0,0.0,0.0,0.0,0.0,0.0,0.0,0.0,0.0,0.0,0.0,0.0,0.0,0.0,0.0,0.0,0.0,0.0,0.0,0.0,0.0,0.0,0.0,0.0,0.0,0.0,0.0,0.0,0.0,0.0,0.0,0.0,0.0,0.0,0.0,0.0,0.0,0.0,0.0,0.0,0.0,4.6043,4.7334,4.5951,4.195,4.0146,3.7762,0.0,0.0,0.0,0.0,0.0,0.0,0.0,0.0,0.0,0.0,0.0,0.0,0.0,0.0,0.0,0.0,0.0,0.0,0.0,0.0,0.0,0.0,0.0,0.0,0.0,0.0,0.0,0.0,0.0,0.0,0.0,0.0,0.0,0.0,0.0,0.0,0.0,0.0,0.0,0.0,0.0,0.0,0.0,0.0,0.0,0.0,0.0,0.0,0.0,0.0,0.0,0.0,0.0,0.0,0.0,0.0,0.0,0.0,0.0,0.0,0.0,0.0,0.0,0.0,0.0,0.0,0.0,0.0,0.0,0.0,0.0,0.0,0.0,0.0,0.0,0.0,0.0,0.0,0.0,0.0,0.0,0.0,0.0,0.0,0.0,0.0,0.0,0.0,0.0,0.0,0.0,0.0,0.0,0.0,0.0,0.0,0.0,0.0,0.0,0.0,0.0,0.0,0.0,0.0,0.0,0.0,0.0,0.0,0.0,4.4435,4.453,4.3633,4.1726,4.0039,3.7731,0.0,0.0,0.0,0.0,0.0,0.0,0.0,0.0,0.0,0.0,0.0,0.0,0.0,0.0,0.0,0.0,0.0,0.0,0.0,0.0,0.0,0.0,0.0,0.0,0.0,0.0,0.0,0.0,0.0,0.0,0.0,0.0,0.0,0.0,0.0,0.0,0.0,0.0,0.0,0.0,0.0,0.0,0.0,0.0,0.0,0.0,0.0,0.0,0.0,0.0,0.0,0.0,0.0,0.0,0.0,0.0,0.0,0.0,0.0,0.0,0.0,0.0,0.0,0.0,0.0,0.0,0.0,0.0,0.0,0.0,0.0,0.0,0.0,0.0,0.0,0.0,0.0,0.0,0.0,0.0,0.0,0.0,0.0,0.0,0.0,0.0,0.0,0.0,0.0,0.0,0.0,0.0,0.0,0.0,0.0,0.0,0.0,0.0,0.0,0.0,0.0,0.0,0.0,0.0,0.0,0.0,0.0,0.0,0.0,3.8107,3.8099,3.78,3.7165,3.5524,3.4063,3.2796,0.0,0.0,0.0,0.0,0.0,0.0,0.0,0.0,0.0,0.0,0.0,0.0,0.0,0.0,0.0,0.0,0.0,0.0,0.0,0.0,0.0,0.0,0.0,0.0,0.0,0.0,0.0,0.0,0.0,0.0,0.0,0.0,0.0,0.0,0.0,0.0,0.0,0.0,0.0,0.0,0.0,0.0,0.0,0.0,0.0,0.0,0.0,0.0,0.0,0.0,0.0,0.0,0.0,0.0,0.0,0.0,0.0,0.0,0.0,0.0,0.0,0.0,0.0,0.0,0.0,0.0,0.0,0.0,0.0,0.0,0.0,0.0,0.0,0.0,0.0,0.0,0.0,0.0,0.0,0.0,0.0,0.0,0.0,0.0,0.0,0.0,0.0,0.0,0.0,0.0,0.0,0.0,0.0,0.0,0.0,0.0,0.0,0.0,0.0,0.0,0.0,0.0,0.0,0.0,0.0,0.0,0.0,0.0,3.3648,3.416,3.4398,3.436,3.2762,3.1641,0.0,0.0,0.0,0.0,0.0,0.0,0.0,0.0,0.0,0.0,0.0,0.0,0.0,0.0,0.0,0.0,0.0,0.0,0.0,0.0,0.0,0.0,0.0,0.0,0.0,0.0,0.0,0.0,0.0,0.0,0.0,0.0,0.0,0.0,0.0,0.0,0.0,0.0,0.0,0.0,0.0,0.0,0.0,0.0,0.0,0.0,0.0,0.0,0.0,0.0,0.0,0.0,0.0,0.0,0.0,0.0,0.0,0.0,0.0,0.0,0.0,0.0,0.0,0.0,0.0,0.0,0.0,0.0,0.0,0.0,0.0,0.0,0.0,0.0,0.0,0.0,0.0,0.0,0.0,0.0,0.0,0.0,0.0,0.0,0.0,0.0,0.0,0.0,0.0,0.0,0.0,0.0,0.0,0.0,0.0,0.0,0.0,0.0,0.0,0.0,0.0,0.0,0.0,0.0,0.0,0.0,0.0,0.0,2.7161,3.1893,3.3551,3.4186,3.4336,3.2688,3.1082,0.0,0.0,0.0,0.0,0.0,0.0,0.0,0.0,0.0,0.0,0.0,0.0,0.0,0.0,0.0,0.0,0.0,0.0,0.0,0.0,0.0,0.0,0.0,0.0,0.0,0.0,0.0,0.0,0.0,0.0,0.0,0.0,0.0,0.0,0.0,0.0,0.0,0.0,0.0,0.0,0.0,0.0,0.0,0.0,0.0,0.0,0.0,0.0,0.0,0.0,0.0,0.0,0.0,0.0,0.0,0.0,0.0,0.0,0.0,0.0,0.0,0.0,0.0,0.0,0.0,0.0,0.0,0.0,0.0,0.0,0.0,0.0,0.0,0.0,0.0,0.0,0.0,0.0,0.0,0.0,0.0,0.0,0.0,0.0,0.0,0.0,0.0,0.0,0.0,0.0,0.0,0.0,0.0,0.0,0.0,0.0,0.0,0.0,0.0,0.0,0.0,0.0,0.0,0.0,0.0,0.0,0.0,0.0,0.0,3.0358,0.0,3.1278,0.0,3.0535,2.9454,0.0,0.0,0.0,0.0,0.0,0.0,0.0,0.0,0.0,0.0,0.0,0.0,0.0,0.0,0.0,0.0,0.0,0.0,0.0,0.0,0.0,0.0,0.0,0.0,0.0,0.0,0.0,0.0,0.0,0.0,0.0,0.0,0.0,0.0,0.0,0.0,0.0,0.0,0.0,0.0,0.0,0.0,0.0,0.0,0.0,0.0,0.0,0.0,0.0,0.0,0.0,0.0,0.0,0.0,0.0,0.0,0.0,0.0,0.0,0.0,0.0,0.0,0.0,0.0,0.0,0.0,0.0,0.0,0.0,0.0,0.0,0.0,0.0,0.0,0.0,0.0,0.0,0.0,0.0,0.0,0.0,0.0,0.0,0.0,0.0,0.0,0.0,0.0,0.0,0.0,0.0,0.0,0.0,0.0,0.0,0.0,0.0,0.0,0.0,0.0,0.0,0.0,0.0,0.0,0.0,0.0,0.0,0.0,0.0,2.9565,2.9724,2.9724,2.9715,2.9569,2.8437,0.0,0.0,0.0,0.0,0.0,0.0,0.0,0.0,0.0,0.0,0.0,0.0,0.0,0.0,0.0,0.0,0.0,0.0,0.0,0.0,0.0,0.0,0.0,0.0,0.0,0.0,0.0,0.0,0.0,0.0,0.0,0.0,0.0,0.0,0.0,0.0,0.0,0.0,0.0,0.0,0.0,0.0,0.0,0.0,0.0,0.0,0.0,0.0,0.0,0.0,0.0,0.0,0.0,0.0,0.0,0.0,0.0,0.0,0.0,0.0,0.0,0.0,0.0,0.0,0.0,0.0,0.0,0.0,0.0,0.0,0.0,0.0,0.0,0.0,0.0,0.0,0.0,0.0,0.0,0.0,0.0,0.0,0.0,0.0,0.0,0.0,0.0,0.0,0.0,0.0,0.0,0.0,0.0,0.0,0.0,0.0,0.0,0.0,0.0,0.0,0.0,0.0,0.0,0.0,0.0,0.0,0.0,0.0,0.0,0.0,2.9656,2.9708,2.9708,2.9656,2.8093,0.0,0.0,0.0,0.0,0.0,0.0,0.0,0.0,0.0,0.0,0.0,0.0,0.0,0.0,0.0,0.0,0.0,0.0,0.0,0.0,0.0,0.0,0.0,0.0,0.0,0.0,0.0,0.0,0.0,0.0,0.0,0.0,0.0,0.0,0.0,0.0,0.0,0.0,0.0,0.0,0.0,0.0,0.0,0.0,0.0,0.0,0.0,0.0,0.0,0.0,0.0,0.0,0.0,0.0,0.0,0.0,0.0,0.0,0.0,0.0,0.0,0.0,0.0,0.0,0.0,0.0,0.0,0.0,0.0,0.0,0.0,0.0,0.0,0.0,0.0,0.0,0.0,0.0,0.0,0.0,0.0,0.0,0.0,0.0,0.0,0.0,0.0,0.0,0.0,0.0,0.0,0.0,0.0,0.0,0.0,0.0,0.0,0.0,0.0,0.0,0.0,0.0,0.0,0.0,0.0,0.0,0.0,0.0,0.0,0.0,2.9644,0.0,2.956,2.8431,2.6828,2.4745,0.0,0.0,0.0,0.0,0.0,0.0,0.0,0.0,0.0,0.0,0.0,0.0,0.0,0.0,0.0,0.0,0.0,0.0,0.0,0.0,0.0,0.0,0.0,0.0,0.0,0.0,0.0,0.0,0.0,0.0,0.0,0.0,0.0,0.0,0.0,0.0,0.0,0.0,0.0,0.0,0.0,0.0,0.0,0.0,0.0,0.0,0.0,0.0,0.0,0.0,0.0,0.0,0.0,0.0,0.0,0.0,0.0,0.0,0.0,0.0,0.0,0.0,0.0,0.0,0.0,0.0,0.0,0.0,0.0,0.0,0.0,0.0,0.0,0.0,0.0,0.0,0.0,0.0,0.0,0.0,0.0,0.0,0.0,0.0,0.0,0.0,0.0,0.0,0.0,0.0,0.0,0.0,0.0,0.0,0.0,0.0,0.0,0.0,0.0,0.0,0.0,0.0,0.0,0.0,0.0,0.0,0.0,0.0,0.0,0.0,2.9626,2.9626,2.864,2.7045,0.0,0.0,0.0,0.0,0.0,0.0,0.0,0.0,0.0,0.0,0.0,0.0,0.0,0.0,0.0,0.0,0.0,0.0,0.0,0.0,0.0,0.0,0.0,0.0,0.0,0.0,0.0,0.0,0.0,0.0,0.0,0.0,0.0,0.0,0.0,0.0,0.0,0.0,0.0,0.0,0.0,0.0,0.0,0.0,0.0,0.0,0.0,0.0,0.0,0.0,0.0,0.0,0.0,0.0,0.0,0.0,0.0,0.0,0.0,0.0,0.0,0.0,0.0,0.0,0.0,0.0,0.0,0.0,0.0,0.0,0.0,0.0,0.0,0.0,0.0,0.0,0.0,0.0,0.0,0.0,0.0,0.0,0.0,0.0,0.0,0.0,0.0,0.0,0.0,0.0,0.0,0.0,0.0,0.0,0.0,0.0,0.0,0.0,0.0,0.0,0.0,0.0,0.0,0.0,0.0,0.0,0.0,0.0,0.0,0.0,0.0,2.9694,2.9707,2.9717,0.0,2.4849,0.0,0.0,0.0,0.0,0.0,0.0,0.0,0.0,0.0,0.0,0.0,0.0,0.0,0.0,0.0,0.0,0.0,0.0,0.0,0.0,0.0,0.0,0.0,0.0,0.0,0.0,0.0,0.0,0.0,0.0,0.0,0.0,0.0,0.0,0.0,0.0,0.0,0.0,0.0,0.0,0.0,0.0,0.0,0.0,0.0,0.0,0.0,0.0,0.0,0.0,0.0,0.0,0.0,0.0,0.0,0.0,0.0,0.0,0.0,0.0,0.0,0.0,0.0,0.0,0.0,0.0,0.0,0.0,0.0,0.0,0.0,0.0,0.0,0.0,0.0,0.0,0.0,0.0,0.0,0.0,0.0,0.0,0.0,0.0,0.0,0.0,0.0,0.0,0.0,0.0,0.0,0.0,0.0,0.0,0.0,0.0,0.0,0.0,0.0,0.0,0.0,0.0,0.0,0.0,0.0,0.0,0.0,0.0,0.0,0.0,0.0,0.0,2.9626,2.7993,2.4638,0.0,0.0,0.0,0.0,0.0,0.0,0.0,0.0,0.0,0.0,0.0,0.0,0.0,0.0,0.0,0.0,0.0,0.0,0.0,0.0,0.0,0.0,0.0,0.0,0.0,0.0,0.0,0.0,0.0,0.0,0.0,0.0,0.0,0.0,0.0,0.0,0.0,0.0,0.0,0.0,0.0,0.0,0.0,0.0,0.0,0.0,0.0,0.0,0.0,0.0,0.0,0.0,0.0,0.0,0.0,0.0,0.0,0.0,0.0,0.0,0.0,0.0,0.0,0.0,0.0,0.0,0.0,0.0,0.0,0.0,0.0,0.0,0.0,0.0,0.0,0.0,0.0,0.0,0.0,0.0,0.0,0.0,0.0,0.0,0.0,0.0,0.0,0.0,0.0,0.0,0.0,0.0,0.0,0.0,0.0,0.0,0.0,0.0,0.0,0.0,0.0,0.0,0.0,0.0,0.0,0.0,0.0,0.0,0.0,0.0,2.9405,2.9441,2.8774,2.7155,2.4586,0.0,0.0,0.0,0.0,0.0,0.0,0.0,0.0,0.0,0.0,0.0,0.0,0.0,0.0,0.0,0.0,0.0,0.0,0.0,0.0,0.0,0.0,0.0,0.0,0.0,0.0,0.0,0.0,0.0,0.0,0.0,0.0,0.0,0.0,0.0,0.0,0.0,0.0,0.0,0.0,0.0,0.0,0.0,0.0,0.0,0.0,0.0,0.0,0.0,0.0,0.0,0.0,0.0,0.0,0.0,0.0,0.0,0.0,0.0,0.0,0.0,0.0,0.0,0.0,0.0,0.0,0.0,0.0,0.0,0.0,0.0,0.0,0.0,0.0,0.0,0.0,0.0,0.0,0.0,0.0,0.0,0.0,0.0,0.0,0.0,0.0,0.0,0.0,0.0,0.0,0.0,0.0,0.0,0.0,0.0,0.0,0.0,0.0,0.0,0.0,0.0,0.0,0.0,0.0,0.0,0.0,0.0,0.0,0.0,0.0,0.0,0.0,0.0,0.0,2.4895,0.0,0.0,0.0,0.0,0.0,0.0,0.0,0.0,0.0,0.0,0.0,0.0,0.0,0.0,0.0,0.0,0.0,0.0,0.0,0.0,0.0,0.0,0.0,0.0,0.0,0.0,0.0,0.0,0.0,0.0,0.0,0.0,0.0,0.0,0.0,0.0,0.0,0.0,0.0,0.0,0.0,0.0,0.0,0.0,0.0,0.0,0.0,0.0,0.0,0.0,0.0,0.0,0.0,0.0,0.0,0.0,0.0,0.0,0.0,0.0,0.0,0.0,0.0,0.0,0.0,0.0,0.0,0.0,0.0,0.0,0.0,0.0,0.0,0.0,0.0,0.0,0.0,0.0,0.0,0.0,0.0,0.0,0.0,0.0,0.0,0.0,0.0,0.0,0.0,0.0,0.0,0.0,0.0,0.0,0.0,0.0,0.0,0.0,0.0,0.0,0.0,0.0,0.0,0.0,0.0,0.0,0.0,0.0,0.0,0.0,0.0,0.0,0.0,0.0,0.0,0.0,0.0,0.0,0.0,0.0,0.0,0.0,0.0,0.0,0.0,0.0,0.0,0.0,0.0,0.0,0.0,0.0,0.0,0.0,0.0,0.0,0.0,0.0,0.0,0.0,0.0,0.0,0.0,0.0,0.0,0.0,0.0,0.0,0.0,0.0,0.0,0.0,0.0,0.0,0.0,0.0,0.0,0.0,0.0,0.0,0.0,0.0,0.0,0.0,0.0,0.0,0.0,0.0,0.0,0.0,0.0,0.0,0.0,0.0,0.0,0.0,0.0,0.0,0.0,0.0,0.0,0.0,0.0,0.0,0.0,0.0,0.0,0.0,0.0,0.0,0.0,0.0,0.0,0.0,0.0,0.0,0.0,0.0,0.0,0.0,0.0,0.0,0.0,0.0,0.0,0.0,0.0,0.0,0.0,0.0,0.0,0.0,0.0,0.0,0.0,0.0,0.0,0.0,0.0,0.0,0.0,0.0,0.0,0.0,0.0,0.0,0.0,0.0,0.0,0.0,0.0,0.0,0.0,0.0,0.0,0.0,0.0,0.0,0.0,0.0,0.0,0.0,0.0,0.0,0.0,0.0,0.0,0.0,0.0,0.0,0.0,0.0,0.0,0.0,0.0,0.0,0.0,0.0,0.0,0.0,0.0,0.0,0.0,0.0,0.0,0.0,0.0,0.0,0.0,0.0,0.0,0.0,0.0,0.0,0.0,0.0,0.0,0.0,0.0,0.0,0.0,0.0,0.0,0.0,0.0,0.0,0.0,0.0,0.0,0.0,0.0,0.0,0.0,0.0,0.0,0.0,0.0,0.0,0.0,0.0,0.0,0.0,0.0,0.0,0.0,0.0,0.0,0.0,0.0,0.0,0.0,0.0,0.0,0.0,0.0,0.0,0.0,0.0,0.0,0.0,0.0,0.0,0.0,0.0,0.0,0.0,0.0,0.0,0.0,0.0,0.0,0.0,0.0,0.0,0.0,0.0,0.0,0.0,0.0,0.0,0.0,0.0,0.0,0.0,0.0,0.0,0.0,0.0,0.0,0.0,0.0,0.0,0.0,0.0,0.0,0.0,0.0,0.0,0.0,0.0,0.0,0.0,0.0,0.0,0.0,0.0,0.0,0.0,0.0,0.0,0.0,0.0,0.0,0.0,0.0,0.0,0.0,0.0,0.0,0.0,0.0,0.0,0.0,0.0,0.0,0.0,0.0,0.0,0.0,0.0,0.0,0.0,0.0,0.0,0.0,0.0,0.0,0.0,0.0,0.0,0.0,0.0,0.0,0.0,0.0,0.0,0.0,0.0,0.0,0.0,0.0,0.0,0.0,0.0,0.0,0.0,0.0,0.0,0.0,0.0,0.0,0.0,0.0,0.0,0.0,0.0,0.0,0.0,0.0,0.0,0.0,0.0,0.0,0.0,0.0,0.0,0.0,0.0,0.0,0.0,0.0,0.0,0.0,0.0,0.0,0.0,0.0,0.0,0.0,0.0,0.0,0.0,0.0,0.0,0.0,0.0,0.0,0.0,0.0,0.0,0.0,0.0,0.0,0.0,0.0,0.0,0.0,0.0,0.0,0.0,0.0,0.0,0.0,0.0,0.0,0.0,0.0,0.0,0.0,0.0,0.0,0.0,0.0,0.0,0.0,0.0,0.0,0.0,0.0,0.0,0.0,0.0,0.0,0.0,0.0,0.0,0.0,0.0,0.0,0.0,0.0,0.0,0.0,0.0,0.0,0.0,0.0,0.0,0.0,0.0,0.0,0.0,0.0,0.0,0.0,0.0,0.0,0.0,0.0,0.0,0.0,0.0,0.0,0.0,0.0,0.0,0.0,0.0,0.0,0.0,0.0,0.0,0.0,0.0,0.0,0.0,0.0,0.0,0.0,0.0,0.0,0.0,0.0,0.0,0.0,0.0,0.0,0.0,0.0,0.0,0.0,0.0,0.0,0.0,0.0,0.0,0.0,0.0,0.0,0.0,0.0,0.0,0.0,0.0,0.0,0.0,0.0,0.0,0.0,0.0,0.0,0.0,0.0,0.0,0.0,0.0,0.0,0.0,0.0,0.0,0.0,0.0,0.0,0.0,0.0,0.0,0.0,0.0,0.0,0.0,0.0,0.0,0.0,0.0,0.0,0.0,0.0,0.0,0.0,0.0,0.0,0.0,0.0,0.0,0.0,0.0,0.0,0.0,0.0,0.0,0.0,0.0,0.0,0.0,0.0,0.0,0.0,0.0,0.0,0.0,0.0,0.0,0.0,0.0,0.0,0.0,0.0,0.0,0.0,0.0,0.0,0.0,0.0,0.0,0.0,0.0,0.0,0.0,0.0,0.0,0.0,0.0,0.0,0.0,0.0,0.0,0.0,0.0,0.0,0.0,0.0,0.0,0.0,0.0,0.0,0.0,0.0,0.0,0.0,0.0,0.0,0.0,0.0,0.0,0.0,0.0,0.0,0.0,0.0,0.0,0.0,0.0,0.0,0.0,0.0,0.0,0.0,0.0,0.0,0.0,0.0,0.0,0.0,0.0,0.0,0.0,0.0,0.0,0.0,0.0,0.0,0.0,0.0,0.0,0.0,0.0,0.0,0.0,0.0,0.0,0.0,0.0,0.0,0.0,0.0,0.0,0.0,0.0,0.0,0.0,0.0,0.0,0.0,0.0,0.0,0.0,0.0,0.0,0.0,0.0,0.0,0.0,0.0,0.0,0.0,0.0,0.0,0.0,0.0,0.0,0.0,0.0,0.0,0.0,0.0,0.0,0.0,0.0,0.0,0.0,0.0,0.0,0.0,0.0,0.0,0.0,0.0,0.0,0.0,0.0,0.0,0.0,0.0,0.0,0.0,0.0,0.0,0.0,0.0,0.0,0.0,0.0,0.0,0.0,0.0,0.0,0.0,0.0,0.0,0.0,0.0,0.0,0.0,0.0,0.0,0.0,0.0,0.0,0.0,0.0,0.0,0.0,0.0,0.0,0.0,0.0,0.0,0.0,0.0,0.0,0.0,0.0,0.0,0.0,0.0,0.0,0.0,0.0,0.0,0.0,0.0,0.0,0.0,0.0,0.0,0.0,0.0,0.0,0.0,0.0,0.0,0.0,0.0,0.0,0.0,0.0,0.0,0.0,0.0,0.0,0.0,0.0,0.0,0.0,0.0,0.0,0.0,0.0,0.0,0.0,0.0,0.0,0.0,0.0,0.0,0.0,0.0,0.0,0.0,0.0,0.0,0.0,0.0,0.0,0.0,0.0,0.0,0.0,0.0,0.0,0.0,0.0,0.0,0.0,0.0,0.0,0.0,0.0,0.0,0.0,0.0,0.0,0.0,0.0,0.0,0.0,0.0,0.0,0.0,0.0,0.0,0.0,0.0,0.0,0.0,0.0,0.0,0.0,0.0,0.0,0.0,0.0,0.0,0.0,0.0,0.0,0.0,0.0,0.0,0.0,0.0,0.0,0.0,0.0,0.0,0.0,0.0,0.0,0.0,0.0,0.0,0.0,0.0,0.0,0.0,0.0,0.0,0.0,0.0,0.0,0.0,0.0,0.0,0.0,0.0,0.0,0.0,0.0,0.0,0.0,0.0,0.0,0.0,0.0,0.0,0.0,0.0,0.0,0.0,0.0,0.0,0.0,0.0,0.0,0.0,0.0,0.0,0.0,0.0,0.0,0.0,0.0,0.0,0.0,0.0,0.0,0.0,0.0,0.0,0.0,0.0,0.0,0.0,0.0,0.0,0.0,0.0,0.0,0.0,0.0,0.0,0.0,0.0,0.0,0.0,0.0,0.0,0.0,0.0,0.0,0.0,0.0,0.0,0.0,0.0,0.0,0.0,0.0,0.0,0.0,0.0,0.0,0.0,0.0,0.0,0.0,0.0,0.0]}],[{"header":{"parameterUnit":"kt","parameterCategory":2,"dx":1,"dy":1,"la1":29.587661999999998,"la2":31.0,"lo1":-88.76705300000003,"lo2":-86.6583820000003,"nx":115,"ny":88,"refTime":"2022-10-10T06:00:00:Z","depth":0,"parameterNumber":2,"parameterNumberName":"V-component_of_WINDS"},"data":[7.7529,7.6617,7.6097,7.5855,7.5781,7.528,7.5095,7.4955,7.4516,7.4249,7.384,7.2613,7.1017,6.9711,6.7139,6.5942,6.6033,6.5626,6.5737,6.6218,6.7194,6.8267,6.9,6.9473,7.037,7.0272,6.9678,6.9678,6.9368,6.8467,6.7866,6.7483,6.7396,6.595,6.3613,6.191,6.015,5.8008,5.673,5.6272,5.542,5.511,5.4931,5.4954,5.4954,5.4954,5.4954,5.4395,5.4418,5.4128,5.3544,5.2888,5.2866,5.3205,5.2025,5.035,4.8861,4.6708,4.5383,4.4725,4.4403,4.2743,4.2571,4.2416,4.2416,4.2242,4.2242,4.2242,4.2242,4.2242,4.2242,4.2242,4.226,4.226,4.2087,4.2087,4.2087,4.2314,4.2367,4.2229,4.1635,4.0871,4.1777,3.9896,3.7368,3.635,3.4433,3.4277,3.315,3.212,3.1086,3.0879,3.0879,3.0879,3.0879,3.0879,3.0879,3.0879,3.0879,3.0683,3.0683,3.0902,3.0695,3.0695,3.0695,3.089,3.0879,3.0879,3.0879,3.0879,3.0879,3.0879,3.0879,3.0914,3.0741,7.8469,7.7497,7.6345,7.5749,7.5749,7.528,7.4955,7.4734,7.3476,7.2864,7.2392,7.0063,6.8347,6.6708,6.4628,6.3337,6.2495,6.2607,6.2795,6.3358,6.4279,6.5348,6.6079,6.6531,6.7307,6.7524,6.7461,6.7811,6.8248,6.7183,6.6033,6.5295,6.4423,6.3337,6.1028,5.9377,5.8183,5.6496,5.5836,5.5396,5.4931,5.4463,5.4486,5.4196,5.4039,5.3859,5.3724,5.3589,5.3498,5.3159,5.291,5.1727,5.1244,5.09,4.9067,4.7061,4.5552,4.4744,4.3414,4.307,4.2571,4.2242,4.2242,4.2242,4.2242,4.2242,4.2242,4.2242,4.2242,4.2242,4.2242,4.2242,4.226,4.2087,4.2087,4.2087,4.2087,4.2104,4.2104,4.2104,3.971,3.6286,3.5683,3.4318,3.2904,3.2193,3.1693,3.1538,3.1512,3.1098,3.0879,3.0879,3.0879,3.0879,3.0879,3.0879,3.0879,3.0879,3.0475,3.0487,3.0487,3.0279,3.0279,3.0291,3.0487,3.0475,3.0683,3.0879,3.0879,3.0879,3.0683,3.0475,3.0475,3.0475,3.0487,7.789,7.696,7.5928,7.5537,7.5355,7.4955,7.4404,7.357,7.2833,7.17,7.0,6.7567,6.5999,6.5269,6.2999,6.1702,6.1114,6.0185,6.0321,6.0693,6.1516,6.2669,6.3566,6.4216,6.4745,6.5491,6.5517,6.5599,6.5954,6.5244,6.4367,6.3533,6.3166,6.1872,5.9106,5.8189,5.7058,5.5265,5.5086,5.4752,5.415,5.4173,5.4196,5.3814,5.3814,5.3814,5.3656,5.3318,5.3228,5.3047,5.2047,5.0555,4.9251,4.7913,4.5759,4.4422,4.3242,4.3088,4.2589,4.2242,4.2242,4.2242,4.2242,4.2242,4.2242,4.2242,4.2242,4.2242,4.2242,4.2242,4.2242,4.2087,4.2087,4.2104,4.1931,4.1739,4.1721,4.1721,4.1547,4.1373,3.9754,3.65,3.3845,3.2681,3.0963,3.0447,3.058,3.0829,3.0944,3.0879,3.0879,3.0879,3.0879,3.0879,3.0683,3.0475,3.0683,3.0475,3.0268,3.0071,2.9655,2.9655,2.9655,2.9655,2.9655,3.006,3.0268,3.0683,3.0683,3.0671,3.0268,3.006,2.9863,2.9863,2.9446,7.733,7.6719,7.5855,7.5355,7.4923,7.439,7.3494,7.255,7.1889,7.0095,6.7785,6.5659,6.4491,6.4169,6.2158,6.0938,6.0229,5.9471,5.8622,5.8994,5.9343,6.0201,6.0708,6.134,6.2337,6.3168,6.3797,6.3797,6.3769,6.3171,6.2364,6.1673,6.1924,6.0485,5.7623,5.7691,5.6658,5.4885,5.4343,5.347,5.3115,5.3407,5.3724,5.3521,5.3318,5.3499,5.3499,5.3138,5.3138,5.316,5.1522,4.9721,4.7601,4.4251,4.3242,4.3757,4.2916,4.2589,4.2242,4.2242,4.2242,4.2242,4.2242,4.2242,4.2242,4.2242,4.2242,4.2242,4.2242,4.2242,4.2242,4.2087,4.2087,4.1931,4.1774,4.1391,4.1199,4.1007,4.0815,4.0482,3.9972,3.7439,3.4343,3.2054,3.0398,2.9645,2.9764,3.0186,3.0527,3.0613,3.0601,3.0475,3.0683,3.0268,3.006,2.9852,3.006,2.9852,2.9655,2.9446,2.9018,2.9018,2.9018,2.9029,2.882,2.882,2.9029,2.9852,3.0268,3.006,2.9852,2.9643,2.9446,2.9029,2.8611,7.7661,7.7464,7.6345,7.5399,7.4765,7.3318,7.2676,7.2266,7.0095,6.7954,6.665,6.4952,6.4456,6.4235,6.1994,6.0716,5.9995,5.9055,5.8394,5.8053,5.829,5.8306,5.8457,5.8143,5.9536,6.0137,6.0711,6.1475,6.1421,6.1085,6.0322,5.9475,5.9964,5.8647,5.6202,5.6118,5.5455,5.3882,5.2946,5.2189,5.2083,5.2465,5.2955,5.2821,5.298,5.3069,5.3069,5.2933,5.291,5.291,5.2069,5.0576,4.7601,4.4251,4.2743,4.2416,4.2416,4.2242,4.2242,4.2242,4.2242,4.2242,4.2242,4.2242,4.2242,4.2242,4.2242,4.2242,4.2087,4.2087,4.2087,4.1913,4.1739,4.1565,4.1408,4.1059,4.0499,3.9939,3.9746,3.9234,3.835,3.5818,3.2919,3.0829,2.8984,2.8966,2.9342,2.9952,3.0135,3.0279,3.0176,3.0082,2.9655,2.9238,2.9029,2.9029,2.9238,2.9238,2.9238,2.882,2.8611,2.8391,2.8391,2.8402,2.8203,2.8005,2.8005,2.8622,2.9238,2.9238,2.9226,2.9029,2.882,2.8413,2.7994,7.7628,7.7365,7.6105,7.4815,7.3607,7.2026,7.1857,7.2141,7.0535,6.9465,6.8695,6.6669,6.5752,6.516,6.282,6.114,6.0309,5.941,5.8565,5.8114,5.7718,5.7597,5.757,5.7706,5.7925,5.8116,5.8744,5.929,5.8904,5.8752,5.7808,5.6387,5.6312,5.5079,5.3923,5.3472,5.303,5.2291,5.1421,5.0938,5.0656,5.088,5.1549,5.1795,5.1973,5.2397,5.2821,5.291,5.2251,5.1384,4.9926,4.8923,4.7601,4.4251,4.2242,4.2242,4.2242,4.2242,4.2242,4.2242,4.2242,4.2242,4.2242,4.2069,4.2069,4.2069,4.2069,4.2069,4.2087,4.2087,4.1913,4.1739,4.1391,4.1199,4.0867,4.0709,3.9956,3.9041,3.8511,3.8156,3.6162,3.3788,3.1564,2.9628,2.8415,2.8685,2.9119,2.9694,2.97,2.9717,2.9553,2.9446,2.882,2.8203,2.7994,2.8203,2.8203,2.8413,2.8413,2.8413,2.7994,2.7994,2.7994,2.7784,2.7795,2.7795,2.7795,2.8214,2.8413,2.8203,2.8203,2.8203,2.8203,2.7795,2.7795,7.7563,7.7232,7.5896,7.4676,7.3449,7.2247,7.2015,7.2298,7.1165,7.0191,6.9707,6.7543,6.5965,6.568,6.3362,6.1683,6.0892,6.0201,5.9293,5.8895,5.8744,5.8171,5.7925,5.7925,5.7816,5.7761,5.7652,5.787,5.7503,5.6958,5.574,5.3615,5.395,5.2755,5.1437,5.0257,4.9874,4.9558,4.96,4.9451,4.9563,5.0009,5.0478,5.0529,5.0531,5.0572,5.0804,5.0884,5.0363,4.9474,4.8264,4.6767,4.66,4.4251,4.2416,4.2416,4.2242,4.2242,4.2242,4.2242,4.2242,4.2242,4.1895,4.1895,4.1721,4.1704,4.1704,4.1895,4.1895,4.1721,4.1547,4.1373,4.1181,4.0832,4.0674,4.0324,3.9796,3.8865,3.7429,3.6715,3.4708,3.2515,3.088,2.9106,2.8192,2.8485,2.869,2.9005,2.9089,2.9055,2.8941,2.8798,2.8402,2.8005,2.7795,2.7585,2.7585,2.7596,2.7795,2.7795,2.7795,2.7795,2.7585,2.7596,2.7585,2.7585,2.7596,2.7585,2.8005,2.7795,2.7585,2.7585,2.7596,2.7585,2.7585,7.7398,7.7132,7.5749,7.5,7.4828,7.4358,7.362,7.2487,7.1259,6.9788,6.816,6.699,6.5766,6.3902,6.2208,6.1569,6.1304,6.1139,6.0164,5.9645,5.9454,5.8744,5.8335,5.8239,5.7843,5.7639,5.73,5.7055,5.7178,5.5905,5.3783,5.1968,5.1976,5.0981,4.973,4.8576,4.7907,4.7988,4.8179,4.847,4.8603,4.9206,4.9585,4.9575,4.9126,4.8972,4.8952,4.8426,4.8017,4.7383,4.7415,4.5441,4.4251,4.4062,4.3414,4.2743,4.2242,4.2242,4.2242,4.2069,4.2069,4.1895,4.1356,4.099,4.099,4.099,4.099,4.1164,4.153,4.1356,4.099,4.0815,4.0815,4.0482,4.0307,3.9956,3.9604,3.8156,3.6715,3.4888,3.288,3.1431,2.98,2.8886,2.7957,2.8119,2.8187,2.8461,2.8306,2.8273,2.8348,2.8402,2.7994,2.7585,2.7596,2.7585,2.7596,2.7596,2.7596,2.7596,2.7596,2.7585,2.7596,2.7596,2.7596,2.7596,2.7596,2.7596,2.7596,2.7596,2.7585,2.7596,2.7596,2.7596,2.7596,7.8934,7.7952,7.6761,7.5206,7.3678,7.4281,7.4438,7.3794,7.2965,7.1627,6.9991,6.8574,6.7234,6.6067,6.4707,6.3704,6.2687,6.1769,6.0574,5.9454,5.9208,5.8526,5.7912,5.7503,5.7666,5.6999,5.644,5.5917,5.5337,5.3889,5.2175,5.0699,4.9691,4.9158,4.8526,4.7802,4.7323,4.7153,4.7398,4.7711,4.7733,4.7879,4.8324,4.8511,4.8162,4.7933,4.7986,4.7682,4.7242,4.5792,4.5205,4.4592,4.326,4.2743,4.2743,4.2416,4.2242,4.2069,4.2069,4.1895,4.1547,4.1356,4.1007,4.0815,4.0815,4.029,4.029,4.064,4.099,4.0832,4.0674,4.0482,4.0307,3.9956,3.978,3.978,3.8897,3.6341,3.4708,3.2698,3.088,2.98,2.8527,2.7968,2.7606,2.7647,2.772,2.7484,2.7474,2.7604,2.7784,2.7795,2.7585,2.7596,2.7596,2.7596,2.7596,2.7596,2.7596,2.7596,2.7596,2.7596,2.7596,2.7596,2.7596,2.7596,2.7596,2.7596,2.7596,2.7596,2.7596,2.7596,2.7596,2.7596,2.7596,7.9086,7.7791,7.666,7.5069,7.3539,7.4281,7.4627,7.4517,7.3899,7.2525,7.0845,6.9626,6.853,6.7175,6.5584,6.4531,6.3818,6.254,6.1311,6.0219,6.0055,5.8799,5.783,5.7612,5.7392,5.6795,5.5792,5.5012,5.4043,5.2331,5.1005,4.9951,4.8882,4.7464,4.7182,4.7182,4.7346,4.7086,4.7211,4.7211,4.6967,4.6706,4.6724,4.7044,4.5728,4.5145,4.5374,4.4931,4.4317,4.3296,4.3388,4.284,4.1672,4.1651,4.1842,4.2242,4.1704,4.1704,4.153,4.1547,4.1024,4.0657,4.0465,4.0307,4.0307,3.9796,3.978,4.0114,4.029,4.0307,4.0148,3.9972,3.9972,3.962,3.9444,3.9444,3.8704,3.5983,3.3984,3.2333,3.1248,3.0525,2.8712,2.7793,2.7233,2.6975,2.6829,2.6817,2.6844,2.7141,2.7596,2.7596,2.7596,2.7596,2.7596,2.7596,2.7596,2.7596,2.7596,2.7596,2.7596,2.7596,2.7596,2.7596,2.7596,2.7596,2.7596,2.7596,2.7596,2.7596,2.7596,2.7596,2.7596,2.7596,2.7596,7.7691,7.6729,7.5335,7.4579,7.4312,7.4564,7.4564,7.4407,7.3787,7.2355,7.0329,6.9188,6.7921,6.6387,6.5403,6.4479,6.4044,6.3962,6.2657,6.0841,6.0224,5.9774,5.8686,5.7678,5.7155,5.7068,5.5515,5.4222,5.4069,5.1406,5.0198,4.9293,4.8235,4.7301,4.7019,4.7019,4.7064,4.7056,4.7612,4.7479,4.718,4.6678,4.5982,4.5244,4.366,4.2788,4.2841,4.2465,4.2088,4.1449,4.17,4.1529,4.0684,4.0902,4.1477,4.2087,4.1338,4.1164,4.0815,4.0815,4.0657,4.0307,3.9956,3.978,3.962,3.9444,3.9604,3.978,3.9604,3.962,3.9444,3.9444,3.962,3.9444,3.9444,3.9251,3.8704,3.7056,3.5788,3.4151,3.3425,3.215,2.9615,2.7606,2.687,2.6417,2.6114,2.6287,2.6487,2.6842,2.7501,2.7596,2.7596,2.7596,2.7596,2.7596,2.7596,2.7596,2.7596,2.7596,2.7596,2.7596,2.7596,2.7596,2.7596,2.7596,2.7596,2.7596,2.7596,2.7596,2.7596,2.7596,2.7596,2.7596,2.7596,7.5604,7.5434,7.4766,7.4007,7.3148,7.3179,7.3497,7.3775,7.3274,7.1739,6.962,6.8559,6.7406,6.6255,6.5241,6.4153,6.3175,6.258,6.0859,5.9762,5.8989,5.7793,5.6634,5.611,5.5864,5.4249,5.319,5.1985,5.1005,4.9655,4.8789,4.8164,4.7442,4.7227,4.6944,4.7086,4.7278,4.7479,4.7739,4.7761,4.8013,4.7631,4.7051,4.5498,4.3931,4.2684,4.139,4.1189,4.0906,4.0644,4.0605,4.0753,4.0916,4.1197,4.1477,4.153,4.153,4.1704,4.1373,4.0849,3.978,3.978,3.962,3.9444,3.9444,3.9444,3.9444,3.9444,3.9444,3.9444,3.9444,3.9444,3.9444,3.9444,3.9444,3.9444,3.8704,3.7978,3.6878,3.5788,3.3788,3.1981,2.9615,2.7793,2.7057,2.6307,2.6127,2.6129,2.6456,2.6842,2.7449,2.7596,2.7596,2.7596,2.7596,2.7596,2.7596,2.7596,2.7596,2.7596,2.7596,2.7596,2.7596,2.7596,2.7596,2.7596,2.7596,2.7596,2.7596,2.7596,2.7596,2.7596,2.7596,2.7596,2.7596,7.4065,7.3382,7.2537,7.1992,7.1763,7.1794,7.2197,7.2711,7.2192,7.1019,6.9744,6.805,6.6754,6.5695,6.4779,6.347,6.2304,6.1686,6.0193,5.8469,5.7309,5.657,5.5658,5.481,5.3992,5.3165,5.1696,5.0087,4.8857,4.8328,4.7672,4.7224,4.6803,4.6716,4.6738,4.6579,4.6514,4.676,4.7154,4.7351,4.7521,4.7079,4.6232,4.5026,4.3952,4.1781,4.0985,4.0996,4.054,4.0181,4.0204,4.0538,4.0834,4.0746,4.0832,4.099,4.0832,4.0832,4.0674,4.0324,3.9796,3.9796,3.962,3.9444,3.9444,3.9444,3.9444,3.9444,3.9444,3.9444,3.9444,3.9444,3.9444,3.9444,3.9444,3.9444,3.8897,3.8172,3.7088,3.6715,3.4708,3.1431,2.9257,2.7793,2.687,2.6174,2.6105,2.6209,2.654,2.6905,2.7355,2.7596,2.7596,2.7596,2.7596,2.7596,2.7596,2.7596,2.7596,2.7596,2.7596,2.7596,2.7596,2.7596,2.7596,2.7596,2.7596,2.7596,2.7596,2.7596,2.7596,2.7585,2.7585,2.7596,2.7596,7.2658,7.0909,6.9075,6.922,7.0441,7.0306,7.0712,7.1217,7.0879,7.047,6.9484,6.7864,6.6359,6.5075,6.4043,6.2892,6.1837,6.108,5.9442,5.8311,5.7627,5.6264,5.525,5.4376,5.3683,5.2854,5.1272,4.9927,4.8948,4.7677,4.7246,4.7058,4.6418,4.6153,4.5963,4.5958,4.564,4.543,4.6153,4.6446,4.6008,4.5267,4.4019,4.2835,4.067,3.8936,3.9539,3.9878,3.9674,3.9536,3.9971,4.0448,4.0431,4.0307,4.0499,4.064,4.0465,4.0131,3.9972,3.9972,4.0148,3.9972,3.9796,3.9444,3.9444,3.9444,3.9444,3.9444,3.9444,3.9444,3.9444,3.9444,3.9074,3.8897,3.8737,3.8543,3.7639,3.7088,3.6909,3.7266,3.4527,2.9972,2.7431,2.687,2.613,2.5566,2.5422,2.5739,2.613,2.6506,2.7136,2.7165,2.7165,2.7165,2.7165,2.7375,2.7165,2.7165,2.7375,2.7596,2.7585,2.7596,2.7596,2.7596,2.7596,2.7596,2.7596,2.7596,2.7596,2.7596,2.7375,2.6934,2.6934,2.7375,2.7596,6.902,6.7785,6.7144,6.764,6.8899,6.8553,6.878,6.9542,6.9797,6.9254,6.8477,6.8375,6.7089,6.5261,6.3148,6.1466,5.9344,5.8738,5.7145,5.5817,5.5171,5.4941,5.4196,5.3605,5.2668,5.1212,5.0111,4.9155,4.8073,4.7205,4.6585,4.6209,4.5808,4.5534,4.5281,4.5116,4.4969,4.4674,4.5322,4.575,4.5607,4.5285,4.3837,4.2463,4.1358,4.0251,3.9207,3.9164,3.9164,3.9164,3.9575,3.9945,3.9787,3.9753,4.0137,4.0465,4.0362,3.9854,3.952,3.9427,3.962,3.962,3.9444,3.9091,3.9267,3.9444,3.9444,3.9074,3.9251,3.9444,3.9267,3.872,3.8543,3.8188,3.7833,3.6746,3.5833,3.5098,3.4737,3.344,3.0512,2.6858,2.6495,2.5931,2.5555,2.499,2.5,2.5304,2.566,2.6136,2.6084,2.5671,2.5671,2.5461,2.6103,2.6745,2.6745,2.6745,2.7165,2.7386,2.7165,2.7165,2.7165,2.7375,2.7596,2.7596,2.7596,2.7596,2.7596,2.7596,2.7375,2.6724,2.6073,2.7155,2.7386,6.8135,6.677,6.6189,6.6462,6.7051,6.6607,6.6831,6.7525,6.7939,6.7385,6.6675,6.7082,6.6116,6.3906,6.254,6.0665,5.9016,5.8028,5.6473,5.5642,5.417,5.3402,5.2687,5.177,5.1054,4.9703,4.9041,4.7956,4.655,4.5761,4.561,4.5284,4.5054,4.4654,4.4333,4.473,4.4606,4.4328,4.4297,4.4316,4.4231,4.3836,4.3223,4.17,4.0683,3.9729,3.9014,3.8895,3.8403,3.8674,3.8691,3.8873,3.8684,3.889,3.9572,4.0052,3.9843,3.9326,3.9028,3.8926,3.8865,3.8914,3.8366,3.8204,3.8204,3.8027,3.8011,3.7623,3.8527,3.8527,3.746,3.7282,3.7298,3.7119,3.6387,3.5474,3.4752,3.365,3.1628,2.8688,2.6108,2.5743,2.5367,2.5179,2.5179,2.4812,2.4937,2.496,2.5095,2.5135,2.4789,2.4494,2.4183,2.4183,2.5038,2.5882,2.5671,2.5461,2.6103,2.6313,2.6313,2.6524,2.6524,2.6734,2.6945,2.7165,2.7596,2.7375,2.7165,2.7375,2.7585,2.523,2.3301,2.4376,2.4808,6.8332,6.6866,6.5894,6.5496,6.5458,6.5013,6.5036,6.5367,6.5451,6.4976,6.3723,6.4212,6.3841,6.2535,6.165,6.082,5.9182,5.7515,5.6057,5.5188,5.3436,5.2183,5.137,4.959,4.9269,4.8166,4.7537,4.6146,4.5143,4.4421,4.4235,4.4395,4.4008,4.3405,4.3325,4.3259,4.3956,4.3503,4.3016,4.2588,4.2113,4.1726,4.1294,4.0538,3.9371,3.84,3.84,3.7982,3.7631,3.7846,3.7497,3.7247,3.7064,3.7114,3.8029,3.8562,3.8142,3.7576,3.7302,3.7257,3.7266,3.6909,3.7103,3.6582,3.6223,3.6223,3.6028,3.4903,3.6536,3.6894,3.5083,3.5113,3.5669,3.5128,3.4194,3.3468,3.2725,3.071,2.9047,2.6472,2.5555,2.5179,2.4801,2.4801,2.4801,2.4812,2.4748,2.4491,2.4408,2.385,2.3496,2.3079,2.2912,2.3327,2.3972,2.4606,2.4386,2.3972,2.4395,2.4606,2.5029,2.5461,2.5461,2.5882,2.6093,2.6304,2.5451,2.5451,2.6304,2.6093,2.5019,2.3301,2.117,2.0957,2.1391,6.6285,6.6384,6.5826,6.5496,6.5295,6.4541,6.3477,6.2521,6.3068,6.2112,6.0417,6.1776,6.2148,6.135,6.0845,5.9853,5.7109,5.5885,5.4691,5.377,5.2489,5.1504,5.0786,4.9791,4.8535,4.7026,4.6222,4.5774,4.4689,4.436,4.411,4.3726,4.2712,4.2142,4.1756,4.1351,4.095,4.1148,4.148,4.1373,4.1069,4.0099,3.9189,3.8134,3.7731,3.7297,3.7064,3.6865,3.6832,3.6716,3.6699,3.6715,3.5932,3.6615,3.738,3.7108,3.4605,3.3629,3.368,3.4297,3.4439,3.4512,3.5654,3.5278,3.4737,3.4013,3.439,3.5474,3.5083,3.2866,3.2137,3.1967,3.1994,3.1825,3.1274,2.9985,2.9232,2.8305,2.6649,2.5921,2.5179,2.4801,2.4801,2.4801,2.4613,2.4434,2.3725,2.3447,2.3457,2.2934,2.2485,2.2004,2.2062,2.2478,2.2903,2.3327,2.3115,2.2903,2.3115,2.3327,2.376,2.4183,2.4818,2.525,2.5029,2.353,2.2665,2.2028,2.2241,2.2241,2.2241,2.117,1.9251,1.861,1.8824,6.4883,6.4958,6.4433,6.4304,6.4583,6.375,6.2761,6.1696,6.1944,6.0756,5.9525,5.977,5.99,5.9265,5.9248,5.8469,5.6716,5.533,5.428,5.3119,5.1504,5.0111,4.9543,4.7865,4.6744,4.5774,4.4791,4.3943,4.3588,4.3751,4.3654,4.3054,4.302,4.2045,4.0787,3.9877,3.99,3.907,3.9098,3.9017,3.8852,3.758,3.6763,3.6147,3.577,3.5593,3.5367,3.5464,3.4997,3.5013,3.5045,3.4481,3.424,3.4626,3.5208,3.4619,3.3003,3.1885,3.2156,3.1539,3.1489,3.169,3.2711,3.2711,3.1418,3.088,3.071,3.088,2.9393,2.9022,2.901,2.9393,2.9787,2.98,2.9059,2.8142,2.721,2.6472,2.5733,2.5189,2.4812,2.4801,2.4801,2.4235,2.4235,2.3646,2.2744,2.2542,2.26,2.2268,2.1872,2.1431,2.121,2.1628,2.1628,2.2053,2.1849,2.1849,2.1849,2.2062,2.2487,2.2912,2.3548,2.376,2.2257,2.076,1.9686,1.861,1.7968,1.754,1.7968,1.7975,1.6909,1.6265,1.6265,6.3471,6.3293,6.2548,6.2594,6.3188,6.28,6.1803,6.0901,6.0767,5.978,5.7799,5.7867,5.7495,5.7018,5.6752,5.693,5.6564,5.4784,5.3654,5.2593,5.0081,4.8189,4.7492,4.6102,4.4834,4.3839,4.3107,4.2202,4.1955,4.1977,4.1541,4.1621,4.142,4.0803,3.9438,3.914,3.7913,3.7235,3.6715,3.6517,3.6465,3.5709,3.5035,3.4737,3.3993,3.3931,3.4056,3.3301,3.2783,3.3216,3.2638,3.2294,3.2263,3.2598,3.2691,3.2023,3.0951,2.9911,2.9888,2.9084,2.8602,2.8765,2.9712,2.9393,2.7909,2.7164,2.6615,2.5877,2.5512,2.5335,2.5711,2.6824,2.7944,2.7956,2.7397,2.666,2.6285,2.5733,2.499,2.5001,2.4812,2.4623,2.3288,2.2339,2.2375,2.2072,2.1493,2.1368,2.1716,2.1459,2.1266,2.1009,2.0776,2.0784,2.0784,2.0997,2.121,2.121,2.121,2.1423,2.1636,2.2062,2.1636,2.1202,2.0136,1.8838,1.7124,1.5411,1.498,1.562,1.498,1.4339,1.477,1.5195,1.4764,6.1097,6.1702,6.1162,6.0769,6.0641,6.1089,5.9947,5.7723,5.8362,5.7515,5.4892,5.53,5.574,5.5718,5.6321,5.6854,5.6087,5.3949,5.1848,5.0474,4.8118,4.6647,4.5674,4.4689,4.3693,4.1797,4.1518,4.0561,3.9808,3.9276,3.9267,3.7507,3.6627,3.6586,3.5816,3.4915,3.4432,3.4698,3.4126,3.4071,3.4555,3.4542,3.4127,3.3545,3.293,3.2599,3.2584,3.2447,3.2423,3.2484,3.2118,3.1286,3.0627,3.0465,3.0304,3.0333,2.8287,2.7294,2.6935,2.6208,2.5712,2.563,2.7107,2.7141,2.5303,2.3995,2.3259,2.27,2.27,2.2889,2.3288,2.4414,2.498,2.5168,2.5367,2.5179,2.5179,2.499,2.4613,2.4613,2.4046,2.2709,2.1387,2.0832,2.0771,2.0485,2.0284,2.0324,2.055,2.0797,2.0782,2.0673,2.0752,2.0784,2.0784,2.0997,2.0997,2.0997,2.0997,2.0997,2.0997,2.121,2.0776,1.9716,1.8639,1.7774,1.6486,1.4549,1.3907,1.4123,1.3907,1.3907,1.3907,1.3907,1.4123,5.9594,5.987,5.965,5.938,5.9438,6.033,5.9243,5.7356,5.8072,5.692,5.4659,5.44,5.442,5.4101,5.4447,5.459,5.417,5.2753,5.1293,4.9111,4.6603,4.5201,4.4379,4.3526,4.2665,4.1518,4.12,4.028,3.9142,3.875,3.7697,3.6075,3.5891,3.4683,3.3505,3.2779,3.1927,3.1502,3.1122,3.1315,3.1686,3.1968,3.1968,3.1671,3.1272,3.1095,3.1256,3.1095,3.1095,3.111,3.0949,3.0465,2.998,2.8681,2.883,2.902,2.6969,2.5118,2.4498,2.4024,2.3284,2.3356,2.5057,2.4676,2.3438,2.251,2.1759,2.1759,2.1759,2.1958,2.2728,2.3098,2.3667,2.3856,2.4424,2.4613,2.4613,2.3856,2.3288,2.3089,2.2339,2.0614,1.9857,1.9984,1.9952,2.0327,2.0168,2.0486,2.0689,2.0681,2.0681,2.0689,2.0752,2.0784,2.0784,2.0784,2.0784,2.0784,2.0784,2.0784,2.057,2.0349,1.9922,1.8639,1.7352,1.6707,1.5195,1.4549,1.3259,1.3691,1.3912,1.3696,1.3696,1.3696,1.3696,5.9224,5.8972,5.8972,5.8852,5.9004,6.0078,5.9163,5.696,5.7882,5.6433,5.4216,5.3223,5.2739,5.2097,5.1863,5.1783,5.1783,5.182,5.092,4.8692,4.5293,4.3631,4.2411,4.1375,4.0721,4.026,4.0337,3.9072,3.7572,3.6875,3.6402,3.4347,3.3422,3.3377,3.1286,3.084,2.994,2.8622,2.8629,2.907,2.9227,2.9556,2.9813,2.9942,2.9753,2.981,2.9952,2.9995,2.9833,2.9656,2.9332,2.9155,2.8993,2.751,2.7182,2.7687,2.556,2.3375,2.3248,2.227,2.1482,2.1519,2.2611,2.2952,2.1532,2.1378,2.1378,2.1568,2.1759,2.1958,2.2149,2.2139,2.2519,2.3098,2.3288,2.3667,2.3856,2.2709,2.1759,2.0996,1.9858,1.8708,1.8739,1.9276,1.9734,2.0057,2.0365,2.0705,2.0776,2.0768,2.076,2.0744,2.0784,2.0784,2.0784,2.0784,2.0784,2.0784,2.0784,2.0784,2.0136,1.9708,1.8624,1.756,1.6277,1.456,1.2832,1.2187,1.3048,1.348,1.3696,1.3269,1.3053,1.3269,1.3485,6.1297,6.0447,6.0447,5.9891,5.9195,6.0152,5.8772,5.6619,5.6269,5.4579,5.2024,5.0614,5.0265,4.9666,4.9814,4.9516,4.9566,4.9999,4.8633,4.6203,4.3904,4.132,3.9367,3.8491,3.8166,3.786,3.7528,3.5814,3.4046,3.3236,3.1512,2.9943,2.9349,2.8927,2.8904,2.8753,2.8478,2.8169,2.8117,2.8203,2.8259,2.843,2.8757,2.9084,2.9141,2.9383,2.9781,2.9833,2.9656,2.9332,2.751,2.7182,2.8151,2.7018,2.6196,2.5524,2.3532,2.1703,2.1499,2.0514,1.9844,2.006,2.0252,2.0027,2.0493,2.0415,2.0423,2.0805,2.1378,2.1378,2.1178,2.1187,2.1378,2.1577,2.1768,2.1958,2.1949,2.1949,2.0996,1.9283,1.89,1.8708,1.8881,1.9284,1.9828,2.001,2.0357,2.0641,2.076,2.0776,2.0784,2.0784,2.0784,2.0784,2.0784,2.0784,2.0784,2.0784,2.0784,2.0136,1.9495,1.8196,1.7332,1.605,1.4554,1.2836,1.1325,1.1758,1.262,1.3053,1.3053,1.2625,1.2413,1.2625,1.2841,6.1391,6.0566,6.0372,5.9127,5.7649,5.804,5.6482,5.3988,5.3494,5.2215,5.0362,4.9367,4.9094,4.8945,4.8672,4.8173,4.7291,4.7442,4.5915,4.3302,4.2007,3.9793,3.7463,3.6278,3.5831,3.5562,3.4553,3.2737,3.0984,3.0734,2.9344,2.747,2.7279,2.723,2.7136,2.7022,2.7022,2.7122,2.7406,2.7577,2.7634,2.7918,2.8259,2.843,2.8712,2.8984,2.9253,2.8975,2.8314,2.7157,2.5169,2.4009,2.4495,2.3177,2.2196,2.2196,2.1021,2.0179,2.0086,1.9701,1.9303,1.9543,1.9535,1.9686,1.9703,1.9559,1.9283,1.9658,1.9858,2.0049,2.0423,2.0432,2.0614,2.0814,2.0432,1.985,1.9858,2.0049,1.9475,1.9091,1.8708,1.8708,1.8731,1.9323,1.9702,1.9939,2.0247,2.0531,2.0728,2.0768,2.0784,2.0784,2.0784,2.0784,2.0784,2.0784,2.0784,2.0784,2.057,1.9487,1.8196,1.6688,1.562,1.4333,1.3048,1.1754,1.1325,1.1325,1.1975,1.2192,1.2192,1.2192,1.1975,1.1971,1.2408,6.1758,6.0305,5.9988,5.8552,5.6553,5.5988,5.4252,5.1864,5.134,5.0357,4.8742,4.8104,4.7735,4.7589,4.7319,4.6328,4.5126,4.4976,4.332,4.0769,3.9655,3.7581,3.5353,3.3887,3.3283,3.2838,3.1751,3.0288,2.8882,2.8792,2.7881,2.6048,2.618,2.6104,2.6083,2.6195,2.6167,2.6252,2.6688,2.6885,2.6941,2.718,2.7391,2.7682,2.7918,2.8231,2.8319,2.8283,2.7666,2.6134,2.351,2.1683,2.0674,1.9512,1.9013,1.9004,1.8674,1.8674,1.8727,1.8578,1.8604,1.8751,1.866,1.9079,1.9255,1.8729,1.851,1.8708,1.8708,1.9099,1.9675,1.9858,1.9858,2.0241,1.9475,1.89,1.89,1.8708,1.8708,1.8708,1.8708,1.8708,1.885,1.9276,1.9694,1.95,1.9781,2.0164,2.0336,2.043,2.057,2.0784,2.0784,2.0784,2.0784,2.0784,2.0784,2.0791,1.9761,1.8466,1.6714,1.5195,1.3907,1.2836,1.1758,1.1325,1.1108,1.0891,1.0678,1.0895,1.1112,1.1329,1.1325,1.132,1.1758,6.3004,5.9768,5.9707,5.8467,5.6311,5.4754,5.3129,5.1718,5.0218,4.8588,4.7255,4.633,4.5509,4.4939,4.4919,4.3886,4.2506,4.2659,4.1246,3.8452,3.6053,3.3867,3.2214,3.0973,3.0139,2.9779,2.9205,2.8208,2.6767,2.6767,2.6126,2.4911,2.5068,2.5089,2.5184,2.5647,2.5824,2.5742,2.5878,2.5932,2.5878,2.5697,2.5683,2.6351,2.6637,2.6955,2.755,2.8344,2.8218,2.645,2.3488,2.0506,1.7825,1.6997,1.6997,1.7168,1.6997,1.6997,1.6989,1.7225,1.7166,1.7416,1.7416,1.7453,1.8182,1.7997,1.7914,1.8637,1.8708,1.8708,1.8908,1.89,1.89,1.8908,1.89,1.8708,1.8708,1.8708,1.8708,1.8708,1.8708,1.8708,1.8747,1.9268,1.9266,1.9081,1.9179,1.9501,1.9715,1.9914,2.0303,2.057,2.0784,2.0784,2.0784,2.0784,2.0784,2.0189,1.8369,1.6809,1.5025,1.3707,1.262,1.1542,1.0678,1.0678,1.0461,1.0678,1.0461,1.0485,1.0489,1.0469,1.0678,1.0678,1.0895,6.1259,5.9388,5.8418,5.6819,5.4727,5.2537,5.068,4.8852,4.7537,4.6478,4.5725,4.5147,4.4766,4.4271,4.3415,4.1873,4.0171,3.9424,3.7381,3.4064,3.2361,3.117,2.9629,2.9076,2.8382,2.7125,2.5716,2.4736,2.4165,2.4179,2.4192,2.3762,2.3918,2.4062,2.4401,2.5036,2.5289,2.5062,2.5636,2.5783,2.5511,2.5538,2.5728,2.5812,2.5987,2.6471,2.7388,2.7886,2.7163,2.5039,2.3034,2.0338,1.7168,1.6655,1.6663,1.6663,1.6663,1.6663,1.6663,1.6663,1.6718,1.6845,1.6859,1.7195,1.7531,1.7236,1.7427,1.8383,1.8708,1.8708,1.8708,1.8708,1.8708,1.8708,1.8708,1.8708,1.8708,1.8708,1.8708,1.8708,1.8708,1.8708,1.8723,1.9023,1.8891,1.8659,1.865,1.8862,1.9339,1.9521,2.0156,2.0508,2.0341,2.0364,2.057,2.0617,2.0609,1.8794,1.6531,1.4715,1.3314,1.2201,1.1758,1.0895,1.0461,1.0461,1.0461,1.0461,1.0509,1.0528,1.0556,1.0513,1.0461,1.0461,1.0461,5.9435,5.786,5.6273,5.4548,5.2517,4.9977,4.8182,4.6665,4.5578,4.4742,4.4247,4.3891,4.3391,4.2647,4.163,4.0003,3.7964,3.6311,3.3945,3.1306,3.0503,2.9369,2.7685,2.7391,2.6422,2.4736,2.3319,2.2755,2.2755,2.2755,2.2887,2.3044,2.3188,2.3331,2.3513,2.4317,2.4736,2.4663,2.5313,2.5581,2.5395,2.5516,2.5503,2.5543,2.5551,2.5874,2.6661,2.6491,2.5392,2.3528,2.1275,1.9021,1.6924,1.6576,1.6655,1.6663,1.6663,1.6663,1.6663,1.6663,1.6663,1.6703,1.6687,1.6984,1.7273,1.7052,1.7366,1.8187,1.8637,1.8708,1.8708,1.8708,1.8708,1.8708,1.8708,1.8708,1.8708,1.8708,1.8708,1.8708,1.8708,1.8708,1.8715,1.8723,1.8463,1.8226,1.7391,1.777,1.8205,1.7801,1.785,1.9413,1.9067,1.8688,1.8563,1.8322,1.7334,1.5327,1.3777,1.2395,1.1612,1.0895,1.0895,1.0461,1.0461,1.0461,1.0461,1.0497,1.0572,1.0616,1.0636,1.0584,1.0493,1.0461,1.0461,5.7667,5.4976,5.3344,5.1964,5.0338,4.7487,4.598,4.5798,4.4908,4.3915,4.3031,4.2261,4.1262,3.9607,3.9377,3.7985,3.5829,3.3867,3.185,3.0058,2.9539,2.784,2.5291,2.5149,2.4308,2.3031,2.2755,2.2755,2.2611,2.2611,2.2611,2.2755,2.2755,2.2755,2.2755,2.3472,2.3994,2.4218,2.4801,2.5131,2.5625,2.513,2.4937,2.4937,2.4827,2.4661,2.4554,2.4305,2.3563,2.1867,1.8616,1.6007,1.54,1.6058,1.6647,1.6624,1.6647,1.6655,1.6663,1.6663,1.6663,1.6671,1.6671,1.6853,1.7184,1.7258,1.7547,1.7906,1.8258,1.8516,1.8516,1.8292,1.8292,1.8708,1.8323,1.8523,1.8715,1.8708,1.8708,1.8708,1.8708,1.8708,1.8708,1.8708,1.8331,1.7248,1.6234,1.6047,1.7255,1.6183,1.5287,1.7033,1.7457,1.7167,1.6648,1.6062,1.4074,1.2366,1.1617,1.1098,1.0747,1.0461,1.0461,1.0461,1.0461,1.0461,1.0461,1.0596,1.0663,1.0751,1.0731,1.0723,1.062,1.0532,1.0513,5.5985,5.3334,5.1971,5.0417,4.85,4.6567,4.5583,4.4884,4.4649,4.4034,4.3055,4.1873,4.0848,3.9835,3.7857,3.5678,3.3448,3.1714,2.992,2.8119,2.6985,2.5447,2.3736,2.345,2.3031,2.2467,2.2322,2.2178,2.2033,2.2033,2.2033,2.2033,2.1888,2.1888,2.2129,2.2892,2.3187,2.3089,2.3707,2.4058,2.3733,2.3882,2.4069,2.392,2.2985,2.2316,2.2315,2.1623,2.0989,2.0427,1.8141,1.5744,1.3753,1.5388,1.6553,1.6027,1.6344,1.6663,1.6663,1.6663,1.6655,1.6655,1.6484,1.6429,1.7089,1.7042,1.6645,1.6452,1.7477,1.7931,1.6926,1.5815,1.5788,1.6933,1.7169,1.7547,1.8523,1.8715,1.8708,1.8708,1.8708,1.8708,1.8708,1.8708,1.8131,1.7161,1.6646,1.6132,1.6452,1.6132,1.72,1.7893,1.6699,1.5994,1.5507,1.3977,1.1975,1.142,1.0893,1.0828,1.0524,1.0485,1.0461,1.0461,1.0461,1.0461,1.0536,1.0679,1.0806,1.0925,1.0909,1.083,1.0735,1.0636,1.06,5.4924,5.2521,5.0694,4.91,4.7616,4.6224,4.5118,4.4295,4.4058,4.3175,4.1652,4.05,3.9209,3.7816,3.5659,3.3716,3.2138,3.0332,2.8676,2.6859,2.5163,2.3736,2.2467,2.2322,2.2178,2.1888,2.1888,2.1599,2.1163,2.1163,2.1163,2.1163,2.1163,2.1163,2.1221,2.1815,2.208,2.2086,2.2804,2.3248,2.3324,2.3534,2.3522,2.2892,2.1806,2.1039,2.0454,1.9358,1.8443,1.7971,1.6285,1.4389,1.2751,1.4257,1.5373,1.5156,1.5652,1.5996,1.6273,1.6297,1.6344,1.6632,1.5948,1.5687,1.5994,1.5574,1.5001,1.4721,1.601,1.6033,1.4391,1.3908,1.4311,1.5249,1.5937,1.6776,1.7554,1.8331,1.8708,1.8708,1.8708,1.8708,1.8708,1.8708,1.8323,1.7347,1.6377,1.6153,1.6086,1.5465,1.5455,1.632,1.6253,1.5299,1.4339,1.1906,1.0759,1.0659,1.0608,1.0536,1.0516,1.0473,1.0469,1.0473,1.0465,1.0461,1.0469,1.0616,1.0747,1.0878,1.1005,1.0925,1.0838,1.0814,1.0751,5.4355,5.2392,4.9316,4.806,4.765,4.5715,4.4483,4.3915,4.3365,4.1575,3.9126,3.8388,3.635,3.3619,3.2814,3.2274,3.1732,2.9353,2.7546,2.6155,2.4165,2.2611,2.161,2.161,2.1454,2.1454,2.1175,2.0872,2.0435,2.0435,2.0435,2.0446,2.0446,2.0435,2.0446,2.0615,2.0838,2.1611,2.2129,2.284,2.3527,2.3492,2.2856,2.185,2.1465,2.0615,1.9161,1.7667,1.6055,1.4564,1.3251,1.2341,1.2347,1.2902,1.371,1.43,1.4351,1.4636,1.5396,1.5275,1.5577,1.6197,1.5198,1.4536,1.4413,1.3196,1.2464,1.2894,1.3337,1.3158,1.1725,1.2334,1.3208,1.3654,1.5013,1.591,1.6156,1.7281,1.8292,1.8323,1.8131,1.7939,1.8139,1.8516,1.8124,1.6377,1.5013,1.4282,1.5178,1.3151,1.2765,1.4001,1.4473,1.3652,1.0712,1.0077,1.0417,1.0433,1.0433,1.0441,1.0453,1.0465,1.0473,1.0477,1.0469,1.0465,1.0465,1.0536,1.0667,1.0854,1.0989,1.1017,1.0925,1.0957,1.0905,5.4451,5.2636,5.009,4.7702,4.5715,4.5069,4.4271,4.3365,4.3245,4.2208,4.0566,3.8536,3.5698,3.2427,3.1902,3.0897,2.9369,2.7546,2.5575,2.3749,2.2021,2.1006,2.0727,2.0727,2.0727,2.0738,2.0592,2.0435,2.0435,2.0435,2.0435,2.0435,2.0435,2.0435,2.0435,2.0435,2.0513,2.0793,2.1235,2.1598,2.1714,2.1757,2.1751,2.1477,2.0435,1.9129,1.7648,1.6029,1.4548,1.2915,1.2471,1.217,1.217,1.2394,1.3132,1.4082,1.3343,1.337,1.4916,1.3133,1.2759,1.4364,1.3561,1.2965,1.262,1.0772,1.0181,1.1069,1.0416,0.9962,0.9386,0.9636,1.0641,1.1894,1.2328,1.3203,1.4323,1.4733,1.5184,1.5193,1.5585,1.5225,1.5618,1.6969,1.6762,1.3266,1.2302,1.2344,1.1735,1.2599,1.2724,1.2947,1.1695,1.0252,0.8791,0.917,1.01,1.0171,1.0251,1.0096,1.0441,1.0453,1.0465,1.0473,1.0477,1.0473,1.0465,1.0481,1.0572,1.0866,1.1068,1.1128,1.0997,1.1088,1.1036,5.2905,5.142,4.9342,4.7056,4.4859,4.4413,4.3581,4.2665,4.1888,4.0712,3.9294,3.7107,3.4758,3.2544,3.0914,2.9661,2.8243,2.5702,2.3736,2.2599,2.1018,2.0143,2.0008,2.0008,1.9705,1.9402,1.9255,1.9412,1.9559,1.958,1.9569,1.9862,1.9862,1.9862,1.9862,2.0008,2.0008,2.0143,2.0435,2.0446,2.0581,2.0738,2.0872,2.1018,2.0154,1.8679,1.6604,1.5723,1.4233,1.2157,1.2163,1.217,1.217,1.217,1.2633,1.3419,1.2665,1.2441,1.3155,1.2301,1.1979,1.274,1.2101,1.148,1.1457,0.9566,0.8738,0.9527,0.8941,0.8393,0.8501,0.8576,0.9019,1.0021,1.0853,1.1688,1.2755,1.3325,1.38,1.3856,1.3491,1.3126,1.2669,1.4632,1.4433,1.1526,1.0942,1.1175,1.0302,1.1132,1.1779,1.0848,0.9346,0.7902,0.7396,0.8556,0.9735,1.002,0.9646,0.9471,0.9586,0.9642,0.9939,1.0461,1.0023,0.9806,1.0224,1.0481,1.0501,1.0671,1.0901,1.11,1.0997,1.1056,1.1005,5.0177,4.8806,4.7448,4.5948,4.4338,4.3558,4.2786,4.1788,3.9987,3.7964,3.5885,3.4006,3.3194,3.2921,2.9774,2.8028,2.7391,2.3866,2.2021,2.1888,2.0435,1.9423,1.8993,1.8993,1.8689,1.808,1.7491,1.7795,1.8404,1.7972,1.8257,1.8993,1.914,1.914,1.8993,1.9129,1.9423,1.9716,1.9716,1.9716,1.9862,2.0154,2.0289,2.0435,2.0435,1.8962,1.6011,1.6142,1.4806,1.1843,1.1856,1.2163,1.2163,1.2137,1.2294,1.2334,1.2117,1.1686,1.0711,1.1493,1.1547,1.099,1.0508,1.02,1.0263,0.9017,0.831,0.8362,0.8362,0.8358,0.8366,0.8473,0.8552,0.877,0.998,1.1036,1.1229,1.2326,1.3161,1.3425,1.2272,1.1378,1.0048,1.1288,1.1705,0.8996,0.9584,1.0182,0.9222,0.9808,0.982,0.824,0.7255,0.6282,0.6112,0.8077,0.8992,0.9244,0.8657,0.8286,0.8332,0.8408,0.8484,0.9204,0.9018,0.8841,0.9505,1.0193,0.997,1.0306,1.0711,1.0917,1.0945,1.0969,1.0901,4.7682,4.599,4.4816,4.4057,4.3601,4.3251,4.2277,4.088,3.9567,3.6592,3.2385,2.9956,2.9292,2.9374,2.7896,2.5948,2.3931,2.2118,2.01,1.8375,1.7795,1.75,1.7362,1.75,1.7353,1.7048,1.6168,1.6168,1.7057,1.6317,1.6317,1.7362,1.811,1.7962,1.751,1.8689,1.8993,1.8552,1.8993,1.9569,1.9862,1.9862,2.0154,2.0446,2.0435,1.8962,1.6002,1.5854,1.4516,1.1693,1.1548,1.1856,1.2157,1.1952,1.1926,1.2098,1.1735,1.0388,0.8039,0.703,0.7314,0.888,0.8613,0.8574,0.881,0.8288,0.8064,0.831,0.8354,0.8354,0.835,0.8294,0.8278,0.8401,0.8804,0.924,0.919,0.9395,0.9831,1.0014,0.986,0.9674,0.9032,0.8464,0.724,0.5684,0.6274,0.6858,0.6461,0.8028,0.7832,0.588,0.5493,0.5495,0.4126,0.5744,0.6957,0.7149,0.7032,0.7119,0.6997,0.7045,0.7313,0.7602,0.759,0.7348,0.7542,0.7745,0.8471,1.0201,1.0536,1.0632,1.0512,1.0838,1.0858,4.5625,4.438,4.3654,4.3273,4.2896,4.3038,4.1737,3.927,3.6682,3.3557,3.0068,2.8077,2.7304,2.7358,2.5176,2.3444,2.1952,1.9815,1.8075,1.6661,1.6836,1.677,1.6334,1.6334,1.6177,1.588,1.5136,1.5434,1.6334,1.574,1.588,1.6918,1.7371,1.7362,1.7057,1.81,1.8562,1.812,1.811,1.8247,1.8542,1.8836,1.914,1.9276,1.8972,1.7638,1.526,1.4673,1.3271,1.0916,1.1064,1.1163,1.1331,1.1322,1.1453,1.1735,1.1451,1.0257,0.8316,0.6665,0.6131,0.6819,0.7512,0.7929,0.8108,0.7949,0.7957,0.8211,0.8314,0.8354,0.835,0.8207,0.8147,0.8239,0.8247,0.8286,0.8374,0.8445,0.858,0.8758,0.8715,0.8643,0.8643,0.7203,0.5493,0.3536,0.3926,0.4515,0.4121,0.6274,0.6861,0.4513,0.4317,0.4319,0.3536,0.4124,0.4711,0.4711,0.5342,0.559,0.5838,0.5905,0.6153,0.6616,0.6435,0.5762,0.5058,0.5862,0.7659,0.9642,1.0461,1.022,0.9802,1.0099,1.0106,4.4017,4.32,4.3026,4.2551,4.2062,4.2378,4.0678,3.7606,3.3515,3.0441,2.8504,2.6894,2.6205,2.604,2.2668,2.0976,2.054,1.7456,1.6133,1.6063,1.6387,1.6107,1.5532,1.5574,1.5277,1.4477,1.4375,1.4697,1.5451,1.5451,1.574,1.6465,1.6622,1.6622,1.6779,1.7519,1.7824,1.7677,1.7224,1.6918,1.6918,1.7677,1.8139,1.8198,1.7548,1.6456,1.4657,1.3591,1.212,1.0123,1.0379,1.0405,1.018,1.046,1.0829,1.1168,1.1234,1.0631,0.9441,0.7848,0.6472,0.5456,0.6809,0.7644,0.7644,0.7621,0.7858,0.8056,0.8191,0.829,0.8314,0.8163,0.8076,0.8112,0.8116,0.81,0.8084,0.8223,0.8393,0.856,0.8449,0.837,0.8262,0.7067,0.5442,0.3724,0.3325,0.3322,0.3708,0.4693,0.5281,0.4509,0.373,0.3143,0.3143,0.3143,0.3339,0.3143,0.3928,0.4524,0.4534,0.4582,0.482,0.5823,0.528,0.4459,0.3568,0.4711,0.6467,0.8921,0.9698,0.9454,0.8494,0.8872,0.8869,4.286,4.2006,4.1129,4.068,4.0427,3.9304,3.8526,3.7688,3.3736,0.0,0.0,2.4632,2.42,2.4201,2.158,1.9867,1.8813,1.6203,1.4762,1.4475,1.454,1.4419,1.4298,1.4569,1.4553,1.4153,1.3376,1.3651,1.4697,1.3808,1.395,1.4846,1.4987,1.5293,1.5897,1.6779,1.677,1.6195,1.6622,1.6918,1.6918,1.7667,1.8287,1.8631,1.8743,1.7491,1.4806,1.4256,1.2626,1.0106,0.993,0.9799,0.9332,1.0168,1.0671,1.0641,1.101,1.0192,0.7582,0.7008,0.6232,0.5093,0.6531,0.7307,0.667,0.7178,0.7544,0.7866,0.7917,0.7997,0.8139,0.7997,0.7949,0.8096,0.8112,0.8048,0.7925,0.8048,0.8151,0.8147,0.8262,0.8354,0.837,0.6913,0.5109,0.3498,0.3098,0.3262,0.4025,0.4029,0.3663,0.3518,0.3335,0.3143,0.3143,0.3143,0.3143,0.3143,0.3338,0.3338,0.3339,0.3348,0.3552,0.3951,0.3559,0.3365,0.3149,0.3534,0.4585,0.7045,0.7518,0.7301,0.7269,0.7188,0.7159,4.2879,4.1779,4.1453,4.0794,0.0,3.9545,3.7602,3.4747,3.1828,2.8178,2.4024,2.3318,2.2886,2.2554,2.0001,1.8483,1.7564,1.5034,1.3848,1.3782,1.3956,1.4137,1.4303,1.4469,1.4461,1.4303,1.3882,1.395,1.4548,1.3942,1.3867,1.4303,1.4461,1.4609,1.4588,1.5342,1.5583,1.5153,1.5591,1.5731,1.5731,1.6492,1.7177,1.7795,1.7405,0.0,0.0,0.0,0.0,0.0,0.0,0.0,0.0,0.9616,0.0,1.0468,1.0853,0.9841,0.7372,0.6393,0.5511,0.4559,0.5115,0.5611,0.6138,0.6961,0.7389,0.756,0.7743,0.7881,0.7961,0.7814,0.7746,0.783,0.7842,0.7814,0.7746,0.7866,0.7961,0.7949,0.8028,0.8167,0.8334,0.686,0.5038,0.3421,0.3028,0.3208,0.3614,0.3407,0.3033,0.3089,0.3119,0.3142,0.3143,0.3143,0.3143,0.3143,0.3143,0.3143,0.3143,0.3143,0.3143,0.3143,0.3143,0.3143,0.3143,0.3143,0.3357,0.4614,0.5843,0.6248,0.5036,0.4802,0.4799,4.327,4.2217,4.2194,4.1293,3.9839,3.9823,3.6788,3.1739,2.9894,2.6833,2.329,2.2699,2.2029,2.103,1.8525,1.7195,1.6499,1.4052,1.3214,1.3772,1.3916,1.4193,1.4445,1.4516,1.4516,1.4453,1.4445,1.4453,1.4445,1.4382,1.4216,1.3964,1.4216,1.4062,1.3526,0.0,0.0,0.0,1.4421,1.4485,1.454,1.5302,1.6081,1.6721,1.5835,0.0,1.5705,1.2962,1.1161,1.0531,0.9582,0.0,0.0,0.0,0.0,0.0,0.0,0.0,0.0,0.0,0.0,0.0,0.3549,0.3838,0.518,0.6305,0.6946,0.6806,0.7391,0.7582,0.726,0.7485,0.7584,0.758,0.7548,0.7516,0.7485,0.7635,0.7711,0.7659,0.7703,0.7897,0.8114,0.6452,0.4576,0.3117,0.2943,0.2969,0.3012,0.2977,0.2975,0.3028,0.3071,0.3106,0.311,0.3127,0.3143,0.3138,0.3131,0.3107,0.3103,0.3103,0.3107,0.3104,0.311,0.3106,0.3107,0.311,0.3111,0.3139,0.4519,0.5093,0.3503,0.311,0.3127,4.3076,4.3721,4.226,4.0769,3.9275,3.7484,3.4661,3.1351,2.9945,2.759,2.4309,2.3014,2.1371,1.9672,1.7809,1.6535,1.5639,1.3783,1.3356,1.3964,1.4027,1.4066,1.4121,1.4414,1.439,1.4121,1.4106,1.4106,1.4098,1.3798,1.3764,1.3732,1.3772,1.3624,1.3585,1.3624,1.3516,1.3095,1.3669,1.4256,1.4532,1.5293,1.6052,1.649,1.6277,1.5749,1.4577,1.3125,1.1532,1.0242,0.9235,0.8988,0.9527,0.9467,1.0144,0.0,0.9062,0.0,0.0,0.0,0.0,0.0,0.0,0.0,0.0,0.507,0.5558,0.4823,0.6333,0.6922,0.5697,0.6725,0.7584,0.7576,0.7445,0.7286,0.7147,0.7274,0.727,0.6969,0.7199,0.7635,0.806,0.5244,0.3163,0.2822,0.2858,0.289,0.29,0.2895,0.291,0.2969,0.2985,0.2994,0.2997,0.3073,0.3135,0.3128,0.3063,0.2992,0.2996,0.2996,0.2992,0.2992,0.2998,0.2992,0.2989,0.2988,0.3024,0.3115,0.3328,0.3491,0.3025,0.3,0.3009,4.2829,4.1809,4.0995,3.9298,3.6771,3.4668,3.2047,2.9124,2.8026,2.6111,2.3519,2.1611,1.9587,1.7688,1.645,1.5565,1.4895,1.365,1.3277,1.375,1.3948,1.4145,1.4327,1.4485,1.4469,1.4327,1.4319,1.4319,1.4311,1.4169,1.3995,1.3814,1.3806,1.3476,1.2966,1.3101,1.3094,1.295,1.3625,1.42,1.4532,1.4995,1.5574,1.6411,1.6142,1.5972,1.6382,1.4558,1.3095,1.1921,1.0575,0.9714,0.9321,0.8956,0.9198,0.0,0.0,0.0,0.0,0.0,0.0,0.0,0.0,0.0,0.0,0.0,0.3931,0.3016,0.4001,0.4385,0.3511,0.5457,0.6472,0.593,0.6016,0.6281,0.7195,0.6801,0.6748,0.708,0.7052,0.7219,0.7711,0.4806,0.2718,0.2782,0.2784,0.2792,0.2821,0.283,0.2851,0.2907,0.2916,0.2908,0.2873,0.2968,0.3043,0.3041,0.3001,0.2967,0.2967,0.2967,0.2967,0.2967,0.2967,0.2948,0.2882,0.2867,0.2907,0.3008,0.3045,0.3025,0.2977,0.2967,0.2972,4.1888,3.9853,3.7927,3.5756,3.3493,3.1513,2.957,2.754,2.6093,2.4367,2.2457,2.0477,1.8484,1.6414,1.4843,1.4163,1.4136,1.31,1.2898,1.3236,1.3507,1.3503,1.3665,1.3977,1.4164,1.4233,1.4226,1.4303,1.4287,1.4137,1.3964,1.3656,1.3648,1.3383,1.2615,1.2789,1.2922,1.2985,1.36,1.4082,1.4414,1.4429,1.4931,1.5891,1.5553,1.6018,1.7206,1.5647,1.4225,1.3167,1.152,1.0229,0.9004,0.8208,0.0,0.0,0.0,0.0,0.0,0.0,0.0,0.0,0.0,0.2871,0.2319,0.0,0.2285,0.0,0.2042,0.2537,0.2662,0.4523,0.0,0.0,0.4345,0.4943,0.6218,0.6065,0.601,0.6609,0.6479,0.6353,0.6213,0.4135,0.2487,0.2735,0.2698,0.2683,0.2569,0.2759,0.2785,0.2826,0.2846,0.2841,0.2808,0.2869,0.2926,0.2924,0.2924,0.2919,0.2906,0.2904,0.2898,0.2887,0.2883,0.285,0.2767,0.2749,0.2785,0.2861,0.2907,0.2918,0.2888,0.2881,0.2891,3.9852,3.9368,3.188,2.9238,2.9663,2.8076,2.7551,2.7629,2.5336,2.3303,2.147,2.0613,1.8828,1.6128,1.3243,0.0,1.2797,1.2069,1.1921,1.2109,1.2131,1.1735,1.1002,1.2177,1.2768,1.3037,1.3472,1.374,1.3708,1.2969,1.2656,1.2527,1.2937,1.3048,1.2993,1.2685,1.2685,1.3001,1.3372,1.3727,1.4074,1.4082,1.4216,1.4633,1.4864,1.5063,1.5393,1.5208,1.4331,1.2534,1.1398,1.0062,0.8532,0.0,0.0,0.0,0.0,0.0,0.0,0.0,0.0,0.0,0.0,0.0,0.0,0.0,0.0,-0.0292,0.1371,0.0,0.4236,0.4339,0.0,0.0,0.0,0.3148,0.329,0.4749,0.5433,0.466,0.0,0.0,0.3036,0.2706,0.2623,0.2633,0.2582,0.2566,0.2625,0.2679,0.271,0.2719,0.2763,0.2794,0.2781,0.28,0.2816,0.2816,0.2804,0.2786,0.2743,0.2729,0.2704,0.2672,0.2484,0.2645,0.2637,0.2463,0.2635,0.2488,0.2564,0.2772,0.2517,0.2496,0.2692,3.5192,3.2971,2.8579,2.6438,2.5898,2.398,2.319,2.3295,2.2166,2.0891,1.9553,1.8536,1.7085,1.526,1.3262,0.0,0.0,0.0,1.1243,1.1158,1.2585,1.2952,1.242,1.3289,1.379,1.3908,1.3648,1.3791,1.4198,1.3509,1.2617,1.1581,0.0,1.2216,1.2302,1.2363,1.2494,1.2724,1.3443,1.3798,1.3735,1.4572,1.5199,1.5689,1.5878,1.6186,1.6569,1.616,1.5097,1.3044,1.1906,0.9708,0.0,0.0,0.0,0.0,0.0,0.0,0.0,0.0,0.0,0.0,0.0,0.073,0.0303,0.0,0.0,0.0,-0.0649,-0.0364,-0.0,0.1775,0.0,0.0,0.0,0.0,0.0,0.0,0.0,0.4048,0.3502,0.2995,0.2364,0.2333,0.246,0.244,0.2537,0.2512,0.2608,0.0,0.2653,0.2653,0.2691,0.2712,0.2692,0.2745,0.279,0.279,0.2735,0.2679,0.2655,0.2653,0.2645,0.2626,0.2621,0.2597,0.2525,0.2454,0.2445,0.259,0.2492,0.2327,0.1776,0.2085,0.259,2.997,0.0,0.0,0.0,0.0,2.0528,1.9754,1.9842,1.9148,1.8226,1.7172,1.6062,0.0,0.0,0.0,0.0,0.0,0.0,1.0443,1.0119,1.1881,1.2586,1.2109,1.2922,1.3706,1.4177,1.3949,1.3976,1.4126,1.3018,1.1914,1.118,0.0,0.0,0.0,0.0,1.2669,1.2669,1.3864,1.4287,1.3955,1.532,1.6001,1.6054,1.6607,1.7088,1.7255,1.6657,1.5214,1.3126,1.143,0.0,0.0,0.0,0.0,0.0,0.0,0.0,0.0,0.0,0.0,0.0,0.0,0.0,0.0,0.0,0.0,0.0,0.0,0.0,-0.1856,0.0112,0.0709,0.0,0.0,0.0,0.0,0.0,0.0,0.0,0.0,0.0,0.2087,0.2193,0.2325,0.0,0.0,0.243,0.2529,0.2239,0.1931,0.2106,0.1789,0.0,0.1447,0.2142,0.2714,0.278,0.2684,0.227,0.1767,0.2076,0.2221,0.1731,0.2203,0.2172,0.1626,0.0994,0.0716,0.1386,0.1574,0.1252,0.0462,0.1227,0.2009,0.0,0.0,0.0,0.0,1.894,0.0,0.0,0.0,1.6712,1.5305,0.0,1.3745,0.0,0.0,0.0,0.0,0.8881,0.961,0.0,0.0,0.9661,0.9604,0.8874,0.9988,1.1428,1.3078,1.3794,1.3817,1.2905,1.0626,0.0,0.0,0.0,0.0,0.0,0.0,1.2928,1.3062,1.4833,1.5254,1.4609,1.6002,1.6277,1.5328,1.6721,1.7235,1.6715,1.6052,1.4571,1.2121,0.9723,0.0,0.0,0.0,0.0,0.0,0.0,0.0,0.0,0.0,0.0,0.0,0.0,0.0,0.0,0.0,0.0,0.0,0.0,0.0,0.0,-0.0,0.0,0.0,0.0,0.0,0.0,0.0,0.0,0.0,0.0,0.0,0.1688,0.2192,0.2258,0.2093,0.0,0.0,0.0,0.0,0.0771,0.0789,-0.0155,-0.1072,-0.1072,0.092,0.2535,0.2751,0.0,0.0,0.0153,0.1199,0.1761,0.0,0.1144,0.1681,-0.0532,-0.2505,-0.3215,-0.1269,-0.0714,-0.0996,-0.1561,-0.0427,0.0859,0.0,0.0,0.0,0.0,0.0,0.0,0.0,0.0,0.0,1.4768,1.365,1.3334,0.0,0.0,0.0,0.0,0.0,0.0,0.0,0.0,0.9311,0.949,0.8133,0.9933,1.0822,1.0734,1.0727,1.0789,0.0,0.0,0.0,0.0,0.0,0.0,0.0,0.0,1.2937,1.3423,1.5222,1.5963,1.5808,1.6946,1.732,1.6759,1.7167,1.6978,1.575,1.5203,1.4186,0.0,0.0,0.0,0.0,0.0,0.0,0.0,0.0,0.0,0.0,0.0,0.0,0.0,0.0,0.0,0.0,0.0,0.0,0.0,0.0,0.0,0.0,0.0,-0.1929,0.0,0.0,0.0,0.0,0.0,0.0,0.0,0.0,0.0,-0.2076,0.0399,0.1896,0.0964,0.1657,0.2231,0.229,0.0,0.0,0.0,0.0,0.0,0.0,0.0,-0.0479,0.2242,0.0621,-0.1049,-0.1312,-0.0865,-0.0572,-0.1274,0.0,0.0,-0.3824,-0.457,-0.4599,-0.4285,-0.3896,-0.3513,-0.3708,-0.1983,-0.0521,0.0,0.0,0.0,0.0,0.0,0.0,0.0,0.0,0.0,1.2824,1.1726,0.0,0.0,0.0,0.0,0.0,0.0,0.0,0.0,0.0,0.0,0.0,0.7801,0.9075,0.0,0.0,0.0,0.0,0.0,0.0,0.0,0.0,0.0,0.0,0.0,0.0,1.2983,1.3604,1.5575,1.6476,1.633,1.7465,1.7825,1.7245,1.7386,1.689,1.592,0.0,0.0,0.0,0.0,0.0,0.0,0.0,0.0,0.0,0.0,0.0,0.0,0.0,0.0,0.0,0.0,0.0,0.0,0.0,0.0,0.0,0.0,0.0,0.0,0.0,-0.2444,0.0,0.0,0.0,0.0,0.0,0.0,0.0,0.0,0.0,0.0,-0.0638,0.0917,0.0395,0.119,0.1882,0.2227,0.0979,0.0141,0.0,0.0,0.0,0.0,0.0,0.0,0.0,0.0,0.0,0.0,0.0,0.0,0.0,0.0,-0.3403,-0.5977,-0.5763,-0.5488,-0.6639,0.0,0.0,0.0,0.0,0.0,0.0,0.0,0.0,0.0,0.0,0.0,0.0,0.0,0.0,0.0,0.8288,0.0,0.0,0.7432,0.0,0.0,0.0,0.0,0.0,0.0,0.0,0.0,0.0,0.0,0.0,0.0,0.0,0.0,0.0,0.0,0.0,0.0,0.0,0.0,0.0,0.0,1.3165,1.3679,1.6078,1.7022,1.6436,1.7316,1.7506,1.6803,1.7067,1.7225,1.7183,0.0,0.0,0.0,0.0,0.0,0.0,0.0,0.0,0.0,0.0,0.0,0.0,0.0,0.0,0.0,0.0,0.0,0.0,0.0,0.0,0.0,0.0,0.0,0.0,0.0,0.0,-0.1822,-0.2234,-0.2566,0.0,0.0,0.0,0.0,0.0,0.0,0.0,0.0,0.0,0.0484,0.0739,0.1152,0.1889,0.0272,-0.1097,-0.0987,-0.2966,-0.4382,-0.4398,-0.2656,-0.1647,0.0,0.0,0.0,0.0,0.0,0.0,0.0,0.0,0.0,0.0,0.0,0.0,0.0,0.0,0.0,0.0,0.0,0.0,0.0,0.0,0.0,0.0,0.0,0.0,0.0,0.0,0.0,0.0,0.0,0.0,0.0,0.0,0.0,0.0,0.0,0.0,0.0,0.0,0.0,0.0,0.0,0.0,0.0,0.0,0.0,0.0,0.0,0.0,0.0,0.0,0.0,0.0,0.0,0.0,1.3286,1.3777,1.6025,1.754,1.7877,1.787,1.7613,1.7179,1.6872,1.6633,0.0,0.0,0.0,0.0,0.0,0.0,0.0,0.0,0.0,0.0,0.0,0.0,0.0,0.0,0.0,0.0,0.0,0.0,0.0,0.0,0.0,0.0,0.0,0.0,0.0,0.0,0.0,0.0,-0.2113,-0.231,-0.2344,0.0,0.0,0.0,0.0,0.0,0.0,0.0,0.0,0.0,0.0,0.0863,0.1152,-0.0,-0.0784,-0.0137,-0.2364,-0.3623,-0.2203,-0.3588,-0.3985,-0.1937,0.0,0.0,0.0,0.0,0.0,0.0,0.0,0.0,0.0,0.0,0.0,0.0,0.0,0.0,0.0,0.0,0.0,0.0,0.0,0.0,0.0,0.0,0.0,0.0,0.0,0.0,0.0,0.0,0.0,0.0,0.0,0.0,0.0,0.0,0.0,0.0,0.0,0.0,0.0,0.0,0.0,0.0,0.0,0.0,0.0,0.0,0.0,0.0,0.0,0.0,0.0,0.0,0.0,1.3354,1.3541,1.5983,1.7593,1.8178,1.7746,1.7293,1.6839,1.6848,1.6346,0.0,0.0,0.0,0.0,0.0,0.0,0.0,0.0,0.0,0.0,0.0,0.0,0.0,0.0,0.0,0.0,0.0,0.0,0.0,0.0,0.0,0.0,0.0,0.0,0.0,0.0,0.0,0.0,-0.1904,-0.1957,-0.2018,0.0,0.0,0.0,0.0,0.0,0.0,0.0,0.0,0.0,0.0,0.0364,0.075,-0.0126,0.0,0.0,-0.1668,-0.2278,-0.1205,-0.2782,-0.3943,-0.3089,-0.4677,0.0,0.0,0.0,0.0,0.0,0.0,0.0,0.0,0.0,0.0,0.0,0.0,0.0,0.0,0.0,0.0,0.0,0.0,0.0,0.0,0.0,0.0,0.0,0.0,0.0,0.0,0.0,0.0,0.0,0.0,0.0,0.0,0.0,0.0,0.0,0.0,0.0,0.0,0.0,0.0,0.0,0.0,0.0,0.0,0.0,0.0,0.0,0.0,0.0,0.0,0.0,0.0,1.3403,1.311,1.5666,1.7285,1.7335,1.7158,1.681,1.5985,1.68,1.6142,0.0,0.0,0.0,0.0,0.0,0.0,0.0,0.0,0.0,0.0,0.0,0.0,0.0,0.0,0.0,0.0,0.0,0.0,0.0,0.0,0.0,0.0,0.0,0.0,0.0,0.0,0.0,0.0,0.0,0.0,0.0,0.0,0.0,0.0,0.0,0.0,0.0,0.0,0.0,0.0,0.0,-0.0481,0.0498,-0.0384,-0.104,0.0,-0.1045,-0.1176,-0.1176,-0.1176,-0.2352,-0.5616,0.0,0.0,0.0,0.0,0.0,0.0,0.0,0.0,0.0,0.0,0.0,0.0,0.0,0.0,0.0,0.0,0.0,0.0,0.0,0.0,0.0,0.0,0.0,0.0,0.0,0.0,0.0,0.0,0.0,0.0,0.0,0.0,0.0,0.0,0.0,0.0,0.0,0.0,0.0,0.0,0.0,0.0,0.0,0.0,0.0,0.0,0.0,0.0,0.0,0.0,0.0,0.0,0.0,0.0,1.2635,1.5708,1.7644,1.7955,1.7655,1.7058,1.6587,1.6488,0.0,0.0,0.0,0.0,0.0,0.0,0.0,0.0,0.0,0.0,0.0,0.0,0.0,0.0,0.0,0.0,0.0,0.0,0.0,0.0,0.0,0.0,0.0,0.0,0.0,0.0,0.0,-0.1424,0.0,0.0,0.0,0.0,0.0,0.0,0.0,0.0,0.0,0.0,0.0,0.0,0.0,0.0,-0.1221,-0.048,-0.1342,-0.1492,0.0,0.0,-0.3399,-0.3399,-0.3399,-0.4054,0.0,0.0,0.0,0.0,0.0,0.0,0.0,0.0,0.0,0.0,0.0,0.0,0.0,0.0,0.0,0.0,0.0,0.0,0.0,0.0,0.0,0.0,0.0,0.0,0.0,0.0,0.0,0.0,0.0,0.0,0.0,0.0,0.0,0.0,0.0,0.0,0.0,0.0,0.0,0.0,0.0,0.0,0.0,0.0,0.0,0.0,0.0,0.0,0.0,0.0,0.0,0.0,0.0,0.0,1.2723,1.275,1.5022,1.6804,1.7904,1.7671,1.7205,1.6517,1.6686,1.5359,0.0,0.0,0.0,0.0,0.0,0.0,0.0,0.0,0.0,0.0,0.0,0.0,0.0,0.0,0.0,0.0,0.0,0.0,0.0,0.0,0.0,0.0,0.0,0.0,0.0,0.0,0.0,0.0,0.0,0.0,0.0,0.0,0.0,0.0,0.0,0.0,0.0,0.0,0.0,0.0,0.0,0.0,-0.1372,-0.2145,0.0,0.0,0.0,-0.5101,-0.5101,0.0,0.0,0.0,0.0,0.0,0.0,0.0,0.0,0.0,0.0,0.0,0.0,0.0,0.0,0.0,0.0,0.0,0.0,0.0,0.0,0.0,0.0,0.0,0.0,0.0,0.0,0.0,0.0,0.0,0.0,0.0,0.0,0.0,0.0,0.0,0.0,0.0,0.0,0.0,0.0,0.0,0.0,0.0,0.0,0.0,0.0,0.0,0.0,0.0,0.0,0.0,0.0,0.0,0.0,0.0,0.0,0.0,1.2711,1.4064,1.5666,1.7505,1.7652,1.7194,1.6255,1.7045,1.5429,0.0,0.0,0.0,0.0,0.0,0.0,0.0,0.0,0.0,0.0,0.0,0.0,0.0,0.0,0.0,0.0,0.0,0.0,0.0,0.0,0.0,0.0,0.0,0.0,0.0,0.0,0.0,0.0,0.0,0.0,0.0,0.0,0.0,0.0,0.0,0.0,0.0,0.0,0.0,0.0,0.0,-0.2042,-0.2058,-0.2933,-0.3565,0.0,0.0,-0.6336,-0.6195,-0.5299,0.0,0.0,0.0,0.0,0.0,0.0,0.0,0.0,0.0,0.0,0.0,0.0,0.0,0.0,0.0,0.0,0.0,0.0,0.0,0.0,0.0,0.0,0.0,0.0,0.0,0.0,0.0,0.0,0.0,0.0,0.0,0.0,0.0,0.0,0.0,0.0,0.0,0.0,0.0,0.0,0.0,0.0,0.0,0.0,0.0,0.0,0.0,0.0,0.0,0.0,0.0,0.0,0.0,0.0,0.0,0.0,1.227,1.4555,1.6684,1.8151,1.8299,1.7813,1.6818,1.7246,1.5517,0.0,0.0,0.0,0.0,0.0,0.0,0.0,0.0,0.0,0.0,0.0,0.0,0.0,0.0,0.0,0.0,0.0,0.0,0.0,0.0,0.0,0.0,0.0,0.0,0.0,0.0,0.0,0.0,0.0,0.0,0.0,0.0,0.0,0.0,0.0,0.0,0.0,0.0,0.0,0.0,0.0,-0.2649,-0.2494,-0.3456,0.0,0.0,0.0,0.0,-0.5608,-0.4537,0.0,0.0,0.0,0.0,0.0,0.0,0.0,0.0,0.0,0.0,0.0,0.0,0.0,0.0,0.0,0.0,0.0,0.0,0.0,0.0,0.0,0.0,0.0,0.0,0.0,0.0,0.0,0.0,0.0,0.0,0.0,0.0,0.0,0.0,0.0,0.0,0.0,0.0,0.0,0.0,0.0,0.0,0.0,0.0,0.0,0.0,0.0,0.0,0.0,0.0,0.0,0.0,0.0,0.0,0.0,0.0,1.1812,1.2955,1.4389,1.6168,1.6284,1.5962,1.5174,1.5352,1.373,0.0,0.0,0.0,0.0,0.0,0.0,0.0,0.0,0.0,0.0,0.0,0.0,0.0,0.0,0.0,0.0,0.0,0.0,0.0,0.0,0.0,0.0,0.0,0.0,0.0,0.0,0.0,0.0,0.0,0.0,0.0,0.0,0.0,0.0,0.0,0.0,0.0,0.0,0.0,0.0,-0.2799,-0.2969,-0.2723,0.0,0.0,0.0,0.0,0.0,0.0,-0.4796,-0.48,0.0,0.0,0.0,0.0,0.0,0.0,0.0,0.0,0.0,0.0,0.0,0.0,0.0,0.0,0.0,0.0,0.0,0.0,0.0,0.0,0.0,0.0,0.0,0.0,0.0,0.0,0.0,0.0,0.0,0.0,0.0,0.0,0.0,0.0,0.0,0.0,0.0,0.0,0.0,0.0,0.0,0.0,0.0,0.0,0.0,0.0,0.0,0.0,0.0,0.0,0.0,0.0,0.0,0.0,0.0,1.1208,1.0877,1.1697,1.3981,1.3852,1.3662,1.3299,1.3153,1.1689,0.8798,0.0,0.0,0.0,0.0,0.0,0.0,0.0,0.0,0.0,0.0,0.0,0.0,0.0,0.0,0.0,0.0,0.0,0.0,0.0,0.0,0.0,0.0,0.0,0.0,0.0,0.0,0.0,0.0,0.0,0.0,0.0,0.0,0.0,0.0,0.0,0.0,0.0,0.0,0.0,-0.2801,-0.2988,0.0,0.0,0.0,0.0,0.0,0.0,0.0,0.0,-0.5122,0.0,0.0,0.0,0.0,0.0,0.0,0.0,0.0,0.0,0.0,0.0,0.0,0.0,0.0,0.0,0.0,0.0,0.0,0.0,0.0,0.0,0.0,0.0,0.0,0.0,0.0,0.0,0.0,0.0,0.0,0.0,0.0,0.0,0.0,0.0,0.0,0.0,0.0,0.0,0.0,0.0,0.0,0.0,0.0,0.0,0.0,0.0,0.0,0.0,0.0,0.0,0.0,0.0,0.0,0.0,0.0,1.0175,1.1543,1.3907,1.3504,1.3289,1.3263,1.285,1.1069,0.8054,0.0,0.0,0.0,0.0,0.0,0.0,0.0,0.0,0.0,0.0,0.0,0.0,0.0,0.0,0.0,0.0,0.0,0.0,0.0,0.0,0.0,0.0,0.0,0.0,0.0,0.0,0.0,0.0,0.0,0.0,0.0,0.0,0.0,0.0,0.0,0.0,0.0,0.0,-0.2207,-0.242,0.0,0.0,0.0,0.0,0.0,0.0,0.0,0.0,-0.4818,0.0,0.0,0.0,0.0,0.0,0.0,0.0,0.0,0.0,0.0,0.0,0.0,0.0,0.0,0.0,0.0,0.0,0.0,0.0,0.0,0.0,0.0,0.0,0.0,0.0,0.0,0.0,0.0,0.0,0.0,0.0,0.0,0.0,0.0,0.0,0.0,0.0,0.0,0.0,0.0,0.0,0.0,0.0,0.0,0.0,0.0,0.0,0.0,0.0,0.0,0.0,0.0,0.0,0.0,0.0,0.0,0.0,0.0,1.0146,1.1351,1.1364,1.1169,1.1,1.0399,0.9414,0.0,0.0,0.0,0.0,0.0,0.0,0.0,0.0,0.0,0.0,0.0,0.0,0.0,0.0,0.0,0.0,0.0,0.0,0.0,0.0,0.0,0.0,0.0,0.0,0.0,0.0,0.0,0.0,0.0,0.0,0.0,0.0,0.0,0.0,0.0,0.0,0.0,0.0,0.0,0.0,0.0,0.0,0.0,0.0,0.0,0.0,0.0,0.0,0.0,0.0,0.0,0.0,0.0,0.0,0.0,0.0,0.0,0.0,0.0,0.0,0.0,0.0,0.0,0.0,0.0,0.0,0.0,0.0,0.0,0.0,0.0,0.0,0.0,0.0,0.0,0.0,0.0,0.0,0.0,0.0,0.0,0.0,0.0,0.0,0.0,0.0,0.0,0.0,0.0,0.0,0.0,0.0,0.0,0.0,0.0,0.0,0.0,0.0,0.0,0.0,0.0,0.0,0.0,0.0,0.0,0.0,0.0,0.0,0.8696,0.9104,0.9223,0.9197,0.9019,0.8294,0.7977,0.0,0.0,0.0,0.0,0.0,0.0,0.0,0.0,0.0,0.0,0.0,0.0,0.0,0.0,0.0,0.0,0.0,0.0,0.0,0.0,0.0,0.0,0.0,0.0,0.0,0.0,0.0,0.0,0.0,0.0,0.0,0.0,0.0,0.0,0.0,0.0,0.0,0.0,0.0,0.0,0.0,0.0,0.0,0.0,0.0,0.0,0.0,0.0,-0.3747,0.0,0.0,0.0,0.0,0.0,0.0,0.0,0.0,0.0,0.0,0.0,0.0,0.0,0.0,0.0,0.0,0.0,0.0,0.0,0.0,0.0,0.0,0.0,0.0,0.0,0.0,0.0,0.0,0.0,0.0,0.0,0.0,0.0,0.0,0.0,0.0,0.0,0.0,0.0,0.0,0.0,0.0,0.0,0.0,0.0,0.0,0.0,0.0,0.0,0.0,0.0,0.0,0.0,0.0,0.0,0.0,0.0,0.0,0.0,0.8082,0.9091,0.8543,0.8498,0.8803,0.8587,0.8082,0.0,0.0,0.0,0.0,0.0,0.0,0.0,0.0,0.0,0.0,0.0,0.0,0.0,0.0,0.0,0.0,0.0,0.0,0.0,0.0,0.0,0.0,0.0,0.0,0.0,0.0,0.0,0.0,0.0,0.0,0.0,0.0,0.0,0.0,0.0,0.0,0.0,0.0,0.0,0.0,0.0,0.0,0.0,0.0,0.0,0.0,0.0,0.0,0.0,0.0,0.0,0.0,0.0,0.0,0.0,0.0,0.0,0.0,0.0,0.0,0.0,0.0,0.0,0.0,0.0,0.0,0.0,0.0,0.0,0.0,0.0,0.0,0.0,0.0,0.0,0.0,0.0,0.0,0.0,0.0,0.0,0.0,0.0,0.0,0.0,0.0,0.0,0.0,0.0,0.0,0.0,0.0,0.0,0.0,0.0,0.0,0.0,0.0,0.0,0.0,0.0,0.0,0.0,0.0,0.0,0.0,0.0,0.0,0.78,0.8603,0.8544,0.8307,0.8029,0.783,0.7507,0.0,0.0,0.0,0.0,0.0,0.0,0.0,0.0,0.0,0.0,0.0,0.0,0.0,0.0,0.0,0.0,0.0,0.0,0.0,0.0,0.0,0.0,0.0,0.0,0.0,0.0,0.0,0.0,0.0,0.0,0.0,0.0,0.0,0.0,0.0,0.0,0.0,0.0,0.0,0.0,0.0,0.0,0.0,0.0,0.0,0.0,0.0,0.0,0.0,0.0,0.0,0.0,0.0,0.0,0.0,0.0,0.0,0.0,0.0,0.0,0.0,0.0,0.0,0.0,0.0,0.0,0.0,0.0,0.0,0.0,0.0,0.0,0.0,0.0,0.0,0.0,0.0,0.0,0.0,0.0,0.0,0.0,0.0,0.0,0.0,0.0,0.0,0.0,0.0,0.0,0.0,0.0,0.0,0.0,0.0,0.0,0.0,0.0,0.0,0.0,0.0,0.0,0.0,0.0,0.0,0.0,0.0,0.0,0.0,0.8015,0.8346,0.8102,0.7397,0.735,0.7084,0.0,0.0,0.0,0.0,0.0,0.0,0.0,0.0,0.0,0.0,0.0,0.0,0.0,0.0,0.0,0.0,0.0,0.0,0.0,0.0,0.0,0.0,0.0,0.0,0.0,0.0,0.0,0.0,0.0,0.0,0.0,0.0,0.0,0.0,0.0,0.0,0.0,0.0,0.0,0.0,0.0,0.0,0.0,0.0,0.0,0.0,0.0,0.0,0.0,0.0,0.0,0.0,0.0,0.0,0.0,0.0,0.0,0.0,0.0,0.0,0.0,0.0,0.0,0.0,0.0,0.0,0.0,0.0,0.0,0.0,0.0,0.0,0.0,0.0,0.0,0.0,0.0,0.0,0.0,0.0,0.0,0.0,0.0,0.0,0.0,0.0,0.0,0.0,0.0,0.0,0.0,0.0,0.0,0.0,0.0,0.0,0.0,0.0,0.0,0.0,0.0,0.0,0.0,0.0,0.0,0.0,0.0,0.0,0.0,0.7735,0.7852,0.7694,0.7357,0.7511,0.7249,0.0,0.0,0.0,0.0,0.0,0.0,0.0,0.0,0.0,0.0,0.0,0.0,0.0,0.0,0.0,0.0,0.0,0.0,0.0,0.0,0.0,0.0,0.0,0.0,0.0,0.0,0.0,0.0,0.0,0.0,0.0,0.0,0.0,0.0,0.0,0.0,0.0,0.0,0.0,0.0,0.0,0.0,0.0,0.0,0.0,0.0,0.0,0.0,0.0,0.0,0.0,0.0,0.0,0.0,0.0,0.0,0.0,0.0,0.0,0.0,0.0,0.0,0.0,0.0,0.0,0.0,0.0,0.0,0.0,0.0,0.0,0.0,0.0,0.0,0.0,0.0,0.0,0.0,0.0,0.0,0.0,0.0,0.0,0.0,0.0,0.0,0.0,0.0,0.0,0.0,0.0,0.0,0.0,0.0,0.0,0.0,0.0,0.0,0.0,0.0,0.0,0.0,0.0,0.0,0.0,0.0,0.0,0.0,0.0,0.6891,0.6718,0.6665,0.6553,0.6664,0.6621,0.6375,0.0,0.0,0.0,0.0,0.0,0.0,0.0,0.0,0.0,0.0,0.0,0.0,0.0,0.0,0.0,0.0,0.0,0.0,0.0,0.0,0.0,0.0,0.0,0.0,0.0,0.0,0.0,0.0,0.0,0.0,0.0,0.0,0.0,0.0,0.0,0.0,0.0,0.0,0.0,0.0,0.0,0.0,0.0,0.0,0.0,0.0,0.0,0.0,0.0,0.0,0.0,0.0,0.0,0.0,0.0,0.0,0.0,0.0,0.0,0.0,0.0,0.0,0.0,0.0,0.0,0.0,0.0,0.0,0.0,0.0,0.0,0.0,0.0,0.0,0.0,0.0,0.0,0.0,0.0,0.0,0.0,0.0,0.0,0.0,0.0,0.0,0.0,0.0,0.0,0.0,0.0,0.0,0.0,0.0,0.0,0.0,0.0,0.0,0.0,0.0,0.0,0.0,0.0,0.0,0.0,0.0,0.0,0.0,0.616,0.61,0.6065,0.6059,0.6146,0.615,0.0,0.0,0.0,0.0,0.0,0.0,0.0,0.0,0.0,0.0,0.0,0.0,0.0,0.0,0.0,0.0,0.0,0.0,0.0,0.0,0.0,0.0,0.0,0.0,0.0,0.0,0.0,0.0,0.0,0.0,0.0,0.0,0.0,0.0,0.0,0.0,0.0,0.0,0.0,0.0,0.0,0.0,0.0,0.0,0.0,0.0,0.0,0.0,0.0,0.0,0.0,0.0,0.0,0.0,0.0,0.0,0.0,0.0,0.0,0.0,0.0,0.0,0.0,0.0,0.0,0.0,0.0,0.0,0.0,0.0,0.0,0.0,0.0,0.0,0.0,0.0,0.0,0.0,0.0,0.0,0.0,0.0,0.0,0.0,0.0,0.0,0.0,0.0,0.0,0.0,0.0,0.0,0.0,0.0,0.0,0.0,0.0,0.0,0.0,0.0,0.0,0.0,0.0,0.0,0.0,0.0,0.0,0.0,0.4911,0.5624,0.584,0.5951,0.5977,0.6132,0.6042,0.0,0.0,0.0,0.0,0.0,0.0,0.0,0.0,0.0,0.0,0.0,0.0,0.0,0.0,0.0,0.0,0.0,0.0,0.0,0.0,0.0,0.0,0.0,0.0,0.0,0.0,0.0,0.0,0.0,0.0,0.0,0.0,0.0,0.0,0.0,0.0,0.0,0.0,0.0,0.0,0.0,0.0,0.0,0.0,0.0,0.0,0.0,0.0,0.0,0.0,0.0,0.0,0.0,0.0,0.0,0.0,0.0,0.0,0.0,0.0,0.0,0.0,0.0,0.0,0.0,0.0,0.0,0.0,0.0,0.0,0.0,0.0,0.0,0.0,0.0,0.0,0.0,0.0,0.0,0.0,0.0,0.0,0.0,0.0,0.0,0.0,0.0,0.0,0.0,0.0,0.0,0.0,0.0,0.0,0.0,0.0,0.0,0.0,0.0,0.0,0.0,0.0,0.0,0.0,0.0,0.0,0.0,0.0,0.0,0.4132,0.0,0.4675,0.0,0.5453,0.5659,0.0,0.0,0.0,0.0,0.0,0.0,0.0,0.0,0.0,0.0,0.0,0.0,0.0,0.0,0.0,0.0,0.0,0.0,0.0,0.0,0.0,0.0,0.0,0.0,0.0,0.0,0.0,0.0,0.0,0.0,0.0,0.0,0.0,0.0,0.0,0.0,0.0,0.0,0.0,0.0,0.0,0.0,0.0,0.0,0.0,0.0,0.0,0.0,0.0,0.0,0.0,0.0,0.0,0.0,0.0,0.0,0.0,0.0,0.0,0.0,0.0,0.0,0.0,0.0,0.0,0.0,0.0,0.0,0.0,0.0,0.0,0.0,0.0,0.0,0.0,0.0,0.0,0.0,0.0,0.0,0.0,0.0,0.0,0.0,0.0,0.0,0.0,0.0,0.0,0.0,0.0,0.0,0.0,0.0,0.0,0.0,0.0,0.0,0.0,0.0,0.0,0.0,0.0,0.0,0.0,0.0,0.0,0.0,0.0,0.3761,0.3715,0.3715,0.378,0.4551,0.4886,0.0,0.0,0.0,0.0,0.0,0.0,0.0,0.0,0.0,0.0,0.0,0.0,0.0,0.0,0.0,0.0,0.0,0.0,0.0,0.0,0.0,0.0,0.0,0.0,0.0,0.0,0.0,0.0,0.0,0.0,0.0,0.0,0.0,0.0,0.0,0.0,0.0,0.0,0.0,0.0,0.0,0.0,0.0,0.0,0.0,0.0,0.0,0.0,0.0,0.0,0.0,0.0,0.0,0.0,0.0,0.0,0.0,0.0,0.0,0.0,0.0,0.0,0.0,0.0,0.0,0.0,0.0,0.0,0.0,0.0,0.0,0.0,0.0,0.0,0.0,0.0,0.0,0.0,0.0,0.0,0.0,0.0,0.0,0.0,0.0,0.0,0.0,0.0,0.0,0.0,0.0,0.0,0.0,0.0,0.0,0.0,0.0,0.0,0.0,0.0,0.0,0.0,0.0,0.0,0.0,0.0,0.0,0.0,0.0,0.0,0.3641,0.3188,0.3188,0.3641,0.3886,0.0,0.0,0.0,0.0,0.0,0.0,0.0,0.0,0.0,0.0,0.0,0.0,0.0,0.0,0.0,0.0,0.0,0.0,0.0,0.0,0.0,0.0,0.0,0.0,0.0,0.0,0.0,0.0,0.0,0.0,0.0,0.0,0.0,0.0,0.0,0.0,0.0,0.0,0.0,0.0,0.0,0.0,0.0,0.0,0.0,0.0,0.0,0.0,0.0,0.0,0.0,0.0,0.0,0.0,0.0,0.0,0.0,0.0,0.0,0.0,0.0,0.0,0.0,0.0,0.0,0.0,0.0,0.0,0.0,0.0,0.0,0.0,0.0,0.0,0.0,0.0,0.0,0.0,0.0,0.0,0.0,0.0,0.0,0.0,0.0,0.0,0.0,0.0,0.0,0.0,0.0,0.0,0.0,0.0,0.0,0.0,0.0,0.0,0.0,0.0,0.0,0.0,0.0,0.0,0.0,0.0,0.0,0.0,0.0,0.0,0.4034,0.0,0.4089,0.4694,0.461,0.3698,0.0,0.0,0.0,0.0,0.0,0.0,0.0,0.0,0.0,0.0,0.0,0.0,0.0,0.0,0.0,0.0,0.0,0.0,0.0,0.0,0.0,0.0,0.0,0.0,0.0,0.0,0.0,0.0,0.0,0.0,0.0,0.0,0.0,0.0,0.0,0.0,0.0,0.0,0.0,0.0,0.0,0.0,0.0,0.0,0.0,0.0,0.0,0.0,0.0,0.0,0.0,0.0,0.0,0.0,0.0,0.0,0.0,0.0,0.0,0.0,0.0,0.0,0.0,0.0,0.0,0.0,0.0,0.0,0.0,0.0,0.0,0.0,0.0,0.0,0.0,0.0,0.0,0.0,0.0,0.0,0.0,0.0,0.0,0.0,0.0,0.0,0.0,0.0,0.0,0.0,0.0,0.0,0.0,0.0,0.0,0.0,0.0,0.0,0.0,0.0,0.0,0.0,0.0,0.0,0.0,0.0,0.0,0.0,0.0,0.0,0.4164,0.4164,0.4344,0.4223,0.0,0.0,0.0,0.0,0.0,0.0,0.0,0.0,0.0,0.0,0.0,0.0,0.0,0.0,0.0,0.0,0.0,0.0,0.0,0.0,0.0,0.0,0.0,0.0,0.0,0.0,0.0,0.0,0.0,0.0,0.0,0.0,0.0,0.0,0.0,0.0,0.0,0.0,0.0,0.0,0.0,0.0,0.0,0.0,0.0,0.0,0.0,0.0,0.0,0.0,0.0,0.0,0.0,0.0,0.0,0.0,0.0,0.0,0.0,0.0,0.0,0.0,0.0,0.0,0.0,0.0,0.0,0.0,0.0,0.0,0.0,0.0,0.0,0.0,0.0,0.0,0.0,0.0,0.0,0.0,0.0,0.0,0.0,0.0,0.0,0.0,0.0,0.0,0.0,0.0,0.0,0.0,0.0,0.0,0.0,0.0,0.0,0.0,0.0,0.0,0.0,0.0,0.0,0.0,0.0,0.0,0.0,0.0,0.0,0.0,0.0,0.3646,0.3845,0.3452,0.0,0.3769,0.0,0.0,0.0,0.0,0.0,0.0,0.0,0.0,0.0,0.0,0.0,0.0,0.0,0.0,0.0,0.0,0.0,0.0,0.0,0.0,0.0,0.0,0.0,0.0,0.0,0.0,0.0,0.0,0.0,0.0,0.0,0.0,0.0,0.0,0.0,0.0,0.0,0.0,0.0,0.0,0.0,0.0,0.0,0.0,0.0,0.0,0.0,0.0,0.0,0.0,0.0,0.0,0.0,0.0,0.0,0.0,0.0,0.0,0.0,0.0,0.0,0.0,0.0,0.0,0.0,0.0,0.0,0.0,0.0,0.0,0.0,0.0,0.0,0.0,0.0,0.0,0.0,0.0,0.0,0.0,0.0,0.0,0.0,0.0,0.0,0.0,0.0,0.0,0.0,0.0,0.0,0.0,0.0,0.0,0.0,0.0,0.0,0.0,0.0,0.0,0.0,0.0,0.0,0.0,0.0,0.0,0.0,0.0,0.0,0.0,0.0,0.0,0.4428,0.4308,0.4566,0.0,0.0,0.0,0.0,0.0,0.0,0.0,0.0,0.0,0.0,0.0,0.0,0.0,0.0,0.0,0.0,0.0,0.0,0.0,0.0,0.0,0.0,0.0,0.0,0.0,0.0,0.0,0.0,0.0,0.0,0.0,0.0,0.0,0.0,0.0,0.0,0.0,0.0,0.0,0.0,0.0,0.0,0.0,0.0,0.0,0.0,0.0,0.0,0.0,0.0,0.0,0.0,0.0,0.0,0.0,0.0,0.0,0.0,0.0,0.0,0.0,0.0,0.0,0.0,0.0,0.0,0.0,0.0,0.0,0.0,0.0,0.0,0.0,0.0,0.0,0.0,0.0,0.0,0.0,0.0,0.0,0.0,0.0,0.0,0.0,0.0,0.0,0.0,0.0,0.0,0.0,0.0,0.0,0.0,0.0,0.0,0.0,0.0,0.0,0.0,0.0,0.0,0.0,0.0,0.0,0.0,0.0,0.0,0.0,0.0,0.5716,0.5523,0.4944,0.4727,0.4835,0.0,0.0,0.0,0.0,0.0,0.0,0.0,0.0,0.0,0.0,0.0,0.0,0.0,0.0,0.0,0.0,0.0,0.0,0.0,0.0,0.0,0.0,0.0,0.0,0.0,0.0,0.0,0.0,0.0,0.0,0.0,0.0,0.0,0.0,0.0,0.0,0.0,0.0,0.0,0.0,0.0,0.0,0.0,0.0,0.0,0.0,0.0,0.0,0.0,0.0,0.0,0.0,0.0,0.0,0.0,0.0,0.0,0.0,0.0,0.0,0.0,0.0,0.0,0.0,0.0,0.0,0.0,0.0,0.0,0.0,0.0,0.0,0.0,0.0,0.0,0.0,0.0,0.0,0.0,0.0,0.0,0.0,0.0,0.0,0.0,0.0,0.0,0.0,0.0,0.0,0.0,0.0,0.0,0.0,0.0,0.0,0.0,0.0,0.0,0.0,0.0,0.0,0.0,0.0,0.0,0.0,0.0,0.0,0.0,0.0,0.0,0.0,0.0,0.0,0.4839,0.0,0.0,0.0,0.0,0.0,0.0,0.0,0.0,0.0,0.0,0.0,0.0,0.0,0.0,0.0,0.0,0.0,0.0,0.0,0.0,0.0,0.0,0.0,0.0,0.0,0.0,0.0,0.0,0.0,0.0,0.0,0.0,0.0,0.0,0.0,0.0,0.0,0.0,0.0,0.0,0.0,0.0,0.0,0.0,0.0,0.0,0.0,0.0,0.0,0.0,0.0,0.0,0.0,0.0,0.0,0.0,0.0,0.0,0.0,0.0,0.0,0.0,0.0,0.0,0.0,0.0,0.0,0.0,0.0,0.0,0.0,0.0,0.0,0.0,0.0,0.0,0.0,0.0,0.0,0.0,0.0,0.0,0.0,0.0,0.0,0.0,0.0,0.0,0.0,0.0,0.0,0.0,0.0,0.0,0.0,0.0,0.0,0.0,0.0,0.0,0.0,0.0,0.0,0.0,0.0,0.0,0.0,0.0,0.0,0.0,0.0,0.0,0.0,0.0,0.0,0.0,0.0,0.0,0.0,0.0,0.0,0.0,0.0,0.0,0.0,0.0,0.0,0.0,0.0,0.0,0.0,0.0,0.0,0.0,0.0,0.0,0.0,0.0,0.0,0.0,0.0,0.0,0.0,0.0,0.0,0.0,0.0,0.0,0.0,0.0,0.0,0.0,0.0,0.0,0.0,0.0,0.0,0.0,0.0,0.0,0.0,0.0,0.0,0.0,0.0,0.0,0.0,0.0,0.0,0.0,0.0,0.0,0.0,0.0,0.0,0.0,0.0,0.0,0.0,0.0,0.0,0.0,0.0,0.0,0.0,0.0,0.0,0.0,0.0,0.0,0.0,0.0,0.0,0.0,0.0,0.0,0.0,0.0,0.0,0.0,0.0,0.0,0.0,0.0,0.0,0.0,0.0,0.0,0.0,0.0,0.0,0.0,0.0,0.0,0.0,0.0,0.0,0.0,0.0,0.0,0.0,0.0,0.0,0.0,0.0,0.0,0.0,0.0,0.0,0.0,0.0,0.0,0.0,0.0,0.0,0.0,0.0,0.0,0.0,0.0,0.0,0.0,0.0,0.0,0.0,0.0,0.0,0.0,0.0,0.0,0.0,0.0,0.0,0.0,0.0,0.0,0.0,0.0,0.0,0.0,0.0,0.0,0.0,0.0,0.0,0.0,0.0,0.0,0.0,0.0,0.0,0.0,0.0,0.0,0.0,0.0,0.0,0.0,0.0,0.0,0.0,0.0,0.0,0.0,0.0,0.0,0.0,0.0,0.0,0.0,0.0,0.0,0.0,0.0,0.0,0.0,0.0,0.0,0.0,0.0,0.0,0.0,0.0,0.0,0.0,0.0,0.0,0.0,0.0,0.0,0.0,0.0,0.0,0.0,0.0,0.0,0.0,0.0,0.0,0.0,0.0,0.0,0.0,0.0,0.0,0.0,0.0,0.0,0.0,0.0,0.0,0.0,0.0,0.0,0.0,0.0,0.0,0.0,0.0,0.0,0.0,0.0,0.0,0.0,0.0,0.0,0.0,0.0,0.0,0.0,0.0,0.0,0.0,0.0,0.0,0.0,0.0,0.0,0.0,0.0,0.0,0.0,0.0,0.0,0.0,0.0,0.0,0.0,0.0,0.0,0.0,0.0,0.0,0.0,0.0,0.0,0.0,0.0,0.0,0.0,0.0,0.0,0.0,0.0,0.0,0.0,0.0,0.0,0.0,0.0,0.0,0.0,0.0,0.0,0.0,0.0,0.0,0.0,0.0,0.0,0.0,0.0,0.0,0.0,0.0,0.0,0.0,0.0,0.0,0.0,0.0,0.0,0.0,0.0,0.0,0.0,0.0,0.0,0.0,0.0,0.0,0.0,0.0,0.0,0.0,0.0,0.0,0.0,0.0,0.0,0.0,0.0,0.0,0.0,0.0,0.0,0.0,0.0,0.0,0.0,0.0,0.0,0.0,0.0,0.0,0.0,0.0,0.0,0.0,0.0,0.0,0.0,0.0,0.0,0.0,0.0,0.0,0.0,0.0,0.0,0.0,0.0,0.0,0.0,0.0,0.0,0.0,0.0,0.0,0.0,0.0,0.0,0.0,0.0,0.0,0.0,0.0,0.0,0.0,0.0,0.0,0.0,0.0,0.0,0.0,0.0,0.0,0.0,0.0,0.0,0.0,0.0,0.0,0.0,0.0,0.0,0.0,0.0,0.0,0.0,0.0,0.0,0.0,0.0,0.0,0.0,0.0,0.0,0.0,0.0,0.0,0.0,0.0,0.0,0.0,0.0,0.0,0.0,0.0,0.0,0.0,0.0,0.0,0.0,0.0,0.0,0.0,0.0,0.0,0.0,0.0,0.0,0.0,0.0,0.0,0.0,0.0,0.0,0.0,0.0,0.0,0.0,0.0,0.0,0.0,0.0,0.0,0.0,0.0,0.0,0.0,0.0,0.0,0.0,0.0,0.0,0.0,0.0,0.0,0.0,0.0,0.0,0.0,0.0,0.0,0.0,0.0,0.0,0.0,0.0,0.0,0.0,0.0,0.0,0.0,0.0,0.0,0.0,0.0,0.0,0.0,0.0,0.0,0.0,0.0,0.0,0.0,0.0,0.0,0.0,0.0,0.0,0.0,0.0,0.0,0.0,0.0,0.0,0.0,0.0,0.0,0.0,0.0,0.0,0.0,0.0,0.0,0.0,0.0,0.0,0.0,0.0,0.0,0.0,0.0,0.0,0.0,0.0,0.0,0.0,0.0,0.0,0.0,0.0,0.0,0.0,0.0,0.0,0.0,0.0,0.0,0.0,0.0,0.0,0.0,0.0,0.0,0.0,0.0,0.0,0.0,0.0,0.0,0.0,0.0,0.0,0.0,0.0,0.0,0.0,0.0,0.0,0.0,0.0,0.0,0.0,0.0,0.0,0.0,0.0,0.0,0.0,0.0,0.0,0.0,0.0,0.0,0.0,0.0,0.0,0.0,0.0,0.0,0.0,0.0,0.0,0.0,0.0,0.0,0.0,0.0,0.0,0.0,0.0,0.0,0.0,0.0,0.0,0.0,0.0,0.0,0.0,0.0,0.0,0.0,0.0,0.0,0.0,0.0,0.0,0.0,0.0,0.0,0.0,0.0,0.0,0.0,0.0,0.0,0.0,0.0,0.0,0.0,0.0,0.0,0.0,0.0,0.0,0.0,0.0,0.0,0.0,0.0,0.0,0.0,0.0,0.0,0.0,0.0,0.0,0.0,0.0,0.0,0.0,0.0,0.0,0.0,0.0,0.0,0.0,0.0,0.0,0.0,0.0,0.0,0.0,0.0,0.0,0.0,0.0,0.0,0.0,0.0,0.0,0.0,0.0,0.0,0.0,0.0,0.0,0.0,0.0,0.0,0.0,0.0,0.0,0.0,0.0,0.0,0.0,0.0,0.0,0.0,0.0,0.0,0.0,0.0,0.0,0.0,0.0,0.0,0.0,0.0,0.0,0.0,0.0,0.0,0.0,0.0,0.0,0.0,0.0,0.0,0.0,0.0,0.0,0.0,0.0,0.0,0.0,0.0,0.0,0.0,0.0,0.0,0.0,0.0,0.0,0.0,0.0,0.0,0.0,0.0,0.0,0.0,0.0,0.0,0.0,0.0,0.0,0.0,0.0,0.0,0.0,0.0,0.0,0.0,0.0,0.0,0.0,0.0,0.0,0.0,0.0,0.0,0.0,0.0,0.0,0.0,0.0,0.0,0.0,0.0,0.0,0.0,0.0,0.0,0.0,0.0,0.0,0.0,0.0,0.0,0.0,0.0,0.0,0.0,0.0,0.0,0.0,0.0,0.0,0.0,0.0,0.0,0.0,0.0,0.0,0.0,0.0,0.0,0.0,0.0,0.0,0.0,0.0,0.0,0.0,0.0,0.0,0.0,0.0,0.0,0.0,0.0,0.0,0.0,0.0,0.0,0.0,0.0,0.0,0.0,0.0,0.0,0.0,0.0,0.0,0.0,0.0,0.0,0.0,0.0,0.0,0.0,0.0,0.0,0.0,0.0,0.0,0.0,0.0,0.0,0.0,0.0,0.0,0.0,0.0,0.0,0.0,0.0,0.0,0.0,0.0,0.0,0.0,0.0,0.0,0.0,0.0,0.0,0.0,0.0,0.0,0.0,0.0,0.0,0.0,0.0,0.0,0.0,0.0,0.0,0.0,0.0,0.0,0.0,0.0,0.0,0.0,0.0,0.0,0.0,0.0,0.0,0.0,0.0,0.0,0.0,0.0,0.0,0.0,0.0,0.0,0.0,0.0,0.0,0.0,0.0,0.0,0.0,0.0,0.0,0.0,0.0,0.0,0.0,0.0,0.0,0.0,0.0,0.0,0.0,0.0,0.0,0.0,0.0,0.0]}]]]